[[{"header":{"parameterUnit":"m.s-1","parameterCategory":1,"la1":30.6,"la2":29.2853,"lo1":-89.7004,"lo2":-87.6739,"dy":0.0162,"dx":0.0183,"nx":112,"ny":82,"refTime":"2024-06-06T06:00:00:Z","depth":0,"parameterNumber":2,"parameterNumberName":"U-component_of_WINDS"},"data":[0.0,0.0,0.0,0.0,0.0,0.0,0.0,0.0,0.0,0.0,0.0,0.0,0.0,0.0,0.0,0.0,0.0,0.0,0.0,0.0,0.0,0.0,0.0,0.0,0.0,0.0,0.0,0.0,0.0,0.0,0.0,0.0,0.0,0.0,0.0,0.0,0.0,0.0,0.0,0.0,0.0,0.0,0.0,0.0,0.0,0.0,0.0,0.0,0.0,0.0,0.0,0.0,0.0,0.0,0.0,0.0,0.0,0.0,0.0,0.0,0.0,0.0,0.0,0.0,0.0,0.0,0.0,0.0,0.0,0.0,0.0,0.0,0.0,0.0,0.0,0.0,0.0,0.0,0.0,0.0,0.0,0.0,0.0,0.0,0.0,0.0,0.0,0.0,0.0,0.0,-3.3052,-3.4827,-3.5365,-3.5267,-3.4387,-3.3756,-3.1974,-2.8726,0.0,0.0,0.0,0.0,0.0,0.0,0.0,0.0,0.0,0.0,0.0,0.0,0.0,0.0,0.0,0.0,0.0,0.0,0.0,0.0,0.0,0.0,0.0,0.0,0.0,0.0,0.0,0.0,0.0,0.0,0.0,0.0,0.0,0.0,0.0,0.0,0.0,0.0,0.0,0.0,0.0,0.0,0.0,0.0,0.0,0.0,0.0,0.0,0.0,0.0,0.0,0.0,0.0,0.0,0.0,0.0,0.0,0.0,0.0,0.0,0.0,0.0,0.0,0.0,0.0,0.0,0.0,0.0,0.0,0.0,0.0,0.0,0.0,0.0,0.0,0.0,0.0,0.0,0.0,0.0,0.0,0.0,0.0,0.0,0.0,0.0,0.0,0.0,0.0,0.0,0.0,0.0,0.0,0.0,0.0,0.0,0.0,0.0,0.0,0.0,0.0,0.0,0.0,0.0,-3.3133,-3.4442,-3.5196,-3.5064,-3.3694,-3.299,-3.145,-2.8694,0.0,0.0,0.0,0.0,0.0,0.0,0.0,0.0,0.0,0.0,0.0,0.0,0.0,0.0,0.0,0.0,0.0,0.0,0.0,0.0,0.0,0.0,0.0,0.0,0.0,0.0,0.0,0.0,0.0,0.0,0.0,0.0,0.0,0.0,0.0,0.0,0.0,0.0,0.0,0.0,0.0,0.0,0.0,0.0,0.0,0.0,0.0,0.0,0.0,0.0,0.0,0.0,0.0,0.0,0.0,0.0,0.0,0.0,0.0,0.0,0.0,0.0,0.0,0.0,0.0,0.0,0.0,0.0,0.0,0.0,0.0,0.0,0.0,0.0,0.0,0.0,0.0,0.0,0.0,0.0,0.0,0.0,0.0,0.0,0.0,0.0,0.0,0.0,0.0,0.0,0.0,0.0,0.0,0.0,0.0,0.0,0.0,0.0,0.0,0.0,0.0,0.0,0.0,-3.2136,-3.3136,-3.3812,-3.4556,-3.4573,-3.3491,-3.279,-3.1106,-2.8098,-2.7631,0.0,0.0,0.0,0.0,0.0,0.0,0.0,0.0,0.0,0.0,0.0,0.0,0.0,0.0,0.0,0.0,0.0,0.0,0.0,0.0,0.0,0.0,0.0,0.0,0.0,0.0,0.0,0.0,0.0,0.0,0.0,0.0,0.0,0.0,0.0,0.0,0.0,0.0,0.0,0.0,0.0,0.0,0.0,0.0,0.0,0.0,0.0,0.0,0.0,0.0,0.0,0.0,0.0,0.0,0.0,0.0,0.0,0.0,0.0,0.0,0.0,0.0,0.0,0.0,0.0,0.0,0.0,0.0,0.0,0.0,0.0,0.0,0.0,0.0,0.0,0.0,0.0,0.0,0.0,0.0,0.0,0.0,0.0,0.0,0.0,0.0,0.0,0.0,0.0,0.0,0.0,0.0,0.0,0.0,0.0,0.0,0.0,0.0,0.0,0.0,0.0,0.0,-3.2033,-3.3055,-3.3109,-3.3795,-3.3863,-3.2966,-3.2357,-3.073,-2.7598,-2.7242,0.0,0.0,0.0,0.0,0.0,0.0,0.0,0.0,0.0,0.0,0.0,0.0,0.0,0.0,0.0,0.0,0.0,0.0,0.0,0.0,0.0,0.0,0.0,0.0,0.0,0.0,0.0,0.0,0.0,0.0,0.0,0.0,0.0,0.0,0.0,0.0,0.0,0.0,0.0,0.0,0.0,0.0,0.0,0.0,0.0,0.0,0.0,0.0,0.0,0.0,0.0,0.0,0.0,0.0,0.0,0.0,0.0,0.0,0.0,0.0,0.0,0.0,0.0,0.0,0.0,0.0,0.0,0.0,0.0,0.0,0.0,0.0,0.0,0.0,0.0,0.0,0.0,0.0,0.0,0.0,0.0,0.0,0.0,0.0,0.0,0.0,0.0,0.0,0.0,0.0,0.0,0.0,0.0,0.0,0.0,0.0,0.0,0.0,0.0,0.0,0.0,0.0,-3.1996,-3.2848,-3.2422,-3.3034,-3.2899,-3.1478,-3.1309,-3.0156,-2.7566,-2.6752,0.0,0.0,0.0,0.0,0.0,0.0,0.0,0.0,0.0,0.0,0.0,0.0,0.0,0.0,0.0,0.0,0.0,0.0,0.0,0.0,0.0,0.0,0.0,0.0,0.0,0.0,0.0,0.0,0.0,0.0,0.0,0.0,0.0,0.0,0.0,0.0,0.0,0.0,0.0,0.0,0.0,0.0,0.0,0.0,0.0,0.0,0.0,0.0,0.0,0.0,0.0,0.0,0.0,0.0,0.0,0.0,0.0,0.0,0.0,0.0,0.0,0.0,0.0,0.0,0.0,0.0,0.0,0.0,0.0,0.0,0.0,0.0,0.0,0.0,0.0,0.0,0.0,0.0,0.0,0.0,0.0,0.0,0.0,0.0,0.0,0.0,0.0,0.0,0.0,0.0,0.0,0.0,0.0,0.0,0.0,0.0,0.0,0.0,0.0,0.0,0.0,0.0,-3.0615,-3.1577,-3.2222,-3.2544,-3.2476,-3.1918,-3.113,-2.9708,-2.7524,0.0,0.0,0.0,0.0,0.0,0.0,0.0,0.0,0.0,0.0,0.0,0.0,0.0,0.0,0.0,0.0,0.0,0.0,0.0,0.0,0.0,0.0,0.0,0.0,0.0,0.0,0.0,0.0,0.0,0.0,0.0,0.0,0.0,0.0,0.0,0.0,0.0,0.0,0.0,0.0,0.0,0.0,0.0,0.0,0.0,0.0,0.0,0.0,0.0,0.0,0.0,0.0,0.0,0.0,0.0,0.0,0.0,0.0,0.0,0.0,0.0,0.0,0.0,0.0,0.0,0.0,0.0,0.0,0.0,0.0,0.0,0.0,0.0,0.0,0.0,0.0,0.0,0.0,0.0,0.0,0.0,0.0,0.0,0.0,0.0,0.0,0.0,0.0,0.0,0.0,0.0,0.0,0.0,0.0,0.0,0.0,0.0,0.0,0.0,0.0,0.0,0.0,-2.8262,-2.9542,-3.0659,-3.1566,-3.1837,-3.1935,-3.1935,-3.0725,-2.9197,-2.7508,0.0,0.0,0.0,0.0,0.0,0.0,0.0,0.0,0.0,0.0,0.0,0.0,0.0,0.0,0.0,0.0,0.0,0.0,0.0,0.0,0.0,0.0,0.0,0.0,0.0,0.0,0.0,0.0,0.0,0.0,0.0,0.0,0.0,0.0,0.0,0.0,0.0,0.0,0.0,0.0,0.0,0.0,0.0,0.0,0.0,0.0,0.0,0.0,0.0,0.0,0.0,0.0,0.0,0.0,0.0,0.0,0.0,0.0,0.0,0.0,0.0,0.0,0.0,0.0,0.0,0.0,0.0,0.0,0.0,0.0,0.0,0.0,0.0,0.0,0.0,0.0,0.0,0.0,0.0,0.0,0.0,0.0,0.0,0.0,0.0,0.0,0.0,0.0,0.0,0.0,0.0,0.0,0.0,0.0,0.0,0.0,0.0,0.0,0.0,0.0,0.0,0.0,-2.7157,-2.9039,-3.0293,-3.0293,-3.0838,-3.119,-3.119,-2.9976,-2.8674,0.0,0.0,0.0,0.0,0.0,0.0,0.0,0.0,0.0,0.0,0.0,0.0,0.0,0.0,0.0,0.0,0.0,0.0,0.0,0.0,0.0,0.0,0.0,0.0,0.0,0.0,0.0,0.0,0.0,0.0,0.0,0.0,0.0,0.0,0.0,0.0,0.0,0.0,0.0,0.0,0.0,0.0,0.0,0.0,0.0,0.0,0.0,0.0,0.0,0.0,0.0,0.0,0.0,0.0,0.0,0.0,0.0,0.0,0.0,0.0,0.0,0.0,0.0,0.0,0.0,0.0,0.0,0.0,0.0,0.0,0.0,0.0,0.0,0.0,0.0,0.0,0.0,0.0,0.0,0.0,0.0,0.0,0.0,0.0,0.0,0.0,0.0,0.0,0.0,0.0,0.0,0.0,0.0,0.0,0.0,0.0,0.0,0.0,0.0,0.0,0.0,0.0,0.0,-2.7073,-2.8307,-2.918,-2.9629,-3.0208,-3.0393,-2.9995,-2.9567,-2.8602,-2.6891,0.0,0.0,0.0,0.0,0.0,0.0,0.0,0.0,0.0,0.0,0.0,0.0,0.0,0.0,0.0,0.0,0.0,0.0,0.0,0.0,0.0,0.0,0.0,0.0,0.0,0.0,0.0,0.0,0.0,0.0,0.0,0.0,0.0,0.0,0.0,0.0,0.0,0.0,0.0,0.0,0.0,0.0,0.0,0.0,0.0,0.0,0.0,0.0,0.0,0.0,0.0,0.0,0.0,0.0,0.0,0.0,0.0,0.0,0.0,0.0,0.0,0.0,0.0,0.0,0.0,0.0,0.0,0.0,0.0,0.0,0.0,0.0,0.0,0.0,0.0,0.0,0.0,0.0,0.0,0.0,0.0,0.0,0.0,0.0,0.0,0.0,0.0,0.0,0.0,0.0,0.0,0.0,0.0,0.0,0.0,0.0,0.0,0.0,0.0,0.0,0.0,0.0,-2.6414,-2.7705,-2.8654,-2.8996,-2.9585,-2.9805,-2.9406,-2.918,-2.8306,-2.6616,0.0,0.0,0.0,0.0,0.0,0.0,0.0,0.0,0.0,0.0,0.0,0.0,0.0,0.0,0.0,0.0,0.0,0.0,0.0,0.0,0.0,0.0,0.0,0.0,0.0,0.0,0.0,0.0,0.0,0.0,0.0,0.0,0.0,0.0,0.0,0.0,0.0,0.0,0.0,0.0,0.0,0.0,0.0,0.0,0.0,0.0,0.0,0.0,0.0,0.0,0.0,0.0,0.0,0.0,0.0,0.0,0.0,0.0,0.0,0.0,0.0,0.0,0.0,0.0,0.0,0.0,0.0,0.0,0.0,0.0,0.0,0.0,0.0,0.0,0.0,0.0,0.0,0.0,0.0,0.0,0.0,0.0,0.0,0.0,0.0,0.0,0.0,0.0,0.0,0.0,0.0,0.0,0.0,0.0,0.0,0.0,0.0,0.0,0.0,0.0,0.0,0.0,-2.545,-2.7267,-2.8415,-2.8415,-2.8966,-2.9271,-2.9225,-2.8779,-2.7953,-2.6576,0.0,0.0,0.0,0.0,0.0,0.0,0.0,0.0,0.0,0.0,0.0,0.0,0.0,0.0,0.0,0.0,0.0,0.0,0.0,0.0,0.0,0.0,0.0,0.0,0.0,0.0,0.0,0.0,0.0,0.0,0.0,0.0,0.0,0.0,0.0,0.0,0.0,0.0,0.0,0.0,0.0,0.0,0.0,0.0,0.0,0.0,0.0,0.0,0.0,0.0,0.0,0.0,0.0,0.0,0.0,0.0,0.0,0.0,0.0,0.0,-2.1742,0.0,0.0,0.0,0.0,0.0,0.0,0.0,0.0,0.0,0.0,0.0,0.0,0.0,0.0,0.0,0.0,0.0,0.0,0.0,0.0,0.0,0.0,0.0,0.0,0.0,0.0,0.0,0.0,0.0,0.0,0.0,0.0,0.0,0.0,0.0,0.0,0.0,0.0,0.0,0.0,0.0,-2.551,-2.6898,-2.781,-2.781,-2.8319,-2.8511,-2.8027,-2.8319,-2.7933,-2.6648,-2.552,0.0,0.0,0.0,0.0,0.0,0.0,0.0,0.0,0.0,0.0,0.0,0.0,0.0,0.0,0.0,0.0,0.0,0.0,0.0,0.0,0.0,0.0,0.0,0.0,0.0,0.0,0.0,0.0,0.0,0.0,0.0,0.0,0.0,0.0,0.0,0.0,0.0,0.0,0.0,0.0,0.0,0.0,0.0,0.0,0.0,0.0,0.0,0.0,0.0,0.0,0.0,0.0,0.0,0.0,0.0,0.0,0.0,0.0,0.0,0.0,-2.1769,0.0,0.0,0.0,0.0,0.0,0.0,0.0,0.0,0.0,0.0,0.0,0.0,0.0,0.0,0.0,0.0,0.0,0.0,0.0,0.0,0.0,0.0,0.0,0.0,0.0,0.0,0.0,0.0,0.0,0.0,0.0,0.0,0.0,0.0,0.0,0.0,0.0,0.0,0.0,0.0,-2.5525,-2.6752,-2.7625,-2.7625,-2.786,-2.7959,-2.7625,-2.791,-2.7508,-2.6144,-2.5479,0.0,0.0,0.0,0.0,0.0,0.0,0.0,0.0,0.0,0.0,0.0,0.0,0.0,0.0,0.0,0.0,0.0,0.0,0.0,0.0,0.0,0.0,0.0,0.0,0.0,0.0,0.0,0.0,0.0,0.0,0.0,0.0,0.0,0.0,0.0,0.0,0.0,0.0,0.0,0.0,0.0,0.0,0.0,0.0,0.0,0.0,0.0,0.0,0.0,0.0,0.0,0.0,0.0,-2.2029,-2.238,-2.2169,-2.2163,-2.2476,-2.3016,-2.2797,-2.2497,-2.2133,-2.1246,0.0,0.0,0.0,0.0,0.0,0.0,0.0,0.0,0.0,0.0,0.0,0.0,0.0,0.0,0.0,0.0,0.0,0.0,0.0,0.0,0.0,0.0,0.0,0.0,-2.5052,-2.5394,0.0,0.0,0.0,0.0,0.0,0.0,0.0,0.0,0.0,0.0,0.0,0.0,-2.5706,-2.6861,-2.7625,-2.7625,-2.7458,-2.7408,-2.7408,-2.7306,-2.6733,-2.5563,-2.5265,-2.4193,0.0,0.0,0.0,0.0,0.0,0.0,0.0,0.0,0.0,0.0,0.0,0.0,0.0,0.0,0.0,0.0,0.0,0.0,0.0,0.0,0.0,0.0,0.0,0.0,0.0,0.0,0.0,0.0,0.0,0.0,0.0,0.0,-1.6185,-1.5822,0.0,0.0,0.0,0.0,0.0,0.0,0.0,0.0,0.0,0.0,0.0,0.0,0.0,-2.1383,-2.2022,-2.1765,-2.1889,-2.2428,-2.2974,-2.3535,-2.4045,-2.4055,-2.4101,-2.4184,-2.4265,0.0,-2.1773,-2.1641,0.0,0.0,0.0,0.0,0.0,0.0,0.0,0.0,0.0,0.0,0.0,0.0,0.0,0.0,0.0,0.0,0.0,0.0,0.0,0.0,0.0,0.0,-2.4154,-2.4589,-2.4863,-2.4927,0.0,-2.474,-2.4779,-2.4299,-2.4212,0.0,0.0,0.0,0.0,0.0,0.0,0.0,-2.6389,-2.7115,-2.7625,-2.7625,-2.7034,-2.6669,-2.6669,-2.6054,-2.5631,-2.5438,-2.4327,-2.3538,-2.3161,-2.1648,0.0,0.0,0.0,0.0,0.0,0.0,0.0,0.0,0.0,0.0,0.0,0.0,0.0,0.0,0.0,0.0,0.0,0.0,0.0,0.0,0.0,0.0,0.0,0.0,0.0,0.0,0.0,0.0,0.0,-1.7832,-1.8351,-1.7812,-1.8211,-1.8536,0.0,0.0,0.0,0.0,0.0,0.0,0.0,0.0,0.0,-2.1852,-2.2009,-2.2214,-2.2525,-2.305,-2.3295,-2.3191,-2.3806,-2.4013,-2.3964,-2.4316,-2.4513,-2.4487,-2.4536,-2.3876,-2.2766,-2.278,-2.183,-2.0425,0.0,0.0,0.0,0.0,-1.8403,-1.8455,-1.8101,-1.8195,0.0,-1.7579,0.0,0.0,0.0,0.0,0.0,0.0,0.0,0.0,0.0,0.0,-2.4511,-2.4719,-2.5314,-2.5741,-2.5741,-2.5807,-2.5647,0.0,-2.4641,-2.4558,-2.4468,0.0,0.0,0.0,0.0,-2.5031,-2.5337,-2.5929,-2.6356,-2.6356,-2.6076,-2.5892,-2.5892,-2.5563,-2.5231,-2.4794,-2.4213,-2.3581,-2.2814,-2.2002,-2.1443,0.0,0.0,0.0,0.0,0.0,0.0,0.0,0.0,0.0,0.0,0.0,0.0,0.0,0.0,0.0,0.0,0.0,0.0,0.0,0.0,0.0,0.0,0.0,0.0,0.0,0.0,0.0,0.0,-1.9381,-1.9851,-1.9231,-1.9971,-2.0193,0.0,0.0,0.0,0.0,0.0,0.0,-2.1387,-2.1728,-2.2163,-2.2614,-2.3011,-2.3266,-2.3447,-2.4373,-2.4612,-2.4118,-2.4433,-2.4313,-2.3837,-2.413,-2.4288,-2.4291,-2.4422,-2.4089,-2.3505,-2.3366,-2.263,-2.1532,-2.0836,-1.9875,-1.879,-1.8566,-1.8342,-1.8173,-1.798,-1.8184,-1.8445,-1.7561,0.0,-1.7312,-1.7496,0.0,0.0,0.0,0.0,-2.2673,-2.3374,-2.4192,-2.4847,-2.5199,-2.5907,-2.6533,-2.6533,-2.6533,-2.6214,0.0,-2.5013,-2.4831,-2.4619,0.0,0.0,-2.3851,-2.4169,-2.4483,-2.4619,-2.5071,-2.5425,-2.5394,-2.5246,-2.519,-2.531,-2.5032,-2.462,-2.4282,-2.4093,-2.3592,-2.2749,-2.2736,-2.2485,-2.192,0.0,0.0,0.0,0.0,0.0,0.0,0.0,0.0,0.0,0.0,0.0,0.0,0.0,0.0,0.0,0.0,0.0,0.0,0.0,0.0,0.0,0.0,0.0,0.0,0.0,0.0,0.0,0.0,0.0,-2.0225,-2.1824,0.0,0.0,0.0,0.0,-2.1621,-2.1621,-2.1675,-2.1685,-2.2292,-2.2903,-2.3518,-2.4184,-2.4783,-2.5453,-2.5527,-2.5515,-2.5495,-2.4804,-2.4479,-2.4416,-2.3757,-2.3469,-2.352,-2.4119,-2.4003,-2.3269,-2.271,-2.2089,-2.1414,-2.0548,-1.9786,-1.8979,-1.8159,-1.7839,-1.7745,-1.6992,-1.7216,-1.7794,-1.7514,-1.7398,-1.7542,-1.8221,-1.9131,0.0,0.0,-2.201,-2.3301,-2.443,-2.4747,-2.5096,-2.6151,-2.6427,-2.6533,-2.6533,-2.6533,-2.6321,0.0,-2.5192,-2.4857,-2.5056,0.0,-2.3769,-2.5077,-2.478,-2.4655,-2.5243,-2.5395,-2.5418,-2.5397,-2.475,-2.4576,-2.5051,-2.3944,-2.3424,-2.3978,-2.35,-2.3364,-2.3891,-2.3916,-2.364,-2.3002,-2.2965,0.0,0.0,0.0,0.0,0.0,0.0,0.0,0.0,0.0,0.0,0.0,0.0,0.0,0.0,0.0,0.0,0.0,0.0,0.0,0.0,0.0,0.0,0.0,0.0,0.0,0.0,0.0,0.0,-2.1839,-2.2907,0.0,-2.1861,-2.2126,-2.2203,-2.1732,-2.2475,-2.2911,-2.2919,-2.3993,-2.4462,-2.4192,-2.4808,-2.5052,-2.4835,-2.5263,-2.5261,-2.4809,-2.4543,-2.4196,-2.3789,-2.3991,-2.4024,-2.4059,-2.4272,-2.4191,-2.3888,-2.3132,-2.254,-2.1982,-2.1687,-2.0902,-1.9912,-1.9586,-1.8954,-1.8312,-1.7986,-1.792,-1.792,-1.7833,-1.7823,-1.793,-1.8751,-1.9645,-2.0577,-2.1768,-2.2848,-2.3841,-2.4632,-2.5027,-2.5388,-2.5845,-2.6206,-2.6533,-2.6533,-2.6533,-2.644,-2.6202,-2.5695,-2.5255,-2.4979,-2.4533,-2.4434,-2.4957,-2.4831,-2.4745,-2.497,-2.4993,-2.5036,-2.5013,-2.4438,-2.4304,-2.4873,-2.3775,-2.3389,-2.3966,-2.3452,-2.3226,-2.3439,-2.3439,-2.3339,-2.3078,-2.3078,-2.2673,0.0,0.0,0.0,0.0,0.0,0.0,0.0,0.0,0.0,0.0,0.0,0.0,0.0,0.0,0.0,0.0,0.0,0.0,0.0,0.0,0.0,0.0,0.0,0.0,0.0,-2.1995,-2.3068,-2.2948,-2.4089,-2.4357,-2.309,-2.3214,-2.3169,-2.2701,-2.3477,-2.391,-2.3908,-2.5137,-2.5506,-2.474,-2.5578,-2.5682,-2.5023,-2.5449,-2.5357,-2.4727,-2.4487,-2.4134,-2.3731,-2.4097,-2.43,-2.427,-2.4429,-2.4473,-2.4429,-2.3726,-2.3273,-2.3065,-2.2443,-2.1643,-2.0895,-2.0599,-1.9944,-1.9259,-1.8941,-1.8564,-1.8193,-1.8018,-1.8456,-1.9026,-1.9411,-2.0476,-2.1763,-2.269,-2.3578,-2.4381,-2.4925,-2.5358,-2.562,-2.5858,-2.6206,-2.6533,-2.6533,-2.6533,-2.6533,-2.6533,-2.599,-2.5505,-2.5154,-2.4925,-2.4811,-2.4811,-2.4811,-2.4811,-2.4811,-2.4806,-2.4806,-2.4806,-2.4484,-2.4511,-2.5012,-2.4041,-2.3716,-2.4494,-2.3653,-2.3315,-2.3941,-2.3627,-2.3514,-2.3703,-2.3265,-2.305,-2.2874,0.0,0.0,0.0,0.0,0.0,0.0,0.0,0.0,0.0,0.0,0.0,0.0,0.0,0.0,0.0,0.0,0.0,0.0,0.0,0.0,0.0,0.0,0.0,-2.0942,-2.2701,-2.3786,-2.349,-2.5363,-2.6026,-2.4313,-2.4811,-2.5035,-2.4661,-2.4635,-2.461,-2.4547,-2.5655,-2.5974,-2.5257,-2.6339,-2.6681,-2.617,-2.6143,-2.5869,-2.5342,-2.4609,-2.4312,-2.4309,-2.4073,-2.4026,-2.4077,-2.4551,-2.4823,-2.4749,-2.4214,-2.4348,-2.4619,-2.2735,-2.1958,-2.1874,-2.0996,-2.0698,-2.0511,-1.9701,-1.9036,-1.8584,-1.8262,-1.9353,-2.0744,-2.0354,-2.1777,-2.3485,-2.3558,-2.4159,-2.4941,-2.5505,-2.5649,-2.5804,-2.6332,-2.6533,-2.6533,-2.6533,-2.6533,-2.6533,-2.6533,-2.6058,-2.5623,-2.5623,-2.5176,-2.4836,-2.4836,-2.4836,0.0,-2.4836,-2.4836,-2.4836,-2.4836,-2.4824,-2.5034,-2.561,-2.466,-2.4453,-2.5536,-2.4079,-2.3904,-2.5498,-2.4582,-2.4293,-2.4833,-2.3753,-2.3464,-2.4017,0.0,0.0,0.0,0.0,0.0,0.0,0.0,0.0,0.0,0.0,0.0,0.0,0.0,0.0,0.0,0.0,0.0,0.0,0.0,0.0,0.0,-2.0482,-2.1167,-2.173,-2.327,-2.4359,-2.4415,-2.5481,-2.5875,-2.5121,-2.5244,-2.5349,-2.5333,-2.5307,-2.542,-2.5763,-2.6062,-2.6067,-2.5754,-2.6063,-2.5873,-2.5199,-2.5161,-2.4899,-2.4393,-2.415,-2.4053,-2.4099,-2.4043,-2.423,-2.462,-2.4748,-2.4772,-2.4772,-2.4644,-2.4683,-2.4732,-2.3777,-2.3666,-2.3901,-2.3273,-2.2662,-2.2019,-2.1152,-2.0554,-2.0297,-2.0853,-2.0895,-2.1046,-2.2184,-2.3001,-2.3682,-2.4748,-2.5179,-2.5505,-2.6083,-2.6226,-2.6299,-2.6471,-2.6533,-2.6533,-2.6533,-2.6533,-2.6533,-2.6533,-2.6333,-2.6214,-2.6214,-2.6096,-2.6058,-2.6058,-2.6058,0.0,-2.6058,-2.6058,-2.6058,-2.6058,-2.5629,-2.5635,-2.6177,-2.5231,-2.4843,-2.5548,-2.482,-2.4556,-2.5021,-2.4757,-2.4845,-2.5372,-2.4707,-2.4431,0.0,0.0,0.0,0.0,0.0,0.0,0.0,0.0,0.0,0.0,0.0,0.0,0.0,0.0,0.0,0.0,0.0,0.0,0.0,0.0,0.0,0.0,-2.0976,-2.1622,-2.2501,-2.3621,-2.4382,-2.4481,-2.517,-2.548,-2.5008,-2.5252,-2.5315,-2.5131,-2.5378,-2.5577,-2.5797,-2.5955,-2.5999,-2.5797,-2.599,-2.5834,-2.5152,-2.5159,-2.4861,-2.4316,-2.4336,-2.4322,-2.4348,-2.4557,-2.4875,0.0,-2.5399,-2.5505,-2.5505,-2.5269,-2.5244,0.0,0.0,0.0,0.0,0.0,-2.3777,-2.2947,-2.2448,-2.2037,-2.1746,-2.209,-2.2377,-2.2685,-2.3593,-2.4276,-2.4941,-2.5741,-2.5977,-2.6071,-2.6427,-2.6533,-2.6533,-2.6533,-2.6533,-2.6533,-2.6533,-2.6533,-2.6533,-2.6533,-2.6533,0.0,-2.6533,-2.6533,-2.6533,-2.6533,-2.6533,-2.6533,-2.6533,-2.6533,-2.6533,-2.6533,-2.6163,-2.6101,-2.6496,-2.5649,0.0,0.0,0.0,-2.482,-2.482,-2.5034,0.0,0.0,0.0,0.0,0.0,0.0,0.0,0.0,-2.5611,-2.5912,0.0,0.0,0.0,0.0,0.0,0.0,0.0,0.0,0.0,0.0,0.0,0.0,0.0,0.0,0.0,0.0,-2.124,-2.1924,-2.3253,-2.3771,-2.4056,-2.4139,-2.4721,-2.4973,-2.4572,-2.502,-2.5135,-2.4773,-2.5176,-2.537,-2.5189,0.0,0.0,0.0,0.0,-2.6214,-2.5728,-2.5716,-2.5411,-2.4905,-2.49,-2.4909,-2.4887,-2.5407,-2.5635,-2.5728,-2.6296,-2.6533,-2.644,-2.5952,-2.599,-2.6414,-2.5387,-2.4941,-2.492,-2.4899,-2.4384,-2.3716,-2.3759,0.0,0.0,-2.2746,-2.3768,-2.4941,-2.4626,-2.5492,-2.6533,-2.6533,-2.6533,-2.6533,-2.6533,-2.6533,-2.6533,-2.6533,-2.6533,-2.6533,-2.6533,-2.6533,-2.6533,-2.6533,-2.6533,-2.6533,-2.6533,-2.6533,-2.6533,-2.6533,-2.6533,-2.6533,-2.6533,-2.6533,-2.6533,-2.6533,0.0,0.0,-2.6533,-2.5988,-2.5912,-2.6496,-2.5548,-2.5008,-2.5008,-2.5448,-2.5686,-2.5686,-2.5749,-2.6276,-2.7281,-2.7344,-2.7657,-2.816,-2.6603,-2.6452,0.0,0.0,0.0,0.0,0.0,0.0,0.0,0.0,0.0,0.0,0.0,0.0,0.0,0.0,0.0,-2.252,-2.2598,-2.2672,-2.3465,-2.3663,-2.3845,-2.4271,-2.4456,-2.478,-2.5333,-2.4938,-2.5058,-2.6038,-2.555,-2.5341,-2.5708,-2.5717,-2.5845,-2.6283,-2.644,-2.644,-2.6321,-2.6321,-2.6058,-2.548,0.0,0.0,-2.5461,-2.5555,-2.5859,-2.6321,-2.644,-2.6533,-2.6452,-2.6333,-2.6414,-2.6452,-2.6296,-2.5859,-2.5455,-2.548,-2.5344,-2.5185,-2.5159,-2.4941,-2.4687,-2.5438,-2.5387,-2.5152,-2.5859,-2.6296,0.0,-2.6533,-2.6533,-2.6533,-2.6533,-2.6533,-2.6533,-2.6533,-2.6533,-2.6533,-2.6533,-2.6533,-2.6533,-2.6533,-2.6533,-2.6533,-2.6533,-2.6533,-2.6533,-2.6533,-2.6533,-2.6533,-2.6533,-2.6533,-2.6533,-2.6533,-2.6533,-2.6533,-2.6533,-2.642,-2.6408,-2.6521,-2.6264,-2.6138,-2.6138,-2.6239,-2.6302,-2.6302,-2.6728,-2.7067,-2.7281,-2.772,-2.8235,-2.875,-2.7984,-2.7984,0.0,0.0,0.0,0.0,0.0,0.0,0.0,0.0,0.0,0.0,0.0,-2.0152,-2.1295,0.0,-2.1583,-2.2785,-2.2823,-2.2917,-2.3531,-2.3595,-2.3698,-2.3993,-2.4008,-2.4141,-2.4526,-2.4537,-2.4626,-2.4875,-2.4781,-2.487,-2.5308,-2.5269,-2.5597,-2.6471,-2.6533,-2.6533,-2.6533,-2.6533,-2.6333,-2.6071,-2.6071,-2.6071,-2.6071,-2.6071,-2.6202,-2.6533,-2.6533,-2.6533,-2.6533,-2.6533,-2.6533,-2.6533,-2.6533,-2.6321,-2.6071,-2.6071,-2.6071,-2.6071,-2.6071,-2.5952,-2.5847,-2.6321,-2.6177,-2.5847,-2.6333,-2.6533,-2.6533,-2.6533,-2.6533,-2.6533,-2.6533,-2.6533,-2.6533,-2.6533,-2.6533,-2.6533,-2.6533,-2.6533,-2.6533,-2.6533,-2.6533,-2.6533,-2.6533,-2.6533,-2.6533,-2.6533,-2.6533,-2.6533,-2.6533,-2.6533,-2.6533,-2.6533,-2.6533,-2.6533,-2.6533,-2.6533,-2.6533,-2.6533,-2.6716,-2.6866,-2.6866,-2.713,-2.7281,-2.7281,-2.7557,-2.7833,-2.8109,-2.8386,-2.8812,-2.9352,-2.9076,-2.9101,0.0,0.0,0.0,0.0,0.0,0.0,0.0,-1.4536,-1.6028,-1.8585,-1.9879,-2.0827,-2.1714,-2.2003,-2.2254,-2.2773,-2.2987,-2.3181,-2.3531,-2.3492,-2.3419,-2.3419,-2.3507,-2.358,-2.3507,-2.3955,-2.4033,-2.3513,-2.3979,-2.4421,-2.4758,-2.4935,-2.5397,-2.6483,-2.6533,-2.6533,-2.6533,-2.6533,-2.6533,-2.6533,-2.6533,-2.6533,-2.6533,-2.6533,-2.6533,-2.6533,-2.6533,-2.6533,-2.6452,-2.6308,-2.6202,-2.6189,-2.5977,-2.6071,-2.6202,-2.6202,-2.6083,-2.5965,-2.6108,-2.6202,-2.6214,-2.644,-2.6533,-2.6533,-2.6533,-2.6533,-2.6533,-2.6533,-2.6533,-2.6533,-2.6533,-2.6533,-2.6533,-2.6533,-2.6559,-2.6653,-2.6533,-2.6665,-2.6784,-2.6678,-2.6665,-2.6665,-2.6665,-2.6559,-2.6533,-2.6533,-2.6533,-2.6533,-2.6533,-2.6533,-2.6533,-2.6533,-2.6533,-2.6533,-2.6533,-2.6634,-2.6684,-2.6684,-2.713,-2.7444,-2.7444,-2.7871,-2.8109,-2.8109,-2.821,-2.8486,-2.8925,-2.9038,-2.934,-2.9792,-2.9792,-2.9792,-0.5219,-0.6825,-0.8567,-0.939,-1.0573,-1.1953,0.0,-1.4623,-1.6161,-1.8617,-1.957,-2.0534,-2.2269,-2.3014,-2.34,-2.3488,-2.4,-2.4207,-2.3668,-2.3154,-2.2789,-2.2789,-2.3198,-2.3522,-2.358,-2.3498,-2.3662,-2.4144,-2.4069,-2.4283,-2.4758,-2.5239,-2.5822,-2.6452,-2.6533,-2.6533,-2.6533,-2.6533,-2.6533,-2.6533,-2.6533,-2.6533,-2.6533,-2.6533,-2.6533,-2.6533,-2.6533,-2.6533,-2.6427,-2.5517,-2.5164,-2.5071,-2.4172,-2.4381,-2.5164,-2.5164,-2.4602,-2.3952,-2.4848,-2.5164,-2.5294,-2.6202,-2.6533,-2.6533,-2.6533,-2.6533,-2.6533,-2.6533,-2.6533,-2.6533,-2.6533,-2.6533,-2.6533,-2.6533,-2.6891,-2.7049,-2.6571,-2.7263,-2.7756,-2.7276,-2.7237,-2.7237,-2.7237,-2.6797,-2.6533,-2.6533,-2.6533,-2.6533,-2.6533,-2.6533,-2.6533,-2.6533,-2.6533,-2.6533,-2.6533,-2.6917,-2.7193,-2.7193,-2.7708,-2.8009,-2.8009,-2.8072,-2.8109,-2.8109,-2.8586,-2.8875,-2.8925,-2.9453,-2.9729,-2.9792,-2.9792,-2.9792,-0.6475,-0.7703,-0.8984,-1.0051,-1.1063,-1.2164,-1.3468,-1.4677,-1.5985,-1.7758,-1.9041,-2.0387,-2.1958,-2.2658,-2.3143,-2.3472,-2.3465,-2.3359,-2.3066,-2.2497,-2.2001,-2.1643,-2.2325,-2.2895,-2.287,-2.316,-2.3371,-2.358,-2.3495,-2.3764,-2.4309,-2.4809,-2.5387,-2.5965,-2.6321,-2.6533,-2.6533,-2.6533,-2.6533,-2.6533,-2.6533,-2.6533,-2.6533,-2.6533,-2.6533,-2.6533,-2.6533,-2.6189,-2.561,-2.5164,-2.5004,-2.4962,-2.4517,-2.4625,-2.495,-2.43,-2.4613,-2.5168,-2.4397,-2.4873,-2.5847,-2.5716,-2.599,-2.6559,-2.6891,-2.6772,-2.6653,-2.7263,-2.7237,-2.7036,-2.737,-2.7408,-2.7408,-2.7408,-2.761,-2.7729,-2.7482,-2.7746,-2.8035,-2.7777,-2.7767,-2.7738,-2.7747,-2.761,-2.7408,-2.7408,-2.6904,-2.6533,-2.6533,-2.6533,-2.6533,-2.6533,-2.6776,-2.6955,-2.6972,-2.7482,-2.7758,-2.7758,-2.8285,-2.8586,-2.8586,-2.8913,-2.9089,-2.9089,-2.9315,-2.9428,-2.9428,-2.9679,-2.9456,-2.8767,-2.8767,-2.845,-0.7564,-0.8506,-0.9283,-1.0516,-1.1309,-1.2106,-1.3262,-1.4338,-1.5479,-1.7068,-1.8395,-1.9716,-2.1352,-2.2045,-2.2591,-2.3144,-2.2903,-2.2644,-2.2586,-2.196,-2.134,-2.1054,-2.1705,-2.2204,-2.2342,-2.287,-2.3175,-2.3138,-2.3078,-2.3286,-2.3777,-2.4149,-2.4695,-2.5387,-2.5859,-2.6202,-2.6533,-2.6533,-2.6533,-2.6533,-2.6533,-2.6533,-2.6533,-2.6533,-2.6333,-2.6083,-2.6083,-2.5517,-2.4558,-2.4261,-2.4198,-2.4183,-2.4136,-2.436,-2.448,-2.3793,-2.4455,-2.5438,-2.3993,-2.4669,-2.5981,-2.5383,-2.5871,-2.6797,-2.737,-2.724,-2.711,-2.7911,-2.7831,-2.7599,-2.7977,-2.8099,-2.8099,-2.8099,-2.8209,-2.8299,-2.8142,-2.8362,-2.8486,-2.8329,-2.8346,-2.8346,-2.8282,-2.8209,-2.8099,-2.8099,-2.7465,-2.6889,-2.6741,-2.6726,-2.6763,-2.6897,-2.7296,-2.7532,-2.7516,-2.8024,-2.8335,-2.8335,-2.885,-2.9164,-2.9164,-2.9566,-2.9792,-2.9792,-2.9792,-2.9792,-2.9792,-2.9443,-2.8937,-2.8096,-2.7775,-2.7035,-0.8277,-0.9214,-0.994,-1.0619,-1.1319,-1.1981,-1.2677,-1.334,-1.4514,-1.6904,-1.7433,-1.8189,-2.0472,-2.1476,-2.2063,-2.2551,-2.2683,-2.2687,-2.2627,-2.1599,-2.0991,-2.1523,-2.1536,-2.1714,-2.2246,-2.2772,-2.3078,-2.3078,-2.3078,-2.3163,-2.3286,-2.3336,-2.3891,-2.4986,-2.5046,-2.5505,-2.6452,-2.6533,-2.6533,-2.6533,-2.6533,-2.6533,-2.6533,-2.6533,-2.5965,-2.5059,-2.5059,-2.4486,-2.3468,-2.2521,-2.2092,-2.2087,-2.2122,-2.2673,-2.3513,-2.3502,-2.3537,-2.3547,-2.3532,-2.4189,-2.5119,-2.5632,-2.644,-2.7383,-2.789,-2.8069,-2.8071,-2.8119,-2.8107,-2.8123,-2.8123,-2.8123,-2.8123,-2.8123,-2.8513,-2.8688,-2.822,-2.8966,-2.9576,-2.8991,-2.8876,-2.8864,-2.8904,-2.8411,-2.8123,-2.8123,-2.8033,-2.7877,-2.7316,-2.725,-2.7495,-2.8009,-2.8074,-2.8052,-2.8052,-2.8575,-2.89,-2.89,-2.9453,-2.9767,-2.9767,-2.9779,-2.9792,-2.9792,-2.9792,-2.9792,-2.9792,-2.8688,-2.8096,-2.8084,-2.7046,-2.5964,-0.8389,-0.893,-0.9288,-0.9963,-1.0322,-1.0761,-1.1889,-1.2677,-1.3494,-1.4744,-1.5605,-1.661,-1.8118,-1.9219,-2.033,-2.1529,-2.1815,-2.1989,-2.2351,-2.1731,-2.1341,-2.1523,-2.1314,-2.125,-2.1404,-2.1958,-2.2273,-2.2273,-2.1765,-2.1464,-2.1488,-2.2094,-2.29,-2.3951,-2.4661,-2.5492,-2.6452,-2.6533,-2.6533,-2.6533,-2.6533,-2.6533,-2.6452,-2.5834,-2.5294,-2.4933,-2.4292,-2.3411,-2.2478,-2.2122,-2.2025,-2.2082,-2.2767,-2.3838,-2.5083,-2.5753,-2.6235,-2.6296,-2.4632,-2.5107,-2.6494,-2.635,-2.6984,-2.7916,-2.8499,-2.8398,-2.8236,-2.9013,-2.8937,-2.8737,-2.913,-2.9245,-2.9245,-2.9245,-2.9384,-2.9422,-2.9269,-2.9524,-2.9767,-2.9537,-2.9512,-2.9512,-2.9512,-2.9372,-2.9245,-2.9245,-2.8598,-2.7995,-2.7855,-2.784,-2.7878,-2.8094,-2.8415,-2.8645,-2.8645,-2.9187,-2.9503,-2.9503,-2.9691,-2.9792,-2.9792,-2.9792,-2.9443,-2.8688,-2.8688,-2.8359,-2.7637,-2.7221,-2.6625,-2.5859,-2.5535,-2.4798,-0.8396,-0.8804,-0.8923,-0.9348,-0.9595,-1.0053,-1.0872,-1.1594,-1.2289,-1.2939,-1.3632,-1.4586,-1.6125,-1.7062,-1.8342,-2.0617,-2.092,-2.1186,-2.2163,-2.1572,-2.1096,-2.1293,-2.1013,-2.086,-2.1026,-2.1279,-2.1463,-2.1463,-2.1072,-2.0694,-2.034,-2.1075,-2.1878,-2.2755,-2.383,-2.4941,-2.5965,-2.6321,-2.6533,-2.6533,-2.6533,-2.6308,-2.5952,-2.5281,-2.46,-2.3899,-2.3264,-2.2449,-2.1494,-2.1494,-2.1494,-2.1612,-2.3214,-2.4408,-2.5473,-2.6993,-2.7767,-2.7776,-2.5787,-2.6227,-2.7536,-2.7103,-2.7606,-2.8497,-2.9028,-2.8991,-2.8864,-2.9549,-2.9524,-2.9282,-2.9677,-2.9792,-2.9792,-2.9792,-2.9792,-2.9792,-2.9792,-2.9792,-2.9792,-2.9792,-2.9792,-2.9792,-2.9792,-2.9792,-2.9792,-2.9792,-2.9155,-2.8731,-2.8687,-2.8546,-2.8484,-2.8648,-2.9015,-2.9245,-2.9245,-2.9549,-2.9792,-2.9792,-2.9792,-2.9792,-2.9792,-2.9443,-2.8858,-2.8084,-2.7683,-2.7197,-2.6483,-2.6058,-2.5546,-2.4787,-2.4372,-2.38,-0.8336,-0.8752,-0.8804,-0.8804,-0.9288,-0.9775,-0.9782,-1.0292,-1.0925,-1.1536,-1.1661,-1.2355,-1.4612,-1.51,-1.628,-1.9673,-1.988,-2.0234,-2.1958,-2.108,-2.0387,-2.0922,-2.0635,-2.0591,-2.1046,-2.0795,-2.0593,-2.0514,0.0,-2.0744,-1.9886,-2.0343,-2.0828,-2.1346,-2.2745,-2.3977,-2.5014,-2.6002,-2.6533,-2.6533,-2.6533,-2.5977,-2.5059,-2.4957,-2.3861,-2.2045,-2.1937,-2.1396,-2.0566,-2.0566,-2.0566,-2.0858,-2.3335,-2.4346,-2.467,-2.723,-2.813,-2.8065,-2.7101,-2.7383,-2.8094,-2.7729,-2.8232,-2.9028,-2.9651,-2.9792,-2.9792,-2.9792,-2.9792,-2.9792,-2.9792,-2.9792,-2.9792,-2.9792,-2.9792,-2.9792,-2.9792,-2.9792,-2.9792,-2.9792,-2.9792,-2.9792,-2.9792,-2.9792,-2.9792,-2.9792,-2.9792,-2.9792,-2.9792,-2.9282,-2.9142,-2.9767,-2.9792,-2.9792,-2.9792,-2.9792,-2.9792,-2.9792,-2.9792,-2.9792,-2.9792,-2.8688,-2.8084,-2.8004,-2.6964,-2.6389,-2.6307,-2.521,-2.4702,-2.4702,-2.3627,-2.3135,-0.7747,-0.8389,-0.8804,-0.8804,-0.893,-0.9169,-0.9715,-0.9918,-1.0252,-1.0873,-1.1052,-1.1378,-1.2538,-1.3978,-1.5555,-1.744,-1.8809,-1.9973,-2.09,-2.0709,-2.0538,-2.0676,-2.0314,-2.0091,-2.0247,-2.0112,-1.9922,-1.9618,-1.9697,-1.9687,-1.9489,-1.9865,-2.045,-2.1346,-2.2777,-2.397,-2.5015,-2.6029,-2.6533,-2.6533,-2.6533,-2.6333,-2.6039,-2.4549,-2.358,-2.3016,-2.1602,-2.0858,-2.0566,-2.0566,-2.0566,-2.0858,-2.3335,-2.459,-2.524,-2.7787,-2.8991,-2.9322,-2.9101,-2.8898,-2.875,-2.9118,-2.9384,-2.9639,-2.9767,-2.9792,-2.9792,-2.9792,-2.9792,-2.9792,-2.9792,-2.9792,-2.9792,-2.9792,-2.9792,-2.9792,-2.9792,-2.9792,-2.9792,-2.9792,-2.9792,-2.9792,-2.9792,-2.9792,-2.9792,-2.9792,-2.9792,-2.9792,-2.9792,-2.9664,-2.9651,-2.9779,-2.9792,-2.9792,-2.9792,-2.9792,-2.9792,-2.9792,-2.9792,-2.9792,-2.9792,-2.8688,-2.7683,-2.6964,-2.5797,-2.4798,-2.3973,-2.3724,-2.3551,-2.3551,-2.3222,-2.3135,-0.6961,-0.7512,-0.7858,-0.7858,-0.7858,-0.7923,-0.833,-0.8389,-0.8573,-0.9288,-0.9535,-1.0023,-1.1223,-1.2946,-1.4757,-1.6494,-1.8176,-1.951,-2.0445,-2.025,-2.0019,-2.0048,-1.9787,-1.9636,-1.9668,-1.9946,-2.013,-1.9927,-1.9668,-1.9508,-1.9315,-1.9703,-2.036,-2.1366,-2.2787,-2.4167,-2.566,-2.6193,-2.6296,-2.5847,-2.6308,-2.5834,-2.4522,-2.3826,-2.3026,-2.2144,0.0,-2.0566,-2.0566,-2.0566,-2.0976,-2.1818,-2.3896,-2.5349,-2.6492,-2.8509,-2.9524,-2.9792,-2.9792,-2.9257,-2.8725,-2.9524,-2.9792,-2.9792,-2.9792,-2.9792,-2.9792,-2.9792,-2.9792,-2.9792,-2.9792,-2.9432,-2.9056,-2.9056,-2.8662,-2.8493,-2.8975,-2.9028,-2.9232,-2.9677,-2.9792,-2.9792,-2.9792,-2.9792,-2.9792,-2.9792,-2.9792,-2.9792,-2.9792,-2.9792,-2.9792,-2.9792,-2.9792,-2.9792,-2.9792,-2.9792,-2.9792,-2.9792,-2.9365,-2.9028,-2.9028,-2.7522,-2.6367,-2.5797,-2.4628,-2.3714,-2.3135,-2.3135,-2.3135,-2.3135,-2.3135,-2.3135,-0.5944,-0.641,-0.6526,-0.6579,-0.6584,-0.6584,-0.6584,-0.6584,-0.6812,-0.7617,-0.8,-0.8732,-1.0447,-1.2008,-1.3743,-1.5945,-1.7387,-1.8662,-1.9886,-1.951,-1.9124,-1.9124,-1.9203,-1.9243,-1.9275,-2.0033,-2.0605,-2.073,-2.04,-2.0034,-1.9714,-1.9936,-2.0566,-2.1717,-2.3009,-2.4562,-2.6252,-2.6308,-2.5834,-2.4824,-2.5812,-2.4879,-2.2252,-2.3074,-2.2499,-2.0771,-2.0654,0.0,-2.0771,-2.0771,-2.17,-2.3235,-2.4792,-2.6291,-2.7717,-2.9245,-2.9792,-2.9779,-2.9651,-2.8901,-2.8244,-2.9257,-2.9512,-2.9384,-2.9384,-2.9499,-2.9549,-2.9549,-2.9664,-2.9792,-2.9792,-2.8986,-2.8147,-2.8063,-2.7386,-2.6953,-2.7932,-2.8227,-2.8623,-2.9639,-2.9792,-2.9792,-2.9792,-2.9792,-2.9792,-2.9792,-2.9792,-2.9792,-2.9792,-2.9792,-2.9792,-2.9792,-2.9651,-2.9574,-2.9559,-2.9431,-2.9341,-2.9378,-2.8438,-2.7936,-2.7936,-2.5859,-2.4787,-2.4787,-2.3714,-2.3135,-2.3135,-2.3135,-2.3135,-2.3135,-2.3135,-2.3135,-0.4546,-0.5449,-0.6087,-0.6494,-0.6609,-0.6609,-0.6609,-0.6609,-0.6903,-0.7917,-0.8176,-0.861,-1.0006,-1.1344,-1.2516,-1.3458,-1.5223,-1.6683,-1.7213,-1.7833,-1.8203,-1.8203,-1.8554,-1.8872,-1.9266,-1.9733,-2.0495,-2.1681,-2.1639,-2.1613,-2.1561,-2.1181,-2.1814,-2.3664,-2.4348,-2.4912,-2.5294,-2.5269,-2.4731,-2.3767,-2.4784,-2.4584,-2.3259,-2.3383,-2.2839,-2.171,-2.0966,0.0,-2.172,-2.172,-2.2678,-2.4227,-2.5718,-2.6865,-2.7717,-2.9245,-2.9792,-2.9664,-2.8737,-2.8256,-2.8118,-2.8346,-2.7842,-2.7103,-2.7103,-2.7717,-2.837,-2.837,-2.9105,-2.9792,-2.9792,-2.8928,-2.8107,-2.8113,-2.8003,-2.7905,-2.8081,-2.8833,-2.9537,-2.9779,-2.9792,-2.9792,-2.9792,-2.9792,-2.9792,-2.9792,-2.9792,-2.9792,-2.9792,-2.9792,-2.9792,-2.9792,-2.8991,-2.8385,-2.8387,-2.7566,-2.7071,-2.7046,-2.6883,-2.6801,-2.6801,-2.5535,-2.4787,-2.4787,-2.3714,-2.3135,-2.3135,-2.3135,-2.3135,-2.3135,-2.3135,-2.3135,-0.2456,-0.4024,-0.5207,-0.5436,-0.5495,-0.5495,-0.5495,-0.5495,-0.5899,-0.7318,-0.7716,-0.8309,-0.9819,-1.1277,-1.233,-1.2561,-1.4591,-1.6158,-1.6314,-1.73,-1.8008,-1.8008,-1.8378,-1.8795,-1.9252,-1.944,-2.0101,-2.147,-2.1419,-2.1711,-2.2755,-2.3055,-2.3489,-2.4172,-2.4482,-2.4624,-2.4602,-2.4137,-2.3773,-2.3548,-2.45,-2.4471,-2.349,-2.4052,-2.3697,-2.2776,-2.234,0.0,-2.2812,-2.2765,-2.3863,-2.5559,-2.6341,-2.7478,-2.8737,-2.8864,-2.8889,-2.875,-2.7627,-2.6908,-2.64,-2.64,-2.6423,-2.6517,-2.6517,-2.6888,-2.7286,-2.7301,-2.7658,-2.8051,-2.8051,-2.7238,-2.6568,-2.7123,-2.7653,-2.7929,-2.7383,-2.8578,-2.9792,-2.9792,-2.9792,-2.9792,-2.9792,-2.9792,-2.9792,-2.9792,-2.9792,-2.9792,-2.9792,-2.9792,-2.9792,-2.9792,-2.9282,-2.876,-2.8128,-2.7673,-2.7126,-2.6565,-2.592,-2.5648,-2.5648,-2.4522,-2.3877,-2.3877,-2.3387,-2.3135,-2.3135,-2.3135,-2.3135,-2.3135,-2.3135,-2.3135,-0.0448,-0.2573,-0.4076,-0.4405,-0.4519,-0.4519,-0.4519,-0.4632,-0.5203,-0.6839,-0.7498,-0.8249,-0.9914,-1.1206,-1.2011,-1.2089,-1.3938,-1.5534,-1.5797,-1.6934,-1.7833,-1.8203,-1.8378,-1.8829,-1.9599,-1.9551,-2.0062,-2.1543,-2.168,-2.2218,-2.3405,-2.4335,-2.4632,-2.4032,-2.3951,-2.3732,-2.3581,-2.2948,-2.2787,-2.3214,-2.4182,-2.4276,-2.3559,-2.4522,-2.443,-2.3525,-2.3525,0.0,0.0,-2.3956,-2.5164,-2.6905,-2.6788,-2.7854,-2.9282,-2.813,-2.7789,-2.762,-2.6508,-2.555,-2.48,-2.4563,-2.5057,-2.5791,-2.5791,-2.5921,-2.6108,-2.6129,-2.6329,-2.6456,-2.6494,-2.5678,-2.51,-2.6209,-2.7347,-2.7956,-2.7369,-2.8567,-2.9792,-2.9792,-2.9792,-2.9792,-2.9792,-2.9792,-2.9792,-2.9792,-2.9792,-2.9792,-2.9792,-2.9792,-2.9792,-2.9792,-2.9384,-2.8748,-2.7801,-2.7295,-2.668,-2.583,-2.4904,-2.4438,-2.4438,-2.3597,-2.3135,-2.3135,-2.3135,-2.3222,-2.3464,-2.3222,-2.3222,-2.3474,-2.3222,-2.3135,0.0671,-0.1233,-0.2747,-0.4132,-0.4519,-0.4519,-0.4519,-0.4974,-0.5784,-0.7191,-0.8012,-0.8931,-1.0275,-1.0694,-1.0841,-1.1066,-1.2266,-1.3599,-1.4638,-1.5907,-1.7377,-1.9015,-1.8476,-1.8839,-2.0845,-2.034,-2.0745,-2.2941,-2.439,-2.4587,-2.3375,-2.3985,-2.4098,-2.3604,-2.2811,-2.2159,-2.1653,-2.1553,-2.172,-2.2123,-2.3156,-2.3595,-2.3524,-2.4572,-2.4457,-2.3491,-2.3491,0.0,0.0,-2.5367,-2.6546,-2.788,-2.7417,-2.7627,-2.8118,-2.7014,-2.6689,-2.6498,-2.5388,-2.4902,-2.4584,-2.3612,-2.3368,-2.3388,-2.3388,-2.4102,-2.4933,-2.4967,-2.5728,-2.6512,-2.6539,-2.5652,-2.5094,-2.6257,-2.7302,-2.8335,-2.925,-2.9689,-2.9792,-2.9792,-2.9792,-2.9792,-2.9792,-2.9792,-2.9792,-2.9792,-2.9792,-2.9792,-2.9792,-2.9792,-2.9792,-2.9792,-2.7992,-2.6788,-2.6656,-2.4744,-2.3503,-2.3387,-2.329,-2.329,-2.329,-2.3135,-2.3135,-2.3135,-2.3135,-2.3637,-2.4617,-2.3627,-2.3627,-2.4628,-2.3551,-2.3135,0.2073,-0.0168,-0.2244,-0.4018,-0.4519,-0.4519,-0.4519,-0.4691,-0.5234,-0.6455,-0.7352,-0.8318,-0.9566,-1.0268,-1.0848,-1.1714,-1.2909,-1.417,-1.5376,-1.6848,-1.8193,-1.9203,-1.923,-1.9684,-2.1059,-2.0682,-2.0897,-2.2355,-2.3833,-2.4153,-2.3029,-2.3824,-2.3789,-2.264,-2.1517,-2.1173,-2.1744,-2.1311,-2.1949,-2.3826,-2.4225,-2.4719,-2.5294,-2.5728,-2.5716,-2.5294,-2.5294,0.0,0.0,-2.5492,-2.6021,-2.7091,-2.6248,-2.6424,-2.7031,-2.5924,-2.5477,-2.5305,-2.42,-2.375,-2.373,-2.3261,-2.3135,-2.3135,-2.3135,-2.3398,-2.3797,-2.38,-2.409,-2.442,-2.4413,-2.5136,-2.5964,-2.6389,-2.7879,-2.9052,-2.8797,-2.9337,-2.9792,-2.9792,-2.9792,-2.9792,-2.9792,-2.9792,-2.9792,-2.9792,-2.9792,-2.9792,-2.9792,-2.9792,-2.9792,-2.9792,-2.9003,-2.7949,-2.6579,-2.569,-2.4574,-2.3164,-2.3135,-2.3135,-2.3135,-2.3135,-2.3135,-2.3135,-2.375,-2.4354,-2.4767,-2.4364,-2.4385,-2.4767,-2.364,-2.3135,0.3474,0.0615,-0.213,-0.4018,-0.4519,-0.4574,-0.4574,-0.4746,-0.5171,-0.6084,-0.7082,-0.8132,-0.9093,-0.999,-1.0989,-1.2231,-1.3228,-1.4438,-1.6048,-1.7637,-1.9021,-1.996,-2.0355,-2.0935,-2.1955,-2.1631,-2.1572,-2.2236,-2.3359,-2.3505,-2.2298,-2.3036,-2.2868,-2.145,-2.0164,-2.0075,-2.1349,-2.1011,-2.2121,-2.4743,-2.4929,-2.5517,-2.6533,-2.6533,-2.6533,-2.6452,-2.6189,0.0,0.0,-2.5269,-2.5471,-2.6389,-2.5259,-2.5295,-2.59,-2.4702,-2.4328,-2.42,-2.3388,-2.3135,-2.3135,-2.3135,-2.3135,-2.3135,-2.3135,-2.3135,-2.3135,-2.3135,-2.3299,-2.3714,-2.4059,-2.5557,-2.6976,-2.701,-2.8407,-2.9559,-2.8809,-2.9258,-2.9792,-2.9792,-2.9792,-2.9792,-2.9792,-2.9792,-2.9792,-2.9792,-2.9792,-2.9792,-2.9792,-2.9792,-2.9792,-2.9792,-2.9512,-2.8542,-2.6634,-2.6195,-2.5176,-2.3251,-2.3135,-2.3135,-2.3135,-2.3135,-2.3271,-2.3612,-2.4348,-2.5149,-2.5733,-2.5123,-2.4966,-2.527,-2.3777,-2.3135,0.486,0.1225,-0.2581,-0.4132,-0.4577,-0.4691,-0.4691,-0.5262,-0.5899,-0.6308,-0.7573,-0.8706,-0.9197,-0.999,-1.0989,-1.2231,-1.2674,-1.381,-1.6424,-1.792,-1.9495,-2.1691,-2.2105,-2.265,-2.3828,-2.3457,-2.3065,-2.3065,-2.3666,0.0,-2.1308,-2.1345,-2.1035,-2.0164,-1.8751,-1.8652,-1.9886,-2.0514,-2.1967,-2.4184,-2.4731,-2.5517,-2.6533,-2.6533,-2.6533,-2.644,0.0,0.0,0.0,-2.4929,-2.5139,-2.6388,-2.481,-2.4456,-2.4692,-2.3515,-2.3144,-2.3144,-2.3135,-2.3135,-2.3135,-2.3135,-2.3135,-2.3135,-2.3135,-2.3135,-2.3135,-2.3135,-2.3877,-2.5041,-2.6141,-2.7279,-2.8039,-2.8089,-2.8955,-2.9792,-2.9792,-2.9792,-2.9792,-2.9792,-2.9792,-2.9792,-2.9792,-2.9792,-2.9792,-2.9792,-2.9792,-2.9792,-2.9792,-2.9792,-2.9792,-2.9792,-2.8762,-2.7639,-2.6562,-2.5492,-2.4328,-2.3154,-2.3135,-2.3135,-2.3135,-2.3135,-2.3622,-2.48,-2.481,-2.5905,-2.8093,-2.587,-2.5341,-2.6433,-2.4171,-2.3135,0.4786,0.1962,-0.1287,-0.3849,-0.4577,-0.4685,-0.4726,-0.4948,-0.5402,-0.6248,-0.7247,-0.828,-0.9406,-1.0841,-1.231,-1.3752,-1.4586,-1.5804,-1.7745,-1.9216,-2.035,-2.0967,-2.2139,-2.3099,-2.3498,-2.3987,-2.3803,-2.276,-2.3482,-2.3346,-2.1753,-2.172,-2.1226,-1.9975,-1.8662,-1.9213,-2.1755,-2.1811,-2.2905,-2.5164,-2.5741,-2.6189,-2.6533,-2.6533,-2.6533,0.0,0.0,0.0,0.0,-2.3504,-2.321,-2.3829,-2.2948,-2.2857,-2.3216,-2.3153,-2.3135,-2.3135,-2.3135,-2.3135,-2.3135,-2.3135,-2.3135,-2.3135,-2.3135,-2.3135,-2.3222,-2.4039,-2.5041,-2.6213,-2.7279,-2.7834,-2.8307,-2.9101,-2.9571,-2.9792,-2.9792,-2.9792,-2.9792,-2.9792,-2.9792,-2.9792,-2.9792,-2.9792,-2.9792,-2.9792,-2.9792,-2.9792,-2.9792,-2.9792,-2.9792,-2.9792,-2.8762,-2.7639,-2.6616,-2.5481,-2.4328,-2.3154,-2.3135,-2.3135,-2.3135,-2.3857,-2.4092,-2.3632,-2.5898,-2.6678,-2.5848,-2.5964,-2.5325,-2.4161,-2.3426,-2.3135,0.2979,0.0617,-0.2186,-0.4132,-0.4688,-0.4855,-0.5223,-0.5428,-0.5726,-0.6768,-0.7611,-0.8511,-0.9527,-1.1066,-1.2751,-1.4433,-1.5344,-1.6587,-1.8564,-2.028,-2.1731,-2.2739,-2.3328,-2.3788,-2.4114,-2.3753,-2.3173,-2.2587,-2.269,-2.2346,-2.1464,-2.1394,-2.119,-2.0696,-1.9565,-2.0051,-2.2355,-2.2597,-2.3603,-2.5294,-2.6096,-2.6314,-2.5955,-2.591,-2.5721,0.0,0.0,0.0,0.0,-2.2318,-2.2066,-2.2837,-2.2129,-2.2269,-2.2783,-2.3047,-2.3135,-2.3135,-2.3135,-2.3135,-2.3135,-2.3135,-2.3135,-2.3135,-2.3135,-2.3387,-2.3963,-2.5126,-2.6246,-2.7348,-2.845,-2.8749,-2.8876,-2.9636,-2.9792,-2.9792,-2.9792,-2.9792,-2.9792,-2.9792,-2.9792,-2.9792,-2.9792,-2.9792,-2.9792,-2.9792,-2.9792,-2.9792,-2.9792,-2.9792,-2.9792,-2.9792,-2.8382,-2.7231,-2.6598,-2.5456,-2.4328,-2.3154,-2.3135,-2.3135,-2.3135,-2.375,-2.3994,-2.374,-2.5775,-2.6422,-2.548,-2.5746,-2.4934,-2.3135,-2.3135,-2.3135,0.0,-0.2473,-0.4573,-0.4871,-0.4953,-0.527,-0.6242,-0.6519,0.0,-0.7905,-0.8565,-0.9208,-0.9705,-1.0974,-1.2566,-1.4459,-1.5316,-1.6587,-1.8937,-2.0875,-2.3054,-2.5993,-2.4919,-2.4348,-2.5265,-2.2881,-2.169,-2.249,-2.1348,-2.0694,-2.0705,-2.0684,-2.108,-2.1958,-2.1188,-2.114,-2.1958,-2.2992,-2.3965,-2.4824,-2.5896,-2.5886,-2.5016,-2.4956,-2.4385,0.0,0.0,0.0,0.0,-2.1376,-2.163,-2.3086,-2.2197,-2.2383,-2.3096,-2.3125,-2.3135,-2.3135,-2.3135,-2.3135,-2.3135,-2.3135,-2.3135,-2.3135,-2.3135,-2.3917,-2.5105,-2.6235,-2.729,-2.8423,-2.9571,-2.9792,-2.9792,-2.9792,-2.9792,-2.9792,-2.9792,-2.9792,-2.9792,-2.9792,-2.9792,-2.9792,-2.9792,-2.9767,-2.9677,-2.9792,-2.9767,-2.9677,-2.9792,-2.9767,-2.9664,-2.9664,-2.7717,-2.6348,-2.6368,-2.5305,-2.422,-2.3154,-2.3135,-2.3135,-2.3135,-2.3154,-2.372,-2.4682,-2.4692,-2.5209,-2.6389,-2.5209,-2.4102,-2.3135,-2.3135,-2.3135,-0.5746,0.0,-0.499,-0.6078,-0.6173,-0.6254,0.0,-0.7512,-0.7861,-0.8826,-0.9122,-0.9566,-1.0771,-1.2462,-1.4033,-1.4951,-1.6634,-1.8203,-1.9203,-1.9955,-2.1381,-2.3908,-2.2948,-2.2236,-2.2789,-2.2677,-2.2092,-2.1144,-2.1185,-2.134,-2.1563,-2.1569,-2.1958,-2.2772,-2.2637,-2.2579,-2.2824,-2.3251,-2.3927,-2.4824,-2.518,-2.523,-2.4933,-2.4215,-2.3734,0.0,0.0,0.0,-2.2227,-2.1061,-2.1026,-2.1725,-2.1879,-2.2207,-2.2705,-2.3018,-2.3135,-2.3135,-2.3135,-2.3135,-2.3135,-2.3135,-2.3135,-2.3135,-2.3135,-2.4492,-2.6163,-2.6379,-2.7903,-2.9493,-2.9714,-2.9792,-2.9792,-2.9792,-2.9792,-2.9792,-2.9792,-2.9792,-2.9792,-2.9792,-2.9792,-2.9792,-2.9792,-2.9118,-2.8774,-2.9664,-2.9028,-2.8774,-2.9664,-2.9015,-2.8497,-2.8497,-2.6516,-2.5234,-2.5246,-2.4112,-2.3388,-2.3144,-2.3135,-2.3135,-2.3135,-2.3964,-2.4102,-2.3505,-2.3505,-2.41,-2.5187,-2.41,-2.3378,-2.3135,-2.3135,-2.3135,-0.7466,-0.6534,-0.5623,-0.6894,-0.7091,-0.7279,-0.8187,-0.8489,-0.8862,-0.9705,-0.9914,-1.0199,-1.1206,-1.3018,-1.4554,-1.5341,-1.7052,-1.8735,-1.9847,-2.0204,-2.105,-2.2995,-2.1964,-2.1343,-2.2041,-2.1393,-2.077,-2.0418,-2.0065,-2.0264,-2.1248,-2.1302,-2.1862,-2.3053,-2.3078,-2.3078,-2.3078,-2.3784,-2.408,-2.4115,-2.4696,-2.4513,-2.3599,-2.3073,-2.2563,0.0,0.0,0.0,-2.1298,-2.0789,-2.083,-2.1279,-2.1719,-2.2139,-2.2568,-2.2988,-2.3135,-2.3135,-2.3135,-2.3135,-2.3135,-2.3135,-2.3135,-2.3135,-2.3135,-2.4328,-2.5828,-2.6379,-2.8131,-2.9792,-2.9792,-2.9792,-2.9792,-2.9792,-2.9792,-2.9792,-2.9792,-2.9792,-2.9792,-2.9792,-2.9792,-2.9651,-2.913,-2.8497,-2.8118,-2.8256,-2.7741,-2.7603,-2.8232,-2.7741,-2.7392,-2.7347,-2.5842,-2.4766,-2.4836,-2.374,-2.3135,-2.3135,-2.3135,-2.3135,-2.3135,-2.373,-2.374,-2.3144,-2.3135,-2.3357,-2.4063,-2.3357,-2.3135,-2.3135,-2.3135,-2.3135,-0.7689,-0.7075,-0.6692,-0.7668,-0.7931,-0.8244,-0.9283,-0.9491,-0.9768,-1.0624,-1.0841,-1.1059,-1.1714,-1.3508,-1.513,-1.5904,-1.7267,-1.8784,-2.0361,-2.0497,-2.0968,-2.2354,-2.1333,-2.0877,-2.1838,-1.9955,-1.8972,-1.9802,-1.8839,-1.8927,-2.0543,-2.0717,-2.1488,-2.3053,-2.3078,-2.3078,-2.3078,-2.4235,-2.4309,-2.3294,-2.4307,-2.3824,-2.2027,-2.1886,-2.1375,-2.0566,0.0,0.0,-2.0566,-2.0566,-2.0869,-2.1367,-2.1738,-2.2178,-2.2646,-2.3008,-2.3135,-2.3135,-2.3135,-2.3135,-2.3135,-2.3135,-2.3135,-2.3135,-2.3135,-2.3867,-2.501,-2.5983,-2.7683,-2.9282,-2.9282,-2.9282,-2.9282,-2.9282,-2.9282,-2.9282,-2.9282,-2.9282,-2.9282,-2.9282,-2.9282,-2.9003,-2.8004,-2.7729,-2.7353,-2.6628,-2.6332,-2.6301,-2.6438,-2.6313,-2.6276,-2.6238,-2.5186,-2.4563,-2.4563,-2.3632,-2.3154,-2.3378,-2.3164,-2.3135,-2.3135,-2.3135,-2.3135,-2.3135,-2.3135,-2.3144,-2.3164,-2.3164,-2.3164,-2.3164,-2.3164,-2.3203,-0.9037,-0.8949,-0.8648,-0.8995,-0.9041,-0.9283,-1.0199,-1.0408,-1.0624,-1.1425,-1.187,-1.2459,-1.352,-1.586,-1.7537,-1.7063,-1.819,-1.9216,-1.9492,-1.9161,-1.9473,-2.0797,-1.9732,-1.9442,-2.0711,-1.9453,-1.8666,-1.8849,-1.9015,-1.951,-2.0554,-2.1302,-2.214,-2.3065,-2.3078,-2.3078,-2.3078,-2.4199,-2.4292,-2.3294,-2.3572,-2.3084,-2.1952,-2.1155,-2.0712,-2.0566,0.0,-2.0566,-2.0566,-2.0566,-2.1045,-2.1787,-2.1865,-2.2353,-2.3047,-2.3115,-2.3135,-2.3135,-2.3135,-2.3135,-2.3135,-2.3135,-2.3135,-2.3135,-2.3135,-2.3867,-2.48,-2.4999,-2.6024,-2.7002,-2.7002,-2.7002,-2.7002,-2.7002,-2.7002,-2.7002,-2.7002,-2.7002,-2.7002,-2.7002,-2.7002,-2.6978,-2.6764,-2.5919,-2.5561,-2.638,-2.5678,-2.5444,-2.6335,-2.569,-2.5089,-2.5037,-2.4082,-2.3378,-2.3378,-2.3164,-2.3505,-2.4456,-2.3622,-2.3135,-2.3135,-2.3135,-2.3135,-2.3135,-2.3135,-2.3281,-2.373,-2.373,-2.373,-2.373,-2.373,-2.3664,-0.957,-0.9564,-0.963,-1.0727,-1.1102,-1.1495,-1.2388,-1.2609,-1.2688,-1.3068,-1.3293,-1.3627,-1.4326,-1.6264,-1.7959,-1.8258,-1.9315,-1.9865,-1.9026,-1.8957,-1.9264,-2.0095,0.0,-1.991,-2.0534,-2.0018,-1.9713,-1.9713,-1.9899,-2.038,-2.1273,-2.1651,-2.2261,-2.3065,-2.2665,-2.2442,-2.2469,-2.3019,-2.3038,-2.2548,-2.3183,-2.2702,-2.1221,-2.0789,-2.0566,-2.0566,0.0,-2.0566,-2.0566,-2.0566,-2.0947,-2.1562,-2.1787,-2.2266,-2.2822,-2.3057,-2.3135,-2.3135,-2.3135,-2.2677,-2.2101,-2.2155,-2.1664,-2.131,-2.1895,-2.2465,-2.3038,-2.373,-2.5136,-2.649,-2.649,-2.649,-2.649,-2.649,-2.649,-2.649,-2.649,-2.649,-2.649,-2.649,-2.649,-2.634,-2.5727,-2.515,-2.4783,-2.4679,-2.4245,-2.4092,-2.4584,-2.421,-2.3867,-2.3867,-2.3388,-2.3135,-2.3135,-2.3632,-2.3974,-2.3867,-2.4563,-2.4348,-2.3154,-2.373,-2.374,-2.3144,-2.3378,-2.3603,-2.3811,-2.4054,-2.4073,-2.4156,-2.4082,-2.4104,-0.9659,-0.996,-1.0681,-1.2207,-1.2586,-1.2915,-1.4076,-1.423,-1.4238,-1.4547,-1.4649,-1.4826,-1.5262,-1.6618,-1.8071,-1.9259,-1.9941,-1.9965,-1.8927,-1.905,-1.9582,-2.028,-2.0519,-2.0691,-2.0888,-2.0733,-2.0607,-2.0602,-2.079,-2.1225,-2.1836,-2.208,-2.2407,-2.2787,-2.2238,-2.1829,-2.1607,-2.1742,-2.1798,-2.1585,-2.2611,-2.2264,-2.0566,-2.0566,-2.0566,-2.0566,-2.0566,-2.0566,-2.0566,-2.0566,-2.0889,-2.1416,-2.1758,-2.2207,-2.2705,-2.3018,-2.295,-2.2677,-2.2677,-2.1854,-2.0908,-2.0873,-2.0262,-1.9707,-2.0882,-2.1313,-2.1549,-2.2795,-2.4338,-2.5683,-2.5683,-2.5683,-2.5683,-2.5683,-2.5683,-2.5683,-2.5683,-2.5683,-2.5683,-2.5683,-2.5683,-2.5424,-2.4563,-2.4435,-2.4102,-2.3261,-2.3135,-2.3135,-2.3135,-2.3135,-2.3135,-2.3135,-2.3135,-2.3135,-2.3135,-2.4166,-2.4279,-2.3198,-2.528,-2.5591,-2.3584,-2.4339,-2.4303,-2.3275,-2.3631,-2.3919,-2.4096,-2.4453,-2.4532,-2.4524,-2.4588,-2.4551,-0.952,-1.0694,-1.2334,-1.2964,-1.2527,-1.2301,-1.3906,-1.3982,-1.3982,-1.5146,-1.5689,-1.6202,-1.702,-1.788,-1.8845,-1.9908,-1.9287,-1.8849,-1.9213,-1.9297,-1.9921,-2.1571,-2.108,-2.0912,-2.1741,-2.1045,-2.0631,-2.0624,-2.1369,0.0,-2.1917,-2.2629,-2.2714,-2.2008,-2.1957,-2.1539,-2.0666,-2.1183,-2.1193,-2.0684,-2.1671,-2.1593,-2.0566,-2.0566,-2.0566,-2.0566,-2.0566,-2.0566,-2.0566,-2.0566,-2.1064,-2.1846,-2.1875,-2.2383,-2.3096,-2.3125,-2.2403,-2.1382,-2.1382,-2.0666,-1.9604,-1.9645,-1.9578,-1.9762,-2.0946,-2.1311,-2.1549,-2.2795,-2.3251,-2.3378,-2.3378,-2.3378,-2.3378,-2.3378,-2.3378,-2.3378,-2.3378,-2.3378,-2.3378,-2.3378,-2.3378,-2.3281,-2.3261,-2.3251,-2.3164,-2.3144,-2.3135,-2.3135,-2.3135,-2.3135,-2.3135,-2.3135,-2.3135,-2.3135,-2.3135,-2.4122,-2.4292,-2.3165,-2.5251,-2.5945,-2.4714,-2.4798,-2.4506,-2.3758,-2.3786,-2.4216,-2.4985,-2.4994,-2.5083,-2.5065,-2.5016,-2.5036,-0.9931,-1.0835,-1.215,-1.3468,-1.3945,-1.4473,-1.5872,-1.6069,-1.6306,-1.7622,-1.7542,-1.7474,-1.8018,-1.8914,-1.9444,-1.9198,-1.9342,-1.9489,-1.9312,-1.9792,-2.0523,-2.1753,-2.2055,-2.2261,-2.2637,-2.2332,-2.2166,-2.2125,0.0,0.0,-2.1938,-2.2219,-2.1945,-2.1138,-2.0556,-2.0094,-1.9814,-1.9682,-1.9665,-1.9785,-2.1031,-2.1261,-2.0566,-2.0566,-2.0566,-2.0566,-2.0566,-2.0566,-2.0566,-2.0566,-2.1084,-2.1851,-2.1655,-2.1674,-2.1845,-2.1132,-2.0584,-2.0215,-2.0215,-1.9405,-1.8411,-1.8427,-1.7807,-1.7564,-1.9604,-2.0155,-2.0616,-2.2532,-2.3135,-2.3135,-2.3135,-2.3135,-2.3135,-2.3135,-2.3135,-2.3135,-2.3135,-2.3135,-2.3135,-2.3135,-2.3135,-2.3135,-2.3135,-2.3135,-2.3135,-2.3135,-2.3135,-2.3135,-2.3135,-2.3135,-2.3135,-2.3135,-2.3135,-2.3388,-2.4092,-2.4522,-2.4913,-2.5166,-2.6013,-2.5694,-2.3835,-2.4664,-2.4716,-2.3809,-2.4337,-2.4733,-2.5101,-2.5363,-2.5499,-2.543,-2.543,-2.5449,-1.0038,-1.0842,-1.2134,-1.3554,-1.4603,-1.5685,-1.7071,-1.7589,-1.7972,-1.8775,-1.8409,-1.8095,-1.8378,-1.8947,-1.9213,-1.8554,-1.9015,-1.951,-1.9681,-2.0234,-2.0996,-2.2152,-2.276,-2.3078,-2.3078,-2.3078,-2.3078,-2.3078,0.0,0.0,0.0,-2.1666,-2.1103,-2.0205,-1.9624,-1.9178,-1.8921,-1.8557,-1.8721,-1.9287,-2.0295,-2.0666,-2.0566,-2.0566,-2.0566,-2.0566,-2.0566,-2.0644,-2.0781,-2.0781,-2.1118,-2.1531,-2.1401,-2.1025,-2.0657,-1.9761,-1.9222,-1.8948,-1.8948,-1.8133,-1.7124,-1.7073,-1.6539,-1.6292,-1.8764,-1.9513,-1.9988,-2.2463,-2.3135,-2.3135,-2.3135,-2.3135,-2.3135,-2.3135,-2.3135,-2.3135,-2.3135,-2.3135,-2.3135,-2.3135,-2.3135,-2.3135,-2.3135,-2.3135,-2.3135,-2.3135,-2.3135,-2.3135,-2.3135,-2.3135,-2.3135,-2.3135,-2.3135,-2.3398,-2.421,-2.423,-2.4584,-2.5413,-2.5583,-2.5085,-2.3914,-2.482,-2.5058,-2.4193,-2.484,-2.512,-2.5246,-2.5606,-2.5742,-2.5742,-2.5742,-2.5742,-0.9611,-1.08,-1.2504,-1.3099,-1.4083,-1.5348,-1.7048,-1.8035,-1.8493,-1.8055,-1.8008,-1.8008,-1.8008,-1.8008,-1.8008,-1.8008,-1.8008,-1.8594,-2.0381,-2.0614,-2.126,-2.287,-2.3078,-2.3078,-2.3078,-2.3078,-2.3078,0.0,0.0,0.0,0.0,-2.1084,-2.0205,-1.9309,-1.9303,-1.8849,-1.8008,-1.8008,-1.8437,-1.9287,-1.9287,-1.9736,-2.0566,-2.0566,-2.0566,-2.0566,-2.0566,-2.082,-2.123,-2.116,-2.0967,-2.0752,-2.1139,-2.0576,-1.9497,-1.9488,-1.868,-1.7692,-1.7692,-1.6857,-1.5832,-1.5832,-1.5832,-1.6292,-1.8764,-1.9497,-2.0034,-2.2413,-2.3135,-2.3135,-2.3135,-2.3135,-2.3135,-2.3135,-2.3135,-2.3135,-2.3135,-2.3135,-2.3135,-2.3135,-2.3135,-2.3135,-2.3135,-2.3135,-2.3135,-2.3135,-2.3135,-2.3135,-2.3135,-2.3135,-2.3135,-2.3135,-2.3135,-2.3135,-2.3135,-2.3135,-2.3144,-2.3144,-2.3515,-2.4317,-2.5315,-2.5424,-2.533,-2.5082,-2.5101,-2.5344,-2.5742,-2.5742,-2.5742,-2.5742,-2.5742,-2.5742,-0.9933,-1.1302,-1.2856,-1.3698,-1.5318,-1.6792,-1.7324,-1.7579,-1.783,-1.7988,-1.8462,-1.8721,-1.8144,-1.8008,-1.8008,-1.8008,-1.8513,-1.9291,-2.0466,-2.112,-2.1934,-2.2955,-2.3078,-2.3078,-2.3078,-2.3078,0.0,0.0,0.0,0.0,0.0,-1.9823,-1.9295,-1.8395,-1.8407,-1.8281,-1.8008,-1.8008,-1.8437,-1.9287,-1.9287,-1.9736,-2.0566,-2.0566,-2.0566,-2.0566,-2.0566,-2.082,-2.1199,-2.0931,-2.0775,-2.0577,-1.9266,-1.8596,-1.8141,-1.721,-1.6662,-1.6386,-1.6386,-1.6109,-1.5832,-1.5832,-1.5832,-1.6245,-1.8738,-1.9458,-2.0034,-2.2413,-2.3135,-2.3135,-2.3135,-2.3135,-2.3135,-2.3135,-2.3135,-2.3135,-2.3135,-2.3135,-2.3135,-2.3135,-2.3135,-2.3135,-2.3135,-2.3135,-2.3135,-2.3135,-2.3135,-2.3135,-2.3135,-2.3135,-2.3135,-2.3135,-2.3135,-2.3135,-2.3135,-2.3388,-2.3612,-2.3612,-2.3974,-2.422,-2.423,-2.4832,-2.511,-2.5091,-2.5363,-2.5606,-2.5742,-2.5742,-2.5742,-2.5742,-2.5742,-2.5742,-1.0746,-1.1803,-1.3017,-1.4577,-1.5919,-1.6997,-1.7521,-1.7637,-1.7839,-1.8412,-1.8654,-1.8586,-1.8076,-1.8008,-1.8134,-1.8489,-1.8966,-1.9732,-2.0934,-2.159,-2.2177,-2.2992,-2.3078,-2.3078,-2.3078,-2.3078,0.0,0.0,0.0,0.0,0.0,-1.9814,-1.9431,-1.8519,-1.8854,-1.8721,-1.8008,-1.8496,-1.8934,-1.9287,-1.9453,-1.9902,-2.0566,-2.0566,-2.0566,-2.0586,-2.0937,-2.098,-2.0686,-2.0893,-2.0413,-1.9371,-1.8149,-1.7412,-1.685,-1.6109,-1.5832,-1.5832,-1.5832,-1.5832,-1.5832,-1.5832,-1.5832,-1.6157,-1.8138,-1.9119,-1.9926,-2.1831,-2.2698,-2.3135,-2.3135,-2.3135,-2.3135,-2.3135,-2.3135,-2.3135,-2.3135,-2.3135,-2.3135,-2.3135,-2.3135,-2.3135,-2.3135,-2.3135,-2.3135,-2.3135,-2.3495,-2.3622,-2.3154,-2.3505,-2.3612,-2.3154,-2.3271,-2.3388,-2.3388,-2.375,-2.4038,-2.402,-2.4431,-2.4552,-2.431,-2.4813,-2.5217,-2.5353,-2.5606,-2.5742,-2.5742,-2.5742,-2.5742,-2.5742,-2.5742,-2.5742,-1.1736,-1.2311,-1.3163,-1.5491,-1.62,-1.6606,-1.7707,-1.8008,-1.8202,-1.9044,-1.8529,-1.8008,-1.8076,-1.8134,-1.8432,-1.9259,-1.9479,-2.0123,-2.168,-2.1957,-2.2249,-2.3017,-2.3078,-2.3078,-2.3078,0.0,0.0,0.0,0.0,0.0,0.0,-2.059,-2.0268,-1.9431,-2.0204,-1.9824,-1.8269,-1.9312,-1.9694,0.0,-1.9742,-2.0107,-2.0566,-2.0566,-2.0566,-2.0605,-2.1374,-2.1051,-2.009,-2.0659,-1.9637,-1.7684,-1.7591,-1.685,-1.5832,-1.5832,-1.5832,-1.5832,-1.5832,-1.5832,-1.5832,-1.5832,-1.5832,-1.6048,-1.7348,-1.8559,-1.972,-2.0934,-2.2127,-2.3135,-2.3135,-2.3135,-2.3125,-2.327,-2.3202,-2.3135,-2.3135,-2.3135,-2.3135,-2.3135,-2.3135,-2.3135,-2.3135,-2.3135,-2.3135,-2.3135,-2.3974,-2.4267,-2.3268,-2.3991,-2.4328,-2.3398,-2.373,-2.3937,-2.3978,-2.4354,-2.4554,-2.4494,-2.4859,-2.512,-2.512,-2.512,-2.5353,-2.5732,-2.5742,-2.5742,-2.5742,-2.5742,-2.5742,-2.5742,-2.5742,-2.5742,-1.2599,-1.3424,-1.4285,-1.5758,-1.6833,-1.7678,-1.792,-1.8008,-1.8076,-1.8269,-1.8144,-1.8202,-1.8911,-1.9048,-1.928,-2.0171,-2.0882,-2.1495,-2.182,-2.247,-2.2884,-2.3078,-2.3078,-2.3078,-2.3078,0.0,0.0,0.0,0.0,0.0,-2.0655,-2.059,-2.0526,-2.0333,-2.0526,-2.0398,-2.0074,-1.9658,-1.9729,0.0,-1.973,-1.9824,-2.0566,-2.0566,-2.0566,-2.0586,-2.0211,-2.0099,-1.9894,-1.8604,-1.7972,-1.7598,-1.6574,-1.6015,-1.5832,-1.5832,-1.5832,-1.5832,-1.5832,-1.5832,-1.5832,-1.5832,-1.5832,-1.6048,-1.7348,-1.8559,-1.972,-2.0934,-2.2127,-2.3135,-2.3135,-2.3135,-2.3327,-2.422,-2.3791,-2.3135,-2.3135,-2.3135,-2.3135,-2.3135,-2.3135,-2.3135,-2.3135,-2.3135,-2.3135,-2.3135,-2.3281,-2.3348,-2.3109,-2.3311,-2.3867,-2.4939,-2.5176,-2.5396,-2.572,-2.6099,-2.5988,-2.4965,-2.5353,-2.5606,-2.5606,-2.5606,-2.5616,-2.5742,-2.5742,-2.5742,-2.5742,-2.5742,-2.5742,-2.5742,-2.5742,-2.5742,-1.4381,-1.4939,-1.5267,-1.6627,-1.8128,-1.911,-1.8721,-1.8921,-1.9233,-1.9233,-1.8911,-1.8787,-1.9243,-1.9651,-2.0213,-2.1101,-2.1611,-2.2018,-2.2421,-2.2823,-2.3078,-2.3078,-2.3078,-2.3078,0.0,0.0,0.0,0.0,0.0,-2.2125,-2.1302,-2.1616,-2.1604,-2.1227,-2.1616,-2.1416,-2.059,-2.0358,-2.0311,-2.0603,-1.9912,-1.9932,-2.0566,-2.0566,-2.0566,-2.0586,-1.9866,-1.9419,-1.9042,-1.7726,-1.6996,-1.6756,-1.6015,-1.5832,-1.5832,-1.5832,-1.5832,-1.5832,-1.5832,-1.5832,-1.5832,-1.5832,-1.5832,-1.6015,-1.7311,-1.8495,-1.972,-2.0934,-2.2127,-2.3135,-2.3135,-2.3135,-2.3394,-2.4545,-2.4347,-2.4033,-2.46,-2.4328,-2.3867,-2.3867,-2.3495,-2.3135,-2.3135,-2.3135,-2.3135,-2.3135,-2.3515,-2.376,-2.3464,-2.4436,-2.5305,-2.5911,-2.6661,-2.6943,-2.6627,-2.6946,-2.6681,-2.5489,-2.5606,-2.5742,-2.5742,-2.5742,-2.5742,-2.5742,-2.5742,-2.5742,-2.5742,-2.5742,-2.5742,-2.5742,-2.5742,-2.5742,-1.6392,-1.6558,-1.6383,-1.8051,-1.9431,-2.0204,-1.9617,-2.0074,-2.059,-2.059,-2.0009,-1.9562,-1.9694,-2.0333,-2.1112,-2.1939,-2.2125,-2.2322,-2.3017,-2.3078,-2.3078,-2.3078,-2.3078,-2.3078,0.0,0.0,0.0,0.0,0.0,-2.2823,-2.2125,-2.2763,-2.2823,-2.2137,-2.2628,-2.2249,-2.0846,-2.0852,-2.0801,-2.0613,-2.0222,-2.0215,-2.0566,-2.0566,-2.0489,-2.0264,-1.9542,-1.8656,-1.7746,-1.7122,-1.638,-1.5758,-1.5812,-1.5832,-1.5832,-1.5832,-1.5832,-1.5832,-1.5832,-1.5832,-1.5832,-1.5832,-1.5832,-1.6075,-1.7346,-1.8506,-1.972,-2.0934,-2.2127,-2.3135,-2.3135,-2.3135,-2.3404,-2.4785,-2.5124,-2.533,-2.6258,-2.5637,-2.4781,-2.4769,-2.373,-2.2814,-2.3038,-2.2921,-2.2814,-2.3047,-2.3974,-2.4445,-2.3857,-2.5576,-2.6775,-2.6748,-2.8,-2.8377,-2.7417,-2.7655,-2.7314,-2.5752,-2.5742,-2.5742,-2.5742,-2.5742,-2.5742,-2.5742,-2.5742,-2.5742,-2.5742,-2.5742,-2.5742,-2.5742,-2.5742,-2.5742,-1.7535,-1.8065,-1.8446,-1.9868,-1.9879,-1.9617,-2.0268,-2.0526,-2.059,-2.059,-2.0526,-2.0655,-2.1428,-2.1616,-2.2002,-2.2823,-2.2944,-2.3005,-2.3065,-2.3078,-2.3078,-2.3078,-2.3078,-2.3078,0.0,0.0,0.0,0.0,-2.3017,-2.3078,-2.2957,-2.3065,-2.3078,-2.2944,-2.2384,-2.1939,-2.1753,-2.027,-1.9891,-2.0613,-2.0532,-2.0508,-2.0566,-2.0566,-2.0079,-1.9125,-1.8031,-1.7111,-1.6357,-1.5581,-1.5366,-1.5478,-1.5732,-1.5832,-1.5832,-1.5832,-1.5832,-1.5832,-1.5832,-1.5832,-1.5832,-1.5832,-1.5832,-1.6075,-1.7346,-1.8506,-1.972,-2.0934,-2.2127,-2.3135,-2.3135,-2.3135,-2.3627,-2.5753,-2.624,-2.627,-2.6439,-2.5622,-2.4777,-2.4833,-2.3038,-2.1886,-2.2921,-2.2224,-2.1886,-2.2921,-2.3612,-2.3867,-2.3847,-2.4351,-2.5742,-2.8158,-2.8654,-2.8828,-2.9006,-2.9118,-2.8126,-2.5839,-2.5742,-2.5742,-2.5742,-2.5742,-2.5742,-2.5742,-2.5742,-2.5742,-2.5742,-2.5742,-2.5742,-2.5742,-2.5742,-2.5742,-1.8331,-1.9661,-2.0641,-2.0595,-2.1037,-2.1416,-2.1365,-2.1678,-2.199,-2.199,-2.199,-2.199,-2.1877,-2.2261,-2.2702,-2.3065,-2.3078,-2.3078,-2.3078,-2.3078,-2.3078,-2.3078,-2.3078,-2.3078,0.0,0.0,0.0,0.0,-2.3078,-2.3078,-2.3078,-2.3078,-2.3078,-2.3078,-2.2322,-2.1877,-2.1877,-2.0402,-1.9802,-2.0209,-2.0493,-2.0323,-1.9678,-1.9678,-1.9441,-1.8957,-1.7827,-1.6873,-1.6041,-1.5266,-1.5137,-1.5424,-1.5718,-1.5832,-1.5832,-1.5832,-1.5832,-1.5832,-1.5832,-1.5832,-1.5832,-1.5832,-1.5832,-1.6001,-1.7301,-1.8517,-1.9745,-2.0998,-2.2133,-2.3135,-2.3135,-2.3135,-2.3541,-2.5157,-2.5554,-2.57,-2.6332,-2.6132,-2.5147,-2.3256,-2.1443,-2.043,-2.0954,-2.1203,-2.1549,-2.2349,-2.3261,-2.3979,-2.4473,-2.5273,-2.6436,-2.7979,-2.8685,-2.8894,-2.8443,-2.837,-2.7637,-2.5849,-2.5742,-2.5742,-2.5742,-2.5742,-2.5742,-2.5742,-2.5742,-2.5742,-2.5742,-2.5742,-2.5742,-2.5742,-2.5742,-2.5742,-1.8722,-2.0088,-2.1209,-2.0818,-2.1663,-2.2517,-2.2286,-2.2689,-2.3078,-2.3078,-2.3078,-2.2944,-2.2322,-2.2702,-2.3078,-2.3078,-2.3078,-2.3078,-2.3078,-2.3078,-2.3078,-2.3078,-2.3078,0.0,0.0,0.0,0.0,0.0,-2.3078,-2.3078,-2.3078,-2.2884,-2.2823,-2.2823,-2.1859,-2.136,-2.136,-2.0375,-1.9909,-1.9922,-2.012,-1.9756,-1.8957,-1.8718,-1.839,-1.8141,-1.7253,-1.6467,-1.5627,-1.5178,-1.5137,-1.5424,-1.5718,-1.5832,-1.5832,-1.5832,-1.5832,-1.5832,-1.5832,-1.5832,-1.5832,-1.5832,-1.5832,-1.6015,-1.7318,-1.8326,-1.9314,-2.0486,-2.1686,-2.2618,-2.2618,-2.2882,-2.3387,-2.4573,-2.4586,-2.4556,-2.5442,-2.5572,-2.4672,-2.1498,-1.9869,-1.9134,-1.9461,-2.0288,-2.1114,-2.1923,-2.3073,-2.4268,-2.4957,-2.6005,-2.6808,-2.7488,-2.8408,-2.8557,-2.7723,-2.761,-2.7049,-2.5752,-2.5742,-2.5742,-2.5742,-2.5742,-2.5742,-2.5742,-2.5742,-2.5742,-2.5742,-2.5742,-2.5742,-2.5742,-2.5742,-2.5742,-1.8441,-1.8508,-1.8918,-2.0748,-2.1116,-2.1428,-2.276,-2.3078,-2.3078,-2.3078,-2.3078,-2.3078,-2.3078,-2.3078,-2.3078,-2.3078,-2.3078,-2.3078,-2.3078,-2.3078,-2.3078,-2.3078,-2.3078,0.0,0.0,0.0,0.0,0.0,-2.3078,-2.3078,-2.3078,-2.2384,-2.1939,-2.1939,-2.0699,-2.0007,-2.0007,-1.9915,-1.9863,-1.9922,-1.9325,-1.9036,-1.8957,-1.7908,-1.6846,-1.5861,-1.5779,-1.531,-1.4623,-1.4843,-1.5137,-1.5424,-1.5718,-1.5832,-1.5832,-1.5832,-1.5832,-1.5832,-1.5832,-1.5832,-1.5832,-1.5832,-1.5832,-1.6015,-1.7318,-1.7777,-1.8056,-1.9222,-2.0447,-2.141,-2.141,-2.2274,-2.3378,-2.4533,-2.3924,-2.3087,-2.3145,-2.3171,-2.2484,-2.0063,-1.8612,-1.818,-1.9257,-1.9549,-2.0095,-2.1734,-2.3335,-2.4513,-2.5082,-2.5489,-2.6259,-2.7467,-2.7616,-2.7713,-2.7606,-2.7639,-2.7061,-2.5732,-2.5742,-2.5742,-2.5742,-2.5742,-2.5742,-2.5742,-2.5742,-2.5742,-2.5742,-2.5742,-2.5742,-2.5742,-2.5742,-2.5742,-1.8295,-1.8452,-1.8667,-1.97,-2.0534,-2.1248,-2.1765,-2.2503,-2.3078,-2.3078,-2.3078,-2.3078,-2.3078,-2.3078,-2.3078,-2.3078,-2.3078,-2.3078,-2.3078,-2.3078,-2.3215,-2.364,-2.369,0.0,0.0,0.0,0.0,0.0,0.0,-2.1479,-2.1479,-2.1227,-2.1186,-2.143,-2.0417,-1.9916,-1.9872,-1.9212,-1.9037,-1.9297,-1.832,-1.7577,-1.6838,-1.6437,-1.5711,-1.4664,-1.4859,-1.4754,-1.4455,-1.3919,-1.3915,-1.4179,-1.4456,-1.4561,-1.4657,-1.5534,-1.5832,-1.5832,-1.5832,-1.5832,-1.5832,-1.5832,-1.5832,-1.592,-1.6386,-1.7022,-1.7777,-1.8232,-1.9233,-2.0178,-2.0155,-2.0433,-2.0891,-2.1295,-2.1105,-2.058,-1.9817,-1.9601,-1.9331,-1.8527,-1.7355,-1.67,-1.7348,-1.8851,-2.0254,-2.1362,-2.3459,-2.4985,-2.5479,-2.5616,-2.5879,-2.6289,-2.6396,-2.6396,-2.6396,-2.7112,-2.703,-2.5732,-2.6486,-2.6572,-2.5732,-2.5742,-2.5742,-2.5742,-2.5742,-2.5742,-2.5742,-2.5742,-2.5742,-2.5742,-2.5742,-2.5742,-1.7294,-1.7625,-1.8019,-1.8669,-1.9782,-2.0818,-2.1296,-2.2175,-2.2852,-2.3027,-2.3078,-2.3005,-2.2763,-2.2702,-2.2763,-2.3078,-2.3301,-2.3292,-2.296,-2.3059,-2.3179,-2.3276,-2.3325,0.0,0.0,0.0,0.0,0.0,0.0,0.0,-2.1018,-2.0599,-2.0466,-2.0525,-2.0149,-1.9813,-1.9573,-1.8871,-1.8538,-1.839,-1.7334,-1.6355,-1.5703,-1.5296,-1.4734,-1.4095,-1.4388,-1.4583,-1.4601,-1.4057,-1.3674,-1.3632,-1.4291,-1.4274,-1.4088,-1.5343,-1.5832,-1.5832,-1.5832,-1.5832,-1.5832,-1.5832,-1.5832,-1.5832,-1.5832,-1.6374,-1.7028,-1.7028,-1.798,-1.8877,-1.8864,-1.9212,-1.9437,-1.8986,-1.852,-1.7846,-1.6724,-1.6763,-1.7028,-1.7028,-1.6048,-1.5507,-1.6585,-1.8609,-2.0443,-2.151,-2.3596,-2.5237,-2.5625,-2.5742,-2.5742,-2.5742,-2.5742,-2.5742,-2.5742,-2.6849,-2.722,-2.639,-2.7494,-2.7673,-2.639,-2.639,-2.611,-2.5732,-2.5742,-2.5742,-2.5742,-2.5742,-2.5742,-2.5742,-2.5742,-2.5917,0.0,0.0,0.0,-1.7662,-1.8731,-1.9927,-2.1485,-2.2066,-2.2414,-2.2965,-2.3078,-2.2884,-2.2075,-2.1939,-2.2137,-2.2969,-2.3566,-2.359,-2.2574,-2.2893,-2.2942,-2.2,-2.1931,0.0,0.0,0.0,0.0,0.0,-2.1851,-2.184,-2.184,-2.0589,-1.9745,-1.936,-1.9717,-1.9583,-1.9036,-1.8957,-1.839,-1.7261,-1.6191,-1.5613,-1.5621,-1.4573,-1.4088,-1.4088,-1.4389,-1.4729,-1.4983,-1.5264,-1.4784,-1.4064,-1.5248,-1.4987,-1.4027,-1.5356,-1.5832,-1.5832,-1.5832,-1.5832,-1.5832,-1.5832,-1.5832,-1.5832,-1.5832,-1.5832,-1.5832,-1.5832,-1.67,-1.7676,-1.7676,-1.8468,-1.913,-1.7911,-1.6587,-1.535,-1.4072,-1.4756,-1.556,-1.5743,-1.4779,-1.4684,-1.726,-1.9078,-2.0695,-2.2364,-2.4078,-2.5237,-2.5625,-2.5742,-2.5742,-2.5742,-2.5742,-2.5742,-2.5742,-2.6945,-2.7683,-2.7589,-2.8773,-2.8866,-2.7683,-2.7589,-2.6945,-2.5732,-2.5742,-2.5742,-2.5742,-2.5742,-2.5742,-2.5742,-2.5742,-2.638,-1.5351,0.0,0.0,0.0,0.0,0.0,-1.9718,-2.0795,-2.1787,-2.2892,-2.3078,-2.3005,-2.2823,-2.2322,-2.2059,-2.2555,-2.2286,-2.1912,-2.1572,-2.2003,-2.2319,-2.2469,-2.2514,0.0,0.0,0.0,0.0,0.0,-2.0576,-2.0053,-2.0053,-1.9945,-1.9821,-1.9736,-2.0156,-1.9965,-1.9036,-1.8149,-1.7253,-1.6108,-1.5061,-1.4573,-1.4489,-1.425,-1.4088,-1.4108,-1.463,-1.4912,-1.4963,-1.4237,-1.3946,-1.3897,-1.4296,-1.4229,-1.4007,-1.5376,-1.5832,-1.5832,-1.5832,-1.5832,-1.5832,-1.5832,-1.5832,-1.5832,-1.5832,-1.5832,-1.5832,-1.5832,-1.6048,-1.6367,-1.6367,-1.6585,-1.6517,-1.5236,-1.4666,-1.4031,-1.274,-1.2038,-1.2304,-1.4072,-1.4338,-1.5041,-1.7905,-1.9802,-2.1469,-2.3143,-2.4598,-2.5606,-2.5732,-2.5742,-2.5742,-2.5742,-2.5742,-2.5742,-2.5742,-2.7673,-2.8495,-2.7683,-2.8773,-2.8866,-2.7683,-2.6764,-2.611,-2.5742,-2.5742,-2.5742,-2.5742,-2.5742,-2.5742,-2.5742,-2.5742,-2.638,-1.54,-1.5537,-1.5684,-1.5684,0.0,0.0,-1.9208,-2.0215,-2.1271,-2.2782,-2.3078,-2.3017,-2.2628,-2.2199,-2.1792,-2.1493,-2.114,-2.1007,-2.1203,-2.1821,-2.2207,-2.2062,-2.2262,0.0,0.0,-2.2097,-2.1563,-2.1293,-2.0529,-1.9941,-1.957,-1.9951,-2.0098,-1.9922,-1.9937,-1.9432,-1.831,-1.7172,-1.6116,-1.5061,-1.4412,-1.4088,-1.4088,-1.4088,-1.4088,-1.4115,-1.4717,-1.5026,-1.4987,-1.4539,-1.4198,-1.3915,-1.4449,-1.4382,-1.4087,-1.5376,-1.5832,-1.5832,-1.5832,-1.5832,-1.5832,-1.5832,-1.5832,-1.5832,-1.5832,-1.5832,-1.5832,-1.5832,-1.5832,-1.5832,-1.5832,-1.5439,-1.4854,-1.41,-1.3033,-1.2088,-1.1288,-1.0213,-1.0355,-1.3474,-1.3774,-1.4853,-1.8799,-2.0472,-2.1951,-2.4017,-2.5101,-2.5742,-2.5742,-2.5742,-2.5742,-2.5742,-2.5742,-2.5742,-2.5742,-2.7484,-2.8319,-2.7683,-2.8773,-2.8866,-2.7683,-2.6849,-2.6197,-2.5732,-2.5742,-2.5742,-2.5742,-2.5742,-2.5742,-2.5742,-2.5742,-2.611,-1.5605,-1.584,-1.6184,-1.6135,-1.6688,0.0,-1.9382,-2.0051,-2.0873,-2.2558,-2.294,-2.2797,-2.2103,-2.1904,-2.1464,-2.0226,-2.0369,-2.0688,-2.1,-2.1925,-2.2213,-2.1311,-2.1621,0.0,-2.1885,-2.1885,-2.1728,-2.1338,-2.126,-2.0869,-2.0029,-2.0352,-2.0391,-1.9839,-1.9247,-1.839,-1.709,-1.6191,-1.513,-1.3906,-1.3906,-1.3906,-1.3906,-1.3906,-1.3997,-1.4108,-1.4723,-1.4999,-1.5041,-1.5558,-1.5146,-1.4262,-1.5343,-1.507,-1.4214,-1.5356,-1.5832,-1.5832,-1.5832,-1.5832,-1.5832,-1.5832,-1.5832,-1.5832,-1.5832,-1.5832,-1.5832,-1.5832,-1.5832,-1.5832,-1.5832,-1.4854,-1.3878,-1.3686,-1.1745,-0.9998,-0.9805,-0.9172,-0.9662,-1.3367,-1.3346,-1.4341,-1.9752,-2.0986,-2.2119,-2.479,-2.5489,-2.5742,-2.5742,-2.5742,-2.5742,-2.5742,-2.5742,-2.5742,-2.5742,-2.6849,-2.7589,-2.7589,-2.8588,-2.868,-2.7683,-2.7494,-2.6849,-2.5732,-2.5742,-2.5742,-2.5742,-2.5742,-2.5742,-2.5742,-2.5742,-2.5742,-1.6297,-1.6533,-1.6514,-1.6152,-1.6982,0.0,-1.8614,-1.9611,-2.0656,-2.1643,-2.2171,-2.2414,-2.2225,-2.2031,-2.1717,-2.103,-2.0775,-2.0483,-2.0207,-2.0898,-2.1381,-2.123,0.0,0.0,-2.1885,-2.1885,-2.1846,-2.1768,-2.1435,-2.1006,-2.0469,-2.0518,-2.0119,-1.9243,-1.9079,-1.806,-1.6026,-1.5779,-1.4692,-1.2674,-1.2674,-1.2674,-1.2674,-1.2674,-1.3203,-1.4115,-1.4764,-1.504,-1.5057,-1.5605,-1.5635,-1.5439,-1.573,-1.5642,-1.5452,-1.573,-1.5832,-1.5832,-1.5832,-1.5832,-1.5832,-1.5832,-1.5832,-1.5832,-1.5832,-1.5832,-1.5832,-1.5832,-1.5832,-1.5832,-1.5832,-1.4873,-1.3624,-1.2533,-1.1165,-0.9702,-0.8627,-0.9353,-1.0815,-1.2715,-1.3034,-1.4671,-2.0114,-2.1403,-2.2507,-2.5197,-2.5625,-2.5742,-2.5742,-2.5742,-2.5742,-2.5742,-2.5742,-2.5742,-2.5742,-2.6849,-2.7589,-2.7589,-2.7861,-2.7861,-2.7589,-2.6668,-2.5917,-2.5742,-2.5742,-2.5742,-2.5742,-2.5742,-2.5742,-2.5742,-2.5742,-2.5742,-1.666,-1.7183,-1.7549,-1.7155,-1.7985,0.0,0.0,-2.0335,-2.1066,-2.2072,-2.2309,-2.2268,-2.2114,-2.1728,-2.1276,-2.0653,-2.0366,-2.0072,-1.9679,-2.0732,-2.1562,-2.1562,0.0,0.0,-2.251,-2.251,-2.2422,-2.2217,-2.1602,-2.1133,-2.0908,-2.0203,-1.952,-1.9036,-1.79,-1.6838,-1.5703,-1.5137,-1.4035,-1.2328,-1.2936,-1.2851,-1.2328,-1.2942,-1.3555,-1.4115,-1.4549,-1.483,-1.4997,-1.5431,-1.5698,-1.5832,-1.5832,-1.5832,-1.573,-1.5051,-1.486,-1.4873,-1.4893,-1.4867,-1.4975,-1.5615,-1.5832,-1.5832,-1.5832,-1.5832,-1.5832,-1.5832,-1.5832,-1.5832,-1.5832,-1.4829,-1.3759,-1.3072,-1.2008,-1.1007,-1.0305,-1.1066,-1.2239,-1.3708,-1.4107,-1.57,-2.0644,-2.1628,-2.2567,-2.5323,-2.5742,-2.5742,-2.5742,-2.5742,-2.5742,-2.5742,-2.5742,-2.5742,-2.5742,-2.6294,-2.6668,-2.6668,-2.6668,-2.6668,-2.6668,-2.6014,-2.5742,-2.5742,-2.5742,-2.5742,-2.5742,-2.5742,-2.5742,-2.5742,-2.5742,-2.5742,-1.7006,-1.7843,-1.8627,-1.8062,-1.9073,-2.0373,0.0,0.0,0.0,-2.2618,-2.2548,-2.2201,-2.1774,-2.1449,0.0,-1.9921,0.0,0.0,0.0,-2.0713,0.0,-2.1768,0.0,0.0,0.0,-2.3135,-2.2959,-2.2549,-2.1875,-2.1273,-2.1024,-1.9783,-1.8905,-1.8495,-1.6632,-1.5621,-1.5372,-1.4489,-1.347,-1.2328,-1.3294,-1.3203,-1.2328,-1.3294,-1.3906,-1.4102,-1.4396,-1.4689,-1.4983,-1.5277,-1.5565,-1.5832,-1.5832,-1.5832,-1.5635,-1.4657,-1.4286,-1.4298,-1.4309,-1.4266,-1.445,-1.5507,-1.5832,-1.5832,-1.5832,-1.5832,-1.5832,-1.5832,-1.5832,-1.5832,-1.5832,-1.4874,-1.3975,-1.3955,-1.3199,-1.2491,-1.2471,-1.3008,-1.3733,-1.5012,-1.5551,-1.7095,-2.1025,-2.1752,-2.2567,-2.5323,-2.5742,-2.5742,-2.5742,-2.5742,-2.5742,-2.5742,-2.5742,-2.5742,-2.5742,-2.5742,-2.5742,-2.5742,-2.5742,-2.5742,-2.5742,-2.5742,-2.5742,-2.5742,-2.5742,-2.5742,-2.5742,-2.5742,-2.5742,-2.5742,-2.5742,-2.5742,-1.7658,-1.8542,-1.8923,-1.7785,-1.9585,-2.1287,-1.9704,0.0,-2.2068,-2.1769,0.0,-2.2018,-2.1272,0.0,0.0,-1.9615,0.0,0.0,-1.9423,-2.0449,-2.1309,-2.1309,-2.206,0.0,0.0,-2.3135,-2.2959,-2.2549,-2.2422,-2.1663,-2.0243,-1.977,-1.8551,-1.6461,-1.5929,-1.5213,-1.4328,-1.4166,-1.347,-1.2328,-1.2413,-1.2413,-1.2328,-1.2413,-1.3112,-1.4102,-1.4396,-1.4689,-1.4983,-1.5277,-1.5565,-1.5832,-1.5832,-1.5832,-1.5825,-1.5635,-1.554,-1.556,-1.5575,-1.5536,-1.5615,-1.573,-1.5832,-1.5832,-1.5832,-1.5832,-1.5832,-1.5832,-1.5832,-1.5832,-1.5832,-1.4981,-1.4248,-1.4272,-1.3522,-1.275,-1.272,-1.3934,-1.4974,-1.5185,-1.6339,-1.8283,-2.1245,-2.1752,-2.2567,-2.5323,-2.5742,-2.5742,-2.5742,-2.5742,-2.5742,-2.5742,-2.5742,-2.5742,-2.5742,-2.5742,-2.5742,-2.5742,-2.5742,-2.5742,-2.5742,-2.5742,-2.5742,-2.5742,-2.5742,-2.5742,-2.5742,-2.5742,-2.5742,-2.5742,-2.5742,-2.5742,-1.7872,-1.8664,-1.9323,-1.9263,-2.0572,-2.182,-2.1488,-2.2124,-2.2723,-2.2485,0.0,0.0,0.0,0.0,0.0,0.0,-1.9551,0.0,0.0,0.0,-2.0391,0.0,0.0,0.0,0.0,0.0,0.0,0.0,-2.0938,-2.0035,-1.9436,-1.8374,-1.7312,-1.6104,-1.539,-1.4746,-1.4088,-1.4088,-1.347,-1.2328,-1.3027,-1.2942,-1.2322,-1.3027,-1.3646,-1.4095,-1.4215,-1.4536,-1.4977,-1.5097,-1.5418,-1.5832,-1.5832,-1.5832,-1.573,-1.4949,-1.4657,-1.4663,-1.4725,-1.4706,-1.4854,-1.5534,-1.5832,-1.5832,-1.5832,-1.5298,-1.4665,-1.4665,-1.4665,-1.476,-1.4874,-1.519,-1.5466,-1.567,-1.5562,-1.536,-1.5353,-1.5983,-1.6561,-1.6561,-1.7134,-1.8233,-2.0193,-2.1159,-2.2655,-2.5314,-2.5742,-2.5742,-2.5742,-2.5742,-2.543,-2.4609,-2.451,-2.4196,-2.3484,-2.3384,-2.3384,-2.3384,-2.3384,-2.3384,-2.3384,-2.4097,-2.451,-2.451,-2.5323,-2.5742,-2.5742,-2.5742,-2.5742,-2.5742,-2.5742,-2.5742,-1.8008,-1.8664,-1.9431,-2.0074,-2.1112,-2.2063,-2.2641,-2.3069,-2.3376,-2.3376,-2.3175,0.0,0.0,0.0,-2.0566,-1.9841,0.0,-1.8984,-1.8984,-1.9365,0.0,0.0,0.0,0.0,0.0,0.0,0.0,0.0,0.0,0.0,-1.8088,-1.7249,-1.6301,-1.528,-1.4797,-1.4382,-1.4088,-1.4088,-1.3646,-1.2766,-1.3646,-1.3646,-1.2851,-1.373,-1.4088,-1.4088,-1.4088,-1.4422,-1.4963,-1.4963,-1.5304,-1.5832,-1.5832,-1.5832,-1.573,-1.4752,-1.4459,-1.4459,-1.4459,-1.4459,-1.4555,-1.5534,-1.5514,-1.5298,-1.5298,-1.4349,-1.3328,-1.3341,-1.3686,-1.4076,-1.4272,-1.5416,-1.6632,-1.6788,-1.7101,-1.7338,-1.7338,-1.7463,-1.7582,-1.7582,-1.7582,-1.8058,-1.9386,-2.0475,-2.2004,-2.4796,-2.4815,-2.4716,-2.5118,-2.4815,-2.4196,-2.3276,-2.3176,-2.2767,-2.1752,-2.1752,-2.1752,-2.1752,-2.1752,-2.1752,-2.1752,-2.2667,-2.3176,-2.3176,-2.4501,-2.5128,-2.5128,-2.5528,-2.5742,-2.5742,-2.5742,-2.5742,0.0,0.0,-1.9309,-1.9299,-2.0655,-2.1877,-2.1939,-2.2996,-2.3966,-2.3966,-2.4381,-2.4189,-2.2332,-2.1991,-2.1381,-1.9611,-1.9609,0.0,0.0,-2.0244,0.0,0.0,0.0,0.0,0.0,0.0,0.0,0.0,0.0,0.0,-1.5893,-1.6656,-1.5903,-1.3194,-1.4033,-1.4382,-1.4088,-1.4088,-1.4088,-1.3997,-1.4088,-1.4088,-1.3997,-1.4088,-1.4088,-1.4088,-1.4088,-1.4422,-1.4963,-1.4963,-1.5304,-1.5832,-1.5832,-1.5832,-1.5832,-1.573,-1.573,-1.573,-1.573,-1.573,-1.573,-1.5825,-1.4975,-1.3927,-1.3927,-1.2992,-1.1939,-1.1988,-1.306,-1.426,-1.425,-1.577,-1.7174,-1.7213,-1.7345,-1.7582,-1.7582,-1.7582,-1.7582,-1.7582,-1.7582,-1.8058,-1.9386,-1.9606,-2.0554,-2.3367,-2.2667,-2.2257,-2.3592,-2.2667,-2.1853,-2.1752,-2.1752,-2.1752,-2.1752,-2.1752,-2.1752,-2.1752,-2.1752,-2.1752,-2.1752,-2.1752,-2.1752,-2.1752,-2.3076,-2.3791,-2.3791,-2.5118,-2.5742,-2.5742,-2.5742,-2.5742,0.0,0.0,-1.8667,-1.9474,0.0,0.0,-2.1255,-2.1786,-2.2315,-2.2995,-2.3001,-2.2875,-2.2863,-2.2095,-2.1248,-2.0689,-2.0178,-1.9912,0.0,-2.0039,0.0,-1.9375,-1.9919,-2.0016,0.0,0.0,0.0,0.0,-1.6736,0.0,0.0,-1.3957,-1.3131,-1.205,-1.229,-1.2232,-1.1899,-1.2599,-1.2936,-1.2942,-1.373,-1.4088,-1.4088,-1.4088,-1.4088,-1.4088,-1.4088,-1.4422,-1.4963,-1.4963,-1.5304,-1.5832,-1.5832,-1.5832,-1.5832,-1.5832,-1.5832,-1.5832,-1.5832,-1.5832,-1.5622,-1.4867,-1.4242,-1.372,-1.2881,-1.1657,-1.0819,-1.19,-1.2642,-1.3341,-1.4546,-1.6006,-1.7226,-1.7457,-1.7575,-1.7582,-1.7582,-1.7582,-1.7582,-1.7582,-1.7582,-1.7701,-1.8183,-1.8325,-1.9184,-2.1954,-2.1963,-2.1879,-2.2308,-2.203,-2.1347,-2.0436,-2.0333,-1.993,-1.9109,-1.9013,-1.9013,-1.9013,-1.9013,-1.9013,-1.9013,-1.9826,-2.0333,-2.0333,-2.1651,-2.2366,-2.2357,-2.3692,-2.4402,-2.4402,-2.5333,-2.5889,-1.8008,-1.8008,0.0,-1.9396,-1.9519,0.0,-2.093,0.0,-2.1688,-2.2553,-2.2582,-2.2573,-2.2773,-2.2103,-2.1375,-2.1012,-2.0506,-2.0146,0.0,-2.0146,-1.9697,-1.8523,-1.9012,-1.8897,-1.7672,-1.7236,-1.6958,-1.685,-1.5063,0.0,0.0,0.0,-1.1554,-1.0853,-1.1116,-1.1172,-1.0771,-1.1418,-1.1895,-1.2328,-1.3112,-1.3646,-1.4088,-1.4088,-1.3906,-1.3476,-1.3579,-1.3617,-1.3676,-1.3768,-1.4254,-1.5146,-1.5146,-1.5432,-1.5832,-1.5832,-1.5832,-1.573,-1.5242,-1.5153,-1.4956,-1.3588,-1.2874,-1.2363,-1.1477,-1.0327,-0.9749,-1.1302,-1.2128,-1.2991,-1.4786,-1.6274,-1.7345,-1.7575,-1.7582,-1.7582,-1.7582,-1.7582,-1.7582,-1.7582,-1.7582,-1.7582,-1.7582,-1.7582,-1.8318,-2.064,-2.0507,-2.0366,-2.0877,-2.0498,-1.9922,-1.9013,-1.8916,-1.8506,-1.7687,-1.7582,-1.7582,-1.7582,-1.7582,-1.7582,-1.7582,-1.8401,-1.8916,-1.8916,-2.0231,-2.0939,-2.0939,-2.2366,-2.3347,-2.3899,-2.4217,-2.5032]},{"header":{"parameterUnit":"m.s-1","parameterCategory":1,"la1":30.6,"la2":29.2853,"lo1":-89.7004,"lo2":-87.6739,"dy":0.0162,"dx":0.0183,"nx":112,"ny":82,"refTime":"2024-06-06T06:00:00:Z","depth":0,"parameterNumber":3,"parameterNumberName":"V-component_of_WINDS"},"data":[0.0,0.0,0.0,0.0,0.0,0.0,0.0,0.0,0.0,0.0,0.0,0.0,0.0,0.0,0.0,0.0,0.0,0.0,0.0,0.0,0.0,0.0,0.0,0.0,0.0,0.0,0.0,0.0,0.0,0.0,0.0,0.0,0.0,0.0,0.0,0.0,0.0,0.0,0.0,0.0,0.0,0.0,0.0,0.0,0.0,0.0,0.0,0.0,0.0,0.0,0.0,0.0,0.0,0.0,0.0,0.0,0.0,0.0,0.0,0.0,0.0,0.0,0.0,0.0,0.0,0.0,0.0,0.0,0.0,0.0,0.0,0.0,0.0,0.0,0.0,0.0,0.0,0.0,0.0,0.0,0.0,0.0,0.0,0.0,0.0,0.0,0.0,0.0,0.0,0.0,-1.3187,-1.5415,-1.8606,-2.0361,-1.9853,-2.0686,-2.0764,-1.9651,0.0,0.0,0.0,0.0,0.0,0.0,0.0,0.0,0.0,0.0,0.0,0.0,0.0,0.0,0.0,0.0,0.0,0.0,0.0,0.0,0.0,0.0,0.0,0.0,0.0,0.0,0.0,0.0,0.0,0.0,0.0,0.0,0.0,0.0,0.0,0.0,0.0,0.0,0.0,0.0,0.0,0.0,0.0,0.0,0.0,0.0,0.0,0.0,0.0,0.0,0.0,0.0,0.0,0.0,0.0,0.0,0.0,0.0,0.0,0.0,0.0,0.0,0.0,0.0,0.0,0.0,0.0,0.0,0.0,0.0,0.0,0.0,0.0,0.0,0.0,0.0,0.0,0.0,0.0,0.0,0.0,0.0,0.0,0.0,0.0,0.0,0.0,0.0,0.0,0.0,0.0,0.0,0.0,0.0,0.0,0.0,0.0,0.0,0.0,0.0,0.0,0.0,0.0,0.0,-1.5275,-1.8798,-2.0014,-2.0244,-1.9453,-2.0216,-2.0424,-1.9629,0.0,0.0,0.0,0.0,0.0,0.0,0.0,0.0,0.0,0.0,0.0,0.0,0.0,0.0,0.0,0.0,0.0,0.0,0.0,0.0,0.0,0.0,0.0,0.0,0.0,0.0,0.0,0.0,0.0,0.0,0.0,0.0,0.0,0.0,0.0,0.0,0.0,0.0,0.0,0.0,0.0,0.0,0.0,0.0,0.0,0.0,0.0,0.0,0.0,0.0,0.0,0.0,0.0,0.0,0.0,0.0,0.0,0.0,0.0,0.0,0.0,0.0,0.0,0.0,0.0,0.0,0.0,0.0,0.0,0.0,0.0,0.0,0.0,0.0,0.0,0.0,0.0,0.0,0.0,0.0,0.0,0.0,0.0,0.0,0.0,0.0,0.0,0.0,0.0,0.0,0.0,0.0,0.0,0.0,0.0,0.0,0.0,0.0,0.0,0.0,0.0,0.0,0.0,-1.473,-1.6793,-1.9325,-1.9951,-1.9961,-1.9336,-1.9412,-1.9437,-1.9221,-1.9618,0.0,0.0,0.0,0.0,0.0,0.0,0.0,0.0,0.0,0.0,0.0,0.0,0.0,0.0,0.0,0.0,0.0,0.0,0.0,0.0,0.0,0.0,0.0,0.0,0.0,0.0,0.0,0.0,0.0,0.0,0.0,0.0,0.0,0.0,0.0,0.0,0.0,0.0,0.0,0.0,0.0,0.0,0.0,0.0,0.0,0.0,0.0,0.0,0.0,0.0,0.0,0.0,0.0,0.0,0.0,0.0,0.0,0.0,0.0,0.0,0.0,0.0,0.0,0.0,0.0,0.0,0.0,0.0,0.0,0.0,0.0,0.0,0.0,0.0,0.0,0.0,0.0,0.0,0.0,0.0,0.0,0.0,0.0,0.0,0.0,0.0,0.0,0.0,0.0,0.0,0.0,0.0,0.0,0.0,0.0,0.0,0.0,0.0,0.0,0.0,0.0,0.0,-1.6675,-1.7668,-1.902,-1.9512,-1.9551,-1.9033,-1.8682,-1.8556,-1.8879,-1.8811,0.0,0.0,0.0,0.0,0.0,0.0,0.0,0.0,0.0,0.0,0.0,0.0,0.0,0.0,0.0,0.0,0.0,0.0,0.0,0.0,0.0,0.0,0.0,0.0,0.0,0.0,0.0,0.0,0.0,0.0,0.0,0.0,0.0,0.0,0.0,0.0,0.0,0.0,0.0,0.0,0.0,0.0,0.0,0.0,0.0,0.0,0.0,0.0,0.0,0.0,0.0,0.0,0.0,0.0,0.0,0.0,0.0,0.0,0.0,0.0,0.0,0.0,0.0,0.0,0.0,0.0,0.0,0.0,0.0,0.0,0.0,0.0,0.0,0.0,0.0,0.0,0.0,0.0,0.0,0.0,0.0,0.0,0.0,0.0,0.0,0.0,0.0,0.0,0.0,0.0,0.0,0.0,0.0,0.0,0.0,0.0,0.0,0.0,0.0,0.0,0.0,0.0,-1.6745,-1.7558,-1.8531,-1.9072,-1.8994,-1.8174,-1.8076,-1.8299,-1.8857,-1.8558,0.0,0.0,0.0,0.0,0.0,0.0,0.0,0.0,0.0,0.0,0.0,0.0,0.0,0.0,0.0,0.0,0.0,0.0,0.0,0.0,0.0,0.0,0.0,0.0,0.0,0.0,0.0,0.0,0.0,0.0,0.0,0.0,0.0,0.0,0.0,0.0,0.0,0.0,0.0,0.0,0.0,0.0,0.0,0.0,0.0,0.0,0.0,0.0,0.0,0.0,0.0,0.0,0.0,0.0,0.0,0.0,0.0,0.0,0.0,0.0,0.0,0.0,0.0,0.0,0.0,0.0,0.0,0.0,0.0,0.0,0.0,0.0,0.0,0.0,0.0,0.0,0.0,0.0,0.0,0.0,0.0,0.0,0.0,0.0,0.0,0.0,0.0,0.0,0.0,0.0,0.0,0.0,0.0,0.0,0.0,0.0,0.0,0.0,0.0,0.0,0.0,0.0,-1.7676,-1.8508,-1.8603,-1.8789,-1.875,-1.8428,-1.8612,-1.8835,-1.8917,0.0,0.0,0.0,0.0,0.0,0.0,0.0,0.0,0.0,0.0,0.0,0.0,0.0,0.0,0.0,0.0,0.0,0.0,0.0,0.0,0.0,0.0,0.0,0.0,0.0,0.0,0.0,0.0,0.0,0.0,0.0,0.0,0.0,0.0,0.0,0.0,0.0,0.0,0.0,0.0,0.0,0.0,0.0,0.0,0.0,0.0,0.0,0.0,0.0,0.0,0.0,0.0,0.0,0.0,0.0,0.0,0.0,0.0,0.0,0.0,0.0,0.0,0.0,0.0,0.0,0.0,0.0,0.0,0.0,0.0,0.0,0.0,0.0,0.0,0.0,0.0,0.0,0.0,0.0,0.0,0.0,0.0,0.0,0.0,0.0,0.0,0.0,0.0,0.0,0.0,0.0,0.0,0.0,0.0,0.0,0.0,0.0,0.0,0.0,0.0,0.0,0.0,-1.7575,-1.855,-1.9158,-1.8873,-1.8567,-1.8437,-1.8437,-1.8828,-1.9052,-1.8906,0.0,0.0,0.0,0.0,0.0,0.0,0.0,0.0,0.0,0.0,0.0,0.0,0.0,0.0,0.0,0.0,0.0,0.0,0.0,0.0,0.0,0.0,0.0,0.0,0.0,0.0,0.0,0.0,0.0,0.0,0.0,0.0,0.0,0.0,0.0,0.0,0.0,0.0,0.0,0.0,0.0,0.0,0.0,0.0,0.0,0.0,0.0,0.0,0.0,0.0,0.0,0.0,0.0,0.0,0.0,0.0,0.0,0.0,0.0,0.0,0.0,0.0,0.0,0.0,0.0,0.0,0.0,0.0,0.0,0.0,0.0,0.0,0.0,0.0,0.0,0.0,0.0,0.0,0.0,0.0,0.0,0.0,0.0,0.0,0.0,0.0,0.0,0.0,0.0,0.0,0.0,0.0,0.0,0.0,0.0,0.0,0.0,0.0,0.0,0.0,0.0,0.0,-1.9104,-1.9221,-1.9299,-1.9299,-1.8529,-1.8008,-1.8008,-1.8369,-1.871,0.0,0.0,0.0,0.0,0.0,0.0,0.0,0.0,0.0,0.0,0.0,0.0,0.0,0.0,0.0,0.0,0.0,0.0,0.0,0.0,0.0,0.0,0.0,0.0,0.0,0.0,0.0,0.0,0.0,0.0,0.0,0.0,0.0,0.0,0.0,0.0,0.0,0.0,0.0,0.0,0.0,0.0,0.0,0.0,0.0,0.0,0.0,0.0,0.0,0.0,0.0,0.0,0.0,0.0,0.0,0.0,0.0,0.0,0.0,0.0,0.0,0.0,0.0,0.0,0.0,0.0,0.0,0.0,0.0,0.0,0.0,0.0,0.0,0.0,0.0,0.0,0.0,0.0,0.0,0.0,0.0,0.0,0.0,0.0,0.0,0.0,0.0,0.0,0.0,0.0,0.0,0.0,0.0,0.0,0.0,0.0,0.0,0.0,0.0,0.0,0.0,0.0,0.0,-1.9222,-2.0284,-2.091,-2.0268,-1.9431,-1.9177,-1.9759,-1.9943,-1.9934,-1.9807,0.0,0.0,0.0,0.0,0.0,0.0,0.0,0.0,0.0,0.0,0.0,0.0,0.0,0.0,0.0,0.0,0.0,0.0,0.0,0.0,0.0,0.0,0.0,0.0,0.0,0.0,0.0,0.0,0.0,0.0,0.0,0.0,0.0,0.0,0.0,0.0,0.0,0.0,0.0,0.0,0.0,0.0,0.0,0.0,0.0,0.0,0.0,0.0,0.0,0.0,0.0,0.0,0.0,0.0,0.0,0.0,0.0,0.0,0.0,0.0,0.0,0.0,0.0,0.0,0.0,0.0,0.0,0.0,0.0,0.0,0.0,0.0,0.0,0.0,0.0,0.0,0.0,0.0,0.0,0.0,0.0,0.0,0.0,0.0,0.0,0.0,0.0,0.0,0.0,0.0,0.0,0.0,0.0,0.0,0.0,0.0,0.0,0.0,0.0,0.0,0.0,0.0,-2.0086,-2.1163,-2.169,-2.1164,-2.0333,-2.0009,-2.059,-2.091,-2.085,-2.0239,0.0,0.0,0.0,0.0,0.0,0.0,0.0,0.0,0.0,0.0,0.0,0.0,0.0,0.0,0.0,0.0,0.0,0.0,0.0,0.0,0.0,0.0,0.0,0.0,0.0,0.0,0.0,0.0,0.0,0.0,0.0,0.0,0.0,0.0,0.0,0.0,0.0,0.0,0.0,0.0,0.0,0.0,0.0,0.0,0.0,0.0,0.0,0.0,0.0,0.0,0.0,0.0,0.0,0.0,0.0,0.0,0.0,0.0,0.0,0.0,0.0,0.0,0.0,0.0,0.0,0.0,0.0,0.0,0.0,0.0,0.0,0.0,0.0,0.0,0.0,0.0,0.0,0.0,0.0,0.0,0.0,0.0,0.0,0.0,0.0,0.0,0.0,0.0,0.0,0.0,0.0,0.0,0.0,0.0,0.0,0.0,0.0,0.0,0.0,0.0,0.0,0.0,-2.1355,-2.1787,-2.2002,-2.2002,-2.1239,-2.0782,-2.0846,-2.1491,-2.1449,-2.0485,0.0,0.0,0.0,0.0,0.0,0.0,0.0,0.0,0.0,0.0,0.0,0.0,0.0,0.0,0.0,0.0,0.0,0.0,0.0,0.0,0.0,0.0,0.0,0.0,0.0,0.0,0.0,0.0,0.0,0.0,0.0,0.0,0.0,0.0,0.0,0.0,0.0,0.0,0.0,0.0,0.0,0.0,0.0,0.0,0.0,0.0,0.0,0.0,0.0,0.0,0.0,0.0,0.0,0.0,0.0,0.0,0.0,0.0,0.0,0.0,-1.4322,0.0,0.0,0.0,0.0,0.0,0.0,0.0,0.0,0.0,0.0,0.0,0.0,0.0,0.0,0.0,0.0,0.0,0.0,0.0,0.0,0.0,0.0,0.0,0.0,0.0,0.0,0.0,0.0,0.0,0.0,0.0,0.0,0.0,0.0,0.0,0.0,0.0,0.0,0.0,0.0,0.0,-2.1405,-2.2272,-2.2823,-2.2823,-2.2125,-2.1877,-2.2494,-2.2125,-2.1922,-2.1869,-2.2086,0.0,0.0,0.0,0.0,0.0,0.0,0.0,0.0,0.0,0.0,0.0,0.0,0.0,0.0,0.0,0.0,0.0,0.0,0.0,0.0,0.0,0.0,0.0,0.0,0.0,0.0,0.0,0.0,0.0,0.0,0.0,0.0,0.0,0.0,0.0,0.0,0.0,0.0,0.0,0.0,0.0,0.0,0.0,0.0,0.0,0.0,0.0,0.0,0.0,0.0,0.0,0.0,0.0,0.0,0.0,0.0,0.0,0.0,0.0,0.0,-1.6931,0.0,0.0,0.0,0.0,0.0,0.0,0.0,0.0,0.0,0.0,0.0,0.0,0.0,0.0,0.0,0.0,0.0,0.0,0.0,0.0,0.0,0.0,0.0,0.0,0.0,0.0,0.0,0.0,0.0,0.0,0.0,0.0,0.0,0.0,0.0,0.0,0.0,0.0,0.0,0.0,-2.1418,-2.2447,-2.3078,-2.3078,-2.2763,-2.2641,-2.3078,-2.2702,-2.2575,-2.2827,-2.2841,0.0,0.0,0.0,0.0,0.0,0.0,0.0,0.0,0.0,0.0,0.0,0.0,0.0,0.0,0.0,0.0,0.0,0.0,0.0,0.0,0.0,0.0,0.0,0.0,0.0,0.0,0.0,0.0,0.0,0.0,0.0,0.0,0.0,0.0,0.0,0.0,0.0,0.0,0.0,0.0,0.0,0.0,0.0,0.0,0.0,0.0,0.0,0.0,0.0,0.0,0.0,0.0,0.0,-1.8321,-1.8449,-1.8275,-1.7787,-1.7958,-1.8721,-1.9471,-1.9817,-1.9668,-1.7827,0.0,0.0,0.0,0.0,0.0,0.0,0.0,0.0,0.0,0.0,0.0,0.0,0.0,0.0,0.0,0.0,0.0,0.0,0.0,0.0,0.0,0.0,0.0,0.0,-2.8192,-2.7113,0.0,0.0,0.0,0.0,0.0,0.0,0.0,0.0,0.0,0.0,0.0,0.0,-2.1475,-2.2439,-2.3078,-2.3078,-2.3245,-2.3305,-2.3305,-2.3424,-2.3548,-2.3734,-2.3767,-2.3363,0.0,0.0,0.0,0.0,0.0,0.0,0.0,0.0,0.0,0.0,0.0,0.0,0.0,0.0,0.0,0.0,0.0,0.0,0.0,0.0,0.0,0.0,0.0,0.0,0.0,0.0,0.0,0.0,0.0,0.0,0.0,0.0,-2.0716,-2.2492,0.0,0.0,0.0,0.0,0.0,0.0,0.0,0.0,0.0,0.0,0.0,0.0,0.0,-1.6632,-1.7051,-1.7782,-1.8367,-1.8819,-1.8274,-1.8223,-1.8618,-1.8541,-1.8577,-1.8725,-1.9474,0.0,-1.9777,-1.9486,0.0,0.0,0.0,0.0,0.0,0.0,0.0,0.0,0.0,0.0,0.0,0.0,0.0,0.0,0.0,0.0,0.0,0.0,0.0,0.0,0.0,0.0,-2.8914,-2.9696,-3.0431,-3.0782,0.0,-2.6415,-2.3514,-2.4727,-2.2976,0.0,0.0,0.0,0.0,0.0,0.0,0.0,-2.1753,-2.2652,-2.3078,-2.3078,-2.3708,-2.4118,-2.4118,-2.4724,-2.5078,-2.5108,-2.5191,-2.5132,-2.5056,-2.4684,0.0,0.0,0.0,0.0,0.0,0.0,0.0,0.0,0.0,0.0,0.0,0.0,0.0,0.0,0.0,0.0,0.0,0.0,0.0,0.0,0.0,0.0,0.0,0.0,0.0,0.0,0.0,0.0,0.0,-1.791,-1.8192,-1.8935,-1.9444,-1.8862,0.0,0.0,0.0,0.0,0.0,0.0,0.0,0.0,0.0,-1.692,-1.7823,-1.8312,-1.824,-1.9171,-1.9547,-1.9459,-1.9451,-1.9445,-1.9319,-1.9691,-1.9851,-2.0007,-2.0863,-2.1498,-2.1889,-2.1903,-2.2606,-2.36,0.0,0.0,0.0,0.0,-2.5329,-2.517,-2.4021,-2.4366,0.0,-2.5339,0.0,0.0,0.0,0.0,0.0,0.0,0.0,0.0,0.0,0.0,-2.9735,-3.012,-3.0845,-3.1505,-3.1505,-2.9687,-2.8235,0.0,-2.6773,-2.4773,-2.4255,0.0,0.0,0.0,0.0,-2.1004,-2.164,-2.3041,-2.394,-2.394,-2.453,-2.4894,-2.4894,-2.5231,-2.5563,-2.6014,-2.6079,-2.6075,-2.6129,-2.5875,-2.5555,0.0,0.0,0.0,0.0,0.0,0.0,0.0,0.0,0.0,0.0,0.0,0.0,0.0,0.0,0.0,0.0,0.0,0.0,0.0,0.0,0.0,0.0,0.0,0.0,0.0,0.0,0.0,0.0,-1.5976,-1.5579,-1.5573,-1.7514,-1.8262,0.0,0.0,0.0,0.0,0.0,0.0,-1.7319,-1.7361,-1.7315,-1.7274,-1.8634,-1.9522,-1.9762,-2.0633,-2.0743,-2.0238,-2.0592,-2.0673,-2.0539,-2.0976,-2.13,-2.168,-2.2379,-2.3162,-2.3919,-2.4408,-2.4589,-2.4552,-2.3864,-2.3581,-2.3836,-2.5909,-2.6687,-2.6566,-2.5798,-2.6582,-2.7867,-2.7833,0.0,-3.0912,-2.9408,0.0,0.0,0.0,0.0,-2.7021,-2.7733,-2.8959,-3.0142,-3.0433,-3.1012,-3.1482,-3.1482,-3.1482,-3.1519,0.0,-2.9416,-2.7578,-2.7584,0.0,0.0,-2.2048,-2.2538,-2.3031,-2.3058,-2.4423,-2.5204,-2.4846,-2.5136,-2.5522,-2.5869,-2.5921,-2.6286,-2.6968,-2.6875,-2.6902,-2.7111,-2.7096,-2.6797,-2.6123,0.0,0.0,0.0,0.0,0.0,0.0,0.0,0.0,0.0,0.0,0.0,0.0,0.0,0.0,0.0,0.0,0.0,0.0,0.0,0.0,0.0,0.0,0.0,0.0,0.0,0.0,0.0,0.0,0.0,-1.3072,-1.521,0.0,0.0,0.0,0.0,-1.6515,-1.6515,-1.7396,-1.9525,-1.9636,-1.9648,-1.9647,-1.8725,-1.945,-2.1835,-2.1898,-2.1792,-2.1393,-2.1091,-2.1467,-2.2472,-2.2349,-2.2763,-2.352,-2.3496,-2.4003,-2.5062,-2.6708,-2.74,-2.7164,-2.4597,-2.358,-2.386,-2.5934,-2.6698,-2.7065,-2.9881,-3.0899,-3.0976,-3.0955,-3.1066,-3.1164,-3.1089,-3.0029,0.0,0.0,-2.6582,-2.7769,-2.8604,-2.9232,-2.9909,-3.1165,-3.1495,-3.1482,-3.1482,-3.1482,-3.1507,0.0,-2.9366,-2.7607,-2.7585,0.0,-2.7343,-2.7248,-2.7281,-2.7263,-2.7308,-2.7353,-2.6903,-2.5508,-2.5406,-2.5898,-2.7219,-2.7424,-2.7793,-2.845,-2.7882,-2.7844,-2.8472,-2.8502,-2.8173,-2.7535,-2.749,0.0,0.0,0.0,0.0,0.0,0.0,0.0,0.0,0.0,0.0,0.0,0.0,0.0,0.0,0.0,0.0,0.0,0.0,0.0,0.0,0.0,0.0,0.0,0.0,0.0,0.0,0.0,0.0,-1.4387,-1.4314,0.0,-1.5665,-1.7521,-1.8631,-1.8643,-1.861,-1.8971,-1.9748,-1.9778,-2.0435,-2.1878,-2.1565,-2.1492,-2.1684,-2.235,-2.2646,-2.2535,-2.2391,-2.1786,-2.0862,-2.247,-2.434,-2.6141,-2.5135,-2.4941,-2.5393,-2.6965,-2.7588,-2.7511,-2.6544,-2.7117,-2.857,-2.9312,-2.9609,-2.9736,-3.0842,-3.1196,-3.1196,-3.1201,-3.1184,-3.1213,-3.1206,-3.0836,-3.008,-2.8497,-2.784,-2.7669,-2.7964,-2.9045,-3.0123,-3.0529,-3.1093,-3.1482,-3.1482,-3.1482,-3.1509,-3.1504,-3.0758,-2.957,-2.7864,-2.7608,-2.7618,-2.7596,-2.7578,-2.7603,-2.761,-2.8374,-2.8674,-2.8148,-2.7744,-2.7836,-2.8739,-2.8085,-2.7874,-2.8562,-2.7949,-2.7679,-2.7934,-2.7934,-2.7814,-2.7625,-2.7625,-2.7021,0.0,0.0,0.0,0.0,0.0,0.0,0.0,0.0,0.0,0.0,0.0,0.0,0.0,0.0,0.0,0.0,0.0,0.0,0.0,0.0,0.0,0.0,0.0,0.0,0.0,-1.4148,-1.352,-1.5189,-1.4403,-1.4563,-1.6699,-1.8631,-1.9788,-1.9821,-1.9787,-2.0152,-2.0874,-2.0907,-2.1592,-2.3071,-2.4062,-2.4265,-2.354,-2.4255,-2.438,-2.3879,-2.3339,-2.2604,-2.1746,-2.3992,-2.5944,-2.7554,-2.6543,-2.613,-2.6197,-2.7174,-2.7614,-2.761,-2.7591,-2.8591,-2.998,-2.9971,-2.9989,-3.0086,-3.0908,-3.1204,-3.1196,-3.1207,-3.1177,-3.12,-3.1215,-3.0644,-2.9817,-2.9042,-2.8858,-2.8928,-2.8926,-2.943,-3.0131,-3.0544,-3.1093,-3.1482,-3.1482,-3.1482,-3.1482,-3.1482,-3.1528,-3.094,-2.9193,-2.8926,-2.8922,-2.8922,-2.8922,-2.8922,-2.8922,-2.9693,-3.0226,-3.0226,-2.9833,-2.9735,-3.0208,-2.8907,-2.8389,-2.919,-2.8188,-2.791,-2.8532,-2.8158,-2.8023,-2.8248,-2.785,-2.747,-2.726,0.0,0.0,0.0,0.0,0.0,0.0,0.0,0.0,0.0,0.0,0.0,0.0,0.0,0.0,0.0,0.0,0.0,0.0,0.0,0.0,0.0,0.0,0.0,-1.4869,-1.364,-1.3526,-1.5182,-1.5391,-1.6581,-1.9601,-1.9824,-1.9825,-1.9792,-1.9949,-2.0927,-2.2991,-2.3201,-2.3284,-2.3347,-2.6224,-2.775,-2.7698,-2.7669,-2.6905,-2.5453,-2.3973,-2.3996,-2.5505,-2.6972,-2.7638,-2.7697,-2.7749,-2.769,-2.7729,-2.7733,-2.7642,-2.7584,-2.7579,-2.7605,-2.7622,-2.7611,-2.7592,-2.7973,-3.0336,-3.1216,-3.1237,-3.1314,-3.1274,-3.1193,-3.1193,-2.9564,-2.7742,-2.7705,-2.9569,-3.1496,-3.1496,-3.0567,-2.9947,-3.1243,-3.1482,-3.1482,-3.1482,-3.1482,-3.1482,-3.1482,-3.1471,-3.15,-3.15,-3.1509,-3.1505,-3.1505,-3.1505,0.0,-3.1505,-3.1505,-3.1505,-3.1505,-3.1489,-3.1472,-3.1485,-2.9915,-2.9402,-3.0432,-2.8697,-2.8487,-3.0387,-2.9295,-2.8951,-2.9594,-2.8308,-2.7964,-2.8622,0.0,0.0,0.0,0.0,0.0,0.0,0.0,0.0,0.0,0.0,0.0,0.0,0.0,0.0,0.0,0.0,0.0,0.0,0.0,0.0,0.0,-1.7339,-1.6686,-1.4935,-1.3639,-1.3503,-1.5182,-1.5386,-1.7207,-2.1741,-2.0717,-1.9805,-1.9793,-2.3292,-2.4763,-2.3197,-2.5168,-2.723,-2.911,-2.9982,-3.0428,-3.0433,-2.8565,-2.7411,-2.6973,-2.6587,-2.6596,-2.7001,-2.7416,-2.8621,-3.0403,-3.0425,-3.0455,-3.0455,-3.0433,-2.9286,-2.7588,-2.7595,-2.7587,-2.7617,-2.7614,-2.7614,-2.7931,-3.0348,-3.1202,-3.1555,-3.3698,-3.2958,-3.1202,-3.139,-3.0942,-3.0449,-3.0425,-3.0955,-3.1496,-3.1501,-3.1255,-3.1066,-3.1407,-3.1482,-3.1482,-3.1482,-3.1482,-3.1482,-3.1482,-3.1522,-3.1519,-3.1519,-3.1516,-3.1471,-3.1471,-3.1471,0.0,-3.1471,-3.1471,-3.1471,-3.1471,-3.1091,-3.096,-3.1474,-3.0203,-2.9738,-3.0447,-2.9579,-2.9265,-2.9819,-2.9505,-2.9609,-3.0238,-2.9445,-2.9116,0.0,0.0,0.0,0.0,0.0,0.0,0.0,0.0,0.0,0.0,0.0,0.0,0.0,0.0,0.0,0.0,0.0,0.0,0.0,0.0,0.0,0.0,-1.7601,-1.7431,-1.6348,-1.4904,-1.4291,-1.5297,-1.6502,-1.8428,-2.1453,-2.1378,-2.1242,-2.1369,-2.4188,-2.5688,-2.5021,-2.7712,-2.9908,-3.1434,-3.1528,-3.1479,-3.1479,-2.9983,-2.9238,-2.9237,-2.8119,-2.7612,-2.7642,-2.8753,-3.0042,0.0,-3.1506,-3.1496,-3.1496,-3.1485,-3.0624,0.0,0.0,0.0,0.0,0.0,-2.7595,-2.7961,-3.0476,-3.1326,-3.1789,-3.4675,-3.3649,-3.1367,-3.1451,-3.1495,-3.1496,-3.1505,-3.1513,-3.1486,-3.1495,-3.1482,-3.1482,-3.1482,-3.1482,-3.1482,-3.1482,-3.1482,-3.1482,-3.1482,-3.1482,0.0,-3.1482,-3.1482,-3.1482,-3.1482,-3.1482,-3.1482,-3.1482,-3.1482,-3.1482,-3.1482,-3.118,-3.1106,-3.1437,-3.0567,0.0,0.0,0.0,-2.9579,-2.9579,-2.9834,0.0,0.0,0.0,0.0,0.0,0.0,0.0,0.0,-3.0522,-3.0881,0.0,0.0,0.0,0.0,0.0,0.0,0.0,0.0,0.0,0.0,0.0,0.0,0.0,0.0,0.0,0.0,-1.7743,-1.8234,-1.8331,-1.6956,-1.5922,-1.5902,-1.8209,-1.9776,-1.9809,-2.1559,-2.2931,-2.3406,-2.3891,-2.5149,-2.7489,0.0,0.0,0.0,0.0,-3.1519,-3.149,-3.1475,-3.1521,-3.145,-2.9154,-2.8031,-2.813,-3.0413,-3.1516,-3.149,-3.1477,-3.1482,-3.1509,-3.1483,-3.1528,-3.148,-3.149,-3.1496,-3.1189,-2.8897,-2.8051,-2.8389,-3.0685,0.0,0.0,-3.4365,-3.3475,-3.1496,-3.152,-3.148,-3.1482,-3.1482,-3.1482,-3.1482,-3.1482,-3.1482,-3.1482,-3.1482,-3.1482,-3.1482,-3.1482,-3.1482,-3.1482,-3.1482,-3.1482,-3.1482,-3.1482,-3.1482,-3.1482,-3.1482,-3.1482,-3.1482,-3.1482,-3.1482,-3.1482,-3.1482,0.0,0.0,-3.1482,-3.0971,-3.0881,-3.1437,-3.0447,-2.9804,-2.9804,-3.0328,-3.0612,-3.0612,-3.0687,-3.1315,-3.2512,-3.2587,-3.2961,-3.3559,-3.1704,-3.1524,0.0,0.0,0.0,0.0,0.0,0.0,0.0,0.0,0.0,0.0,0.0,0.0,0.0,0.0,0.0,-1.5405,-1.6875,-1.8524,-1.9343,-1.9162,-1.8967,-1.8963,-1.9454,-1.9799,-1.9793,-2.0195,-2.1214,-2.3036,-2.5439,-2.7056,-2.7569,-2.8065,-2.9342,-3.1462,-3.1509,-3.1509,-3.1507,-3.1507,-3.1471,-3.1465,0.0,0.0,-3.0749,-3.1278,-3.1509,-3.1507,-3.1509,-3.1482,-3.1524,-3.1522,-3.148,-3.1524,-3.1477,-3.1509,-3.1435,-3.091,-3.0744,-3.0824,-3.1348,-3.1496,-3.1597,-3.2124,-3.1916,-3.1479,-3.1509,-3.1477,0.0,-3.1482,-3.1482,-3.1482,-3.1482,-3.1482,-3.1482,-3.1482,-3.1482,-3.1482,-3.1482,-3.1482,-3.1482,-3.1482,-3.1482,-3.1482,-3.1482,-3.1482,-3.1482,-3.1482,-3.1482,-3.1482,-3.1482,-3.1482,-3.1482,-3.1482,-3.1482,-3.1482,-3.1482,-3.1347,-3.1332,-3.1467,-3.13,-3.115,-3.115,-3.127,-3.1345,-3.1345,-3.1854,-3.2258,-3.2512,-3.3036,-3.3649,-3.4262,-3.335,-3.335,0.0,0.0,0.0,0.0,0.0,0.0,0.0,0.0,0.0,0.0,0.0,-1.6392,-1.5975,0.0,-1.7168,-1.6554,-1.6965,-1.7905,-1.957,-1.9798,-1.9797,-1.9778,-1.979,-1.9812,-1.9773,-2.0772,-2.1979,-2.3298,-2.6,-2.7621,-2.7619,-2.7576,-2.8805,-3.1407,-3.1482,-3.1482,-3.1482,-3.1482,-3.1522,-3.1486,-3.1486,-3.1486,-3.1486,-3.1486,-3.1504,-3.1482,-3.1482,-3.1482,-3.1482,-3.1482,-3.1482,-3.1482,-3.1482,-3.1507,-3.1486,-3.1486,-3.1486,-3.1486,-3.1486,-3.1483,-3.1494,-3.1507,-3.1474,-3.1494,-3.1522,-3.1482,-3.1482,-3.1482,-3.1482,-3.1482,-3.1482,-3.1482,-3.1482,-3.1482,-3.1482,-3.1482,-3.1482,-3.1482,-3.1482,-3.1482,-3.1482,-3.1482,-3.1482,-3.1482,-3.1482,-3.1482,-3.1482,-3.1482,-3.1482,-3.1482,-3.1482,-3.1482,-3.1482,-3.1482,-3.1482,-3.1482,-3.1482,-3.1482,-3.1839,-3.2018,-3.2018,-3.2332,-3.2512,-3.2512,-3.2841,-3.317,-3.3499,-3.3829,-3.4337,-3.4981,-3.4651,-3.4681,0.0,0.0,0.0,0.0,0.0,0.0,0.0,-2.0099,-1.9617,-1.8344,-1.7588,-1.7016,-1.6587,-1.7581,-1.8509,-1.8524,-1.7718,-1.7787,-1.957,-1.9799,-1.9825,-1.9825,-1.9812,-1.9786,-1.9812,-2.2338,-2.4138,-2.4455,-2.6399,-2.7603,-2.7617,-2.8061,-2.9345,-3.1422,-3.1482,-3.1482,-3.1482,-3.1482,-3.1482,-3.1482,-3.1482,-3.1482,-3.1482,-3.1482,-3.1482,-3.1482,-3.1482,-3.1482,-3.1524,-3.1492,-3.1504,-3.1489,-3.1513,-3.1486,-3.1504,-3.1504,-3.1501,-3.1498,-3.1531,-3.1504,-3.1519,-3.1509,-3.1482,-3.1482,-3.1482,-3.1482,-3.1482,-3.1482,-3.1482,-3.1482,-3.1482,-3.1482,-3.1482,-3.1482,-3.1511,-3.1483,-3.1482,-3.1498,-3.1499,-3.1513,-3.1498,-3.1498,-3.1498,-3.1511,-3.1482,-3.1482,-3.1482,-3.1482,-3.1482,-3.1482,-3.1482,-3.1482,-3.1482,-3.1482,-3.1482,-3.1601,-3.1661,-3.1661,-3.2332,-3.2706,-3.2706,-3.3215,-3.3499,-3.3499,-3.3619,-3.3948,-3.4472,-3.4607,-3.4966,-3.5504,-3.5504,-3.5504,-2.5367,-2.4821,-2.4026,-2.2811,-2.2417,-2.2246,0.0,-2.1988,-2.1253,-1.8617,-1.8816,-1.8816,-1.6857,-1.8224,-1.9635,-1.9622,-1.9522,-1.9515,-1.9772,-1.9775,-1.981,-1.981,-1.9813,-1.9825,-1.9786,-2.4226,-2.71,-2.717,-2.7445,-2.7568,-2.7617,-2.9814,-3.1185,-3.1524,-3.1482,-3.1482,-3.1482,-3.1482,-3.1482,-3.1482,-3.1482,-3.1482,-3.1482,-3.1482,-3.1482,-3.1482,-3.1482,-3.1482,-3.1495,-3.1511,-3.1494,-3.1518,-3.1502,-3.1489,-3.1494,-3.1494,-3.149,-3.1498,-3.152,-3.1494,-3.1515,-3.1504,-3.1482,-3.1482,-3.1482,-3.1482,-3.1482,-3.1482,-3.1482,-3.1482,-3.1482,-3.1482,-3.1482,-3.1482,-3.1485,-3.1531,-3.1526,-3.1501,-3.1511,-3.1516,-3.1471,-3.1471,-3.1471,-3.1514,-3.1482,-3.1482,-3.1482,-3.1482,-3.1482,-3.1482,-3.1482,-3.1482,-3.1482,-3.1482,-3.1482,-3.2078,-3.2407,-3.2407,-3.3021,-3.338,-3.338,-3.3455,-3.3499,-3.3499,-3.4068,-3.4412,-3.4472,-3.51,-3.5429,-3.5504,-3.5504,-3.5504,-2.4814,-2.3886,-2.2953,-2.2442,-2.231,-2.2287,-2.2304,-2.228,-2.1701,-1.9464,-1.9461,-1.9516,-1.8589,-1.9182,-2.0206,-2.1508,-2.0669,-1.9775,-1.9787,-1.9817,-2.0337,-2.1833,-2.2034,-2.2597,-2.4205,-2.6293,-2.7607,-2.7609,-2.7631,-2.758,-2.7598,-3.0096,-3.149,-3.1498,-3.1507,-3.1482,-3.1482,-3.1482,-3.1482,-3.1482,-3.1482,-3.1482,-3.1482,-3.1482,-3.1482,-3.1482,-3.1482,-3.1489,-3.1485,-3.1494,-3.2439,-3.3889,-3.3899,-3.3893,-3.3873,-3.3911,-3.3878,-3.3858,-3.3889,-3.2858,-3.1494,-3.1475,-3.1528,-3.1511,-3.1485,-3.1485,-3.1483,-3.1501,-3.1471,-3.1516,-3.1485,-3.153,-3.153,-3.153,-3.1483,-3.1898,-3.3487,-3.263,-3.1968,-3.3547,-3.3834,-3.3351,-3.1779,-3.1483,-3.153,-3.153,-3.15,-3.1482,-3.1482,-3.1482,-3.1482,-3.1482,-3.2195,-3.2554,-3.2287,-3.2751,-3.308,-3.308,-3.3709,-3.4068,-3.4068,-3.4457,-3.4666,-3.4666,-3.4936,-3.507,-3.507,-3.537,-3.5733,-3.6165,-3.6165,-3.6415,-2.436,-2.3529,-2.2833,-2.281,-2.2558,-2.2297,-2.2291,-2.2291,-2.1802,-2.0072,-1.9727,-1.9975,-2.071,-2.0289,-2.0792,-2.3862,-2.3003,-2.1677,-2.097,-2.0839,-2.1527,-2.3383,-2.3583,-2.466,-2.7346,-2.762,-2.7619,-2.7575,-2.7625,-2.7629,-2.7595,-2.9426,-3.0769,-3.149,-3.1509,-3.1504,-3.1482,-3.1482,-3.1482,-3.1482,-3.1482,-3.1482,-3.1482,-3.1482,-3.1522,-3.1501,-3.1501,-3.1511,-3.1574,-3.2342,-3.3768,-3.5517,-3.4792,-3.4468,-3.4478,-3.4458,-3.4926,-3.5498,-3.4748,-3.3644,-3.2516,-3.1769,-3.1524,-3.1514,-3.1485,-3.2035,-3.2451,-3.1687,-3.2016,-3.2601,-3.2613,-3.2611,-3.2611,-3.2611,-3.2594,-3.3134,-3.5064,-3.395,-3.3206,-3.514,-3.5477,-3.4849,-3.2968,-3.2594,-3.2611,-3.2611,-3.2587,-3.233,-3.1588,-3.2135,-3.2611,-3.2628,-3.3261,-3.3547,-3.3231,-3.3546,-3.3769,-3.3769,-3.4382,-3.4756,-3.4756,-3.5235,-3.5504,-3.5504,-3.5504,-3.5504,-3.5504,-3.5718,-3.6054,-3.6615,-3.6859,-3.7381,-2.421,-2.4162,-2.4147,-2.4134,-2.3207,-2.2297,-2.2292,-2.2312,-2.1825,-2.0057,-1.9704,-2.0469,-2.3038,-2.1476,-2.1492,-2.6639,-2.7394,-2.6446,-2.3844,-2.3468,-2.3518,-2.3591,-2.3605,-2.4652,-2.7349,-2.7625,-2.7625,-2.7625,-2.7625,-2.7604,-2.7629,-2.7688,-2.8854,-3.1411,-3.1488,-3.1496,-3.1524,-3.1482,-3.1482,-3.1482,-3.1482,-3.1482,-3.1482,-3.1482,-3.1498,-3.1503,-3.1503,-3.1482,-3.1715,-3.435,-3.5527,-3.5346,-3.2644,-3.1641,-3.1632,-3.1616,-3.3304,-3.524,-3.2538,-3.3293,-3.5054,-3.2369,-3.1509,-3.15,-3.1523,-3.3304,-3.482,-3.2205,-3.3348,-3.5355,-3.5355,-3.5355,-3.5355,-3.5355,-3.5368,-3.5427,-3.5477,-3.5453,-3.5404,-3.5483,-3.5501,-3.5485,-3.5377,-3.5399,-3.5355,-3.5355,-3.5401,-3.4425,-3.1842,-3.3802,-3.5351,-3.537,-3.4668,-3.4181,-3.4181,-3.4358,-3.4442,-3.4442,-3.51,-3.5474,-3.5474,-3.5489,-3.5504,-3.5504,-3.5504,-3.5504,-3.5504,-3.6228,-3.6615,-3.66,-3.7397,-3.8133,-2.4192,-2.4206,-2.4196,-2.4201,-2.388,-2.3342,-2.2479,-2.2292,-2.2128,-2.1553,-2.0522,-1.9972,-2.0843,-2.1723,-2.2878,-2.4658,-2.6464,-2.6675,-2.3969,-2.3612,-2.3598,-2.3591,-2.5178,-2.6596,-2.7519,-2.7605,-2.7628,-2.7628,-2.7609,-2.7596,-2.7627,-3.0974,-3.3319,-3.4206,-3.2431,-3.148,-3.1524,-3.1482,-3.1482,-3.1482,-3.1482,-3.1482,-3.1524,-3.1479,-3.1515,-3.1627,-3.3435,-3.4223,-3.4284,-3.5232,-3.5592,-3.551,-3.4561,-3.3113,-3.1534,-3.152,-3.211,-3.2764,-3.1813,-3.3318,-3.5159,-3.2394,-3.2734,-3.4167,-3.4115,-3.4757,-3.5339,-3.4424,-3.4793,-3.5488,-3.5495,-3.5477,-3.5477,-3.5477,-3.5488,-3.5533,-3.5507,-3.5499,-3.5474,-3.5514,-3.5484,-3.5484,-3.5484,-3.5473,-3.5477,-3.5477,-3.5474,-3.4881,-3.305,-3.438,-3.5523,-3.5477,-3.5246,-3.5059,-3.5059,-3.5093,-3.516,-3.516,-3.5385,-3.5504,-3.5504,-3.5504,-3.5718,-3.6228,-3.6228,-3.6461,-3.7011,-3.7294,-3.7674,-3.8157,-3.8398,-3.8924,-2.4211,-2.419,-2.4188,-2.4194,-2.4203,-2.3974,-2.3183,-2.2633,-2.2285,-2.2299,-2.1398,-2.0639,-2.0639,-2.2848,-2.4451,-2.3717,-2.5834,-2.6995,-2.5272,-2.5035,-2.503,-2.5042,-2.6535,-2.7934,-2.8807,-2.8888,-2.8873,-2.8873,-2.887,-2.8878,-2.8914,-3.2145,-3.4508,-3.5547,-3.295,-3.1496,-3.1498,-3.1507,-3.1482,-3.1482,-3.1482,-3.1492,-3.1483,-3.15,-3.2059,-3.3045,-3.4818,-3.558,-3.5596,-3.5596,-3.5596,-3.5616,-3.5576,-3.3905,-3.1597,-3.26,-3.2945,-3.281,-3.1845,-3.3269,-3.5245,-3.3469,-3.4091,-3.5506,-3.5528,-3.5483,-3.5485,-3.5529,-3.5499,-3.5522,-3.5524,-3.5504,-3.5504,-3.5504,-3.5504,-3.5504,-3.5504,-3.5504,-3.5504,-3.5504,-3.5504,-3.5504,-3.5504,-3.5504,-3.5504,-3.5504,-3.5525,-3.5165,-3.434,-3.4938,-3.5491,-3.5535,-3.5513,-3.5477,-3.5477,-3.5529,-3.5504,-3.5504,-3.5504,-3.5504,-3.5504,-3.5718,-3.6117,-3.66,-3.6904,-3.7263,-3.7822,-3.8092,-3.8414,-3.8908,-3.9193,-3.961,-2.421,-2.4209,-2.419,-2.419,-2.4196,-2.4194,-2.4212,-2.3254,-2.24,-2.2399,-2.24,-2.2405,-2.2393,-2.4763,-2.6054,-2.4079,-2.5908,-2.7595,-2.7605,-2.7596,-2.7677,-2.7765,-2.776,-2.8735,-3.1202,-3.1417,-3.141,-3.1438,0.0,-3.1193,-3.1215,-3.1176,-3.2537,-3.5525,-3.3094,-3.1675,-3.1588,-3.1543,-3.1482,-3.1482,-3.1482,-3.1513,-3.1503,-3.1658,-3.3144,-3.5625,-3.5623,-3.5609,-3.5622,-3.5622,-3.5622,-3.5588,-3.5591,-3.3974,-3.2006,-3.4542,-3.5523,-3.5126,-3.2586,-3.3366,-3.5477,-3.5491,-3.5492,-3.5528,-3.5494,-3.5504,-3.5504,-3.5504,-3.5504,-3.5504,-3.5504,-3.5504,-3.5504,-3.5504,-3.5504,-3.5504,-3.5504,-3.5504,-3.5504,-3.5504,-3.5504,-3.5504,-3.5504,-3.5504,-3.5504,-3.5504,-3.5504,-3.5504,-3.5504,-3.5522,-3.551,-3.5474,-3.5504,-3.5504,-3.5504,-3.5504,-3.5504,-3.5504,-3.5504,-3.5504,-3.5504,-3.6228,-3.66,-3.6661,-3.7456,-3.7863,-3.7921,-3.8635,-3.8962,-3.8962,-3.9714,-4.007,-2.42,-2.4192,-2.419,-2.419,-2.4206,-2.42,-2.4197,-2.3945,-2.3719,-2.3721,-2.3702,-2.3721,-2.3705,-2.5347,-2.6539,-2.5978,-2.6862,-2.7617,-2.761,-2.7607,-2.8268,-3.0084,-3.0259,-3.1386,-3.4202,-3.4486,-3.4506,-3.4499,-3.246,-3.1203,-3.1189,-3.1182,-3.2569,-3.5525,-3.4906,-3.4074,-3.3045,-3.2,-3.1482,-3.1482,-3.1482,-3.1522,-3.1588,-3.3634,-3.4959,-3.5612,-3.5599,-3.5588,-3.5622,-3.5622,-3.5622,-3.5588,-3.5591,-3.5118,-3.4581,-3.5247,-3.5483,-3.5413,-3.4681,-3.4901,-3.5503,-3.548,-3.5488,-3.5479,-3.5474,-3.5504,-3.5504,-3.5504,-3.5504,-3.5504,-3.5504,-3.5504,-3.5504,-3.5504,-3.5504,-3.5504,-3.5504,-3.5504,-3.5504,-3.5504,-3.5504,-3.5504,-3.5504,-3.5504,-3.5504,-3.5504,-3.5504,-3.5504,-3.5504,-3.5509,-3.5494,-3.5489,-3.5504,-3.5504,-3.5504,-3.5504,-3.5504,-3.5504,-3.5504,-3.5504,-3.5504,-3.6228,-3.6904,-3.7456,-3.8246,-3.8924,-3.9506,-3.9679,-3.9782,-3.9782,-4.002,-4.007,-2.4276,-2.4193,-2.4185,-2.4185,-2.4185,-2.4205,-2.4192,-2.4192,-2.421,-2.4196,-2.4205,-2.4198,-2.4204,-2.6107,-2.79,-2.8569,-2.8946,-2.9199,-2.9198,-2.9191,-2.968,-3.1019,-3.1209,-3.236,-3.5301,-3.5615,-3.5579,-3.5581,-3.4066,-3.3119,-3.3119,-3.3117,-3.3885,-3.5559,-3.5597,-3.4675,-3.2696,-3.1917,-3.1477,-3.1494,-3.1492,-3.1479,-3.1528,-3.3097,-3.446,-3.561,0.0,-3.5622,-3.5622,-3.5622,-3.5609,-3.5604,-3.5594,-3.5538,-3.5477,-3.5521,-3.5499,-3.5504,-3.5504,-3.5492,-3.5472,-3.5499,-3.5504,-3.5504,-3.5504,-3.5504,-3.5504,-3.5504,-3.5504,-3.5504,-3.5504,-3.6508,-3.7527,-3.7527,-3.7017,-3.6306,-3.5622,-3.5528,-3.5461,-3.5524,-3.5504,-3.5504,-3.5504,-3.5504,-3.5504,-3.5504,-3.5504,-3.5504,-3.5504,-3.5504,-3.5504,-3.5504,-3.5504,-3.5504,-3.5504,-3.5504,-3.5504,-3.5504,-3.5782,-3.6006,-3.6006,-3.7024,-3.7831,-3.8246,-3.9032,-3.9662,-4.007,-4.007,-4.007,-4.007,-4.007,-4.007,-2.4524,-2.4346,-2.4356,-2.4341,-2.436,-2.436,-2.436,-2.436,-2.4358,-2.4344,-2.4262,-2.432,-2.4761,-2.7129,-2.9473,-3.0959,-3.1206,-3.1213,-3.1215,-3.1222,-3.1208,-3.1208,-3.1183,-3.2345,-3.5317,-3.5589,-3.5509,-3.5369,-3.5334,-3.5409,-3.5566,-3.5598,-3.5442,-3.5094,-3.543,-3.4276,-3.1564,-3.1492,-3.1479,-3.1489,-3.1875,-3.1844,-3.1485,-3.1905,-3.3356,-3.5616,-3.5594,0.0,-3.5616,-3.5616,-3.5585,-3.5609,-3.5572,-3.553,-3.5476,-3.5477,-3.5504,-3.5489,-3.5494,-3.5531,-3.5508,-3.5492,-3.5484,-3.5488,-3.5488,-3.5469,-3.5529,-3.5529,-3.5509,-3.5504,-3.5504,-3.7606,-3.9827,-4.0078,-3.893,-3.744,-3.6075,-3.5646,-3.5505,-3.5479,-3.5504,-3.5504,-3.5504,-3.5504,-3.5504,-3.5504,-3.5504,-3.5504,-3.5504,-3.5504,-3.5504,-3.5504,-3.5494,-3.5559,-3.5699,-3.5703,-3.5752,-3.5797,-3.6399,-3.6737,-3.6737,-3.8157,-3.8908,-3.8908,-3.9662,-4.007,-4.007,-4.007,-4.007,-4.007,-4.007,-4.007,-2.5139,-2.5099,-2.5113,-2.5111,-2.5102,-2.5102,-2.5102,-2.5102,-2.5103,-2.511,-2.4615,-2.5004,-2.768,-2.8615,-2.9485,-3.0951,-3.1212,-3.1212,-3.1213,-3.1201,-3.1213,-3.1213,-3.1187,-3.236,-3.5299,-3.56,-3.5144,-3.4032,-3.3966,-3.4421,-3.5532,-3.5602,-3.4572,-3.2273,-3.4452,-3.4288,-3.1515,-3.1485,-3.1513,-3.154,-3.3801,-3.3682,-3.1577,-3.3864,-3.5168,-3.5602,-3.5593,0.0,-3.5618,-3.5618,-3.5597,-3.5582,-3.5561,-3.549,-3.5476,-3.5477,-3.5504,-3.5509,-3.5488,-3.5523,-3.5508,-3.5477,-3.5477,-3.5481,-3.5481,-3.5476,-3.5507,-3.5507,-3.5465,-3.5504,-3.5504,-3.686,-3.8509,-3.9779,-3.8898,-3.7712,-3.7435,-3.6411,-3.5514,-3.5489,-3.5504,-3.5504,-3.5504,-3.5504,-3.5504,-3.5504,-3.5504,-3.5504,-3.5504,-3.5504,-3.5504,-3.5504,-3.5483,-3.5845,-3.6662,-3.6747,-3.692,-3.7397,-3.7515,-3.7573,-3.7573,-3.8398,-3.8908,-3.8908,-3.9662,-4.007,-4.007,-4.007,-4.007,-4.007,-4.007,-4.007,-2.5507,-2.5406,-2.531,-2.5302,-2.5309,-2.5309,-2.5309,-2.5309,-2.5298,-2.5311,-2.6049,-2.7176,-2.8719,-2.8998,-2.9224,-2.9953,-3.1469,-3.2231,-3.134,-3.121,-3.119,-3.119,-3.12,-3.1748,-3.3178,-3.4712,-3.5348,-3.4695,-3.4612,-3.4913,-3.5547,-3.2926,-3.1455,-3.1502,-3.2786,-3.2826,-3.149,-3.2919,-3.3639,-3.363,-3.499,-3.4149,-3.1601,-3.435,-3.5633,-3.558,-3.5579,0.0,-3.5465,-3.4071,-3.3455,-3.3612,-3.4956,-3.5488,-3.5488,-3.5485,-3.5516,-3.5503,-3.5521,-3.6531,-3.7879,-3.7879,-3.7911,-3.787,-3.787,-3.7871,-3.7729,-3.6896,-3.6703,-3.6723,-3.6723,-3.7836,-3.9021,-3.928,-3.8236,-3.7232,-3.7345,-3.6414,-3.5504,-3.5504,-3.5504,-3.5504,-3.5504,-3.5504,-3.5504,-3.5504,-3.5504,-3.5504,-3.5504,-3.5504,-3.5504,-3.5504,-3.5522,-3.5995,-3.7327,-3.7398,-3.7508,-3.7764,-3.8068,-3.8205,-3.8205,-3.9053,-3.9542,-3.9542,-3.9901,-4.007,-4.007,-4.007,-4.007,-4.007,-4.007,-4.007,-2.568,-2.5554,-2.5378,-2.5303,-2.5303,-2.5303,-2.5303,-2.5302,-2.5291,-2.5303,-2.7269,-2.9006,-2.8997,-2.9004,-2.8997,-2.9007,-3.1123,-3.2385,-3.1341,-3.1188,-3.1201,-3.1213,-3.12,-3.1182,-3.1212,-3.3863,-3.546,-3.5155,-3.4864,-3.4708,-3.47,-3.0731,-2.9355,-3.1461,-3.0933,-3.0928,-3.1435,-3.4183,-3.5597,-3.5576,-3.5021,-3.3567,-3.1549,-3.3751,-3.4729,-3.4713,-3.4713,0.0,0.0,-3.2374,-3.1494,-3.1781,-3.4442,-3.5492,-3.5522,-3.5523,-3.589,-3.6487,-3.6485,-3.8059,-4.0076,-4.0084,-4.01,-4.0097,-4.0097,-4.0106,-3.9822,-3.8375,-3.7953,-3.796,-3.7838,-3.8795,-3.9589,-3.8674,-3.7468,-3.6599,-3.6651,-3.6075,-3.5504,-3.5504,-3.5504,-3.5504,-3.5504,-3.5504,-3.5504,-3.5504,-3.5504,-3.5504,-3.5504,-3.5504,-3.5504,-3.5504,-3.5488,-3.598,-3.723,-3.7916,-3.828,-3.8294,-3.8717,-3.892,-3.892,-3.9664,-4.007,-4.007,-4.007,-4.002,-3.9833,-4.002,-4.002,-3.985,-4.002,-4.007,-2.5636,-2.5673,-2.5595,-2.5369,-2.5303,-2.5303,-2.5303,-2.5297,-2.5304,-2.5286,-2.7265,-2.8987,-2.9016,-2.8989,-2.8997,-2.9016,-2.9251,-2.984,-3.1038,-3.122,-3.1189,-3.1183,-3.1211,-3.1199,-3.1196,-3.3851,-3.5043,-3.3693,-3.2513,-3.1897,-3.188,-3.1399,-3.1263,-3.1467,-2.9196,-2.9009,-3.1213,-3.4159,-3.5618,-3.5577,-3.307,-3.1742,-3.1502,-3.1736,-3.1874,-3.1892,-3.1892,0.0,0.0,-3.1607,-3.1497,-3.1792,-3.4468,-3.5521,-3.5508,-3.5525,-3.7245,-3.9657,-3.966,-3.9852,-4.0117,-4.0086,-4.007,-4.0104,-4.0104,-4.0113,-3.9901,-3.8816,-3.8504,-3.8396,-3.7902,-3.839,-3.8827,-3.8026,-3.7235,-3.643,-3.58,-3.5539,-3.5504,-3.5504,-3.5504,-3.5504,-3.5504,-3.5504,-3.5504,-3.5504,-3.5504,-3.5504,-3.5504,-3.5504,-3.5504,-3.5504,-3.5508,-3.5549,-3.5696,-3.8286,-3.9901,-3.9901,-3.9935,-3.9935,-3.9935,-4.007,-4.007,-4.007,-4.007,-3.9731,-3.9016,-3.9714,-3.9714,-3.9032,-3.9782,-4.007,-2.5619,-2.5703,-2.5644,-2.5367,-2.5303,-2.5303,-2.5303,-2.5311,-2.5164,-2.4738,-2.6965,-2.9007,-2.901,-2.8997,-2.9015,-2.8993,-2.8994,-2.9876,-3.2417,-3.1854,-3.1196,-3.1183,-2.9896,-2.9599,-3.1075,-3.0953,-3.0548,-2.9937,-2.9431,-2.9826,-3.1407,-3.1472,-3.1426,-3.1304,-3.0306,-3.0238,-3.1198,-3.4104,-3.4787,-3.3097,-3.2002,-3.1497,-3.1515,-3.149,-3.1475,-3.1515,-3.1515,0.0,0.0,-3.148,-3.3008,-3.5466,-3.7486,-3.8267,-3.8248,-3.8254,-3.9044,-4.0106,-4.0077,-4.0118,-4.0085,-4.0088,-4.007,-4.007,-4.007,-4.0121,-3.9999,-3.961,-3.9504,-3.9462,-3.9259,-3.8707,-3.8133,-3.7863,-3.6829,-3.6037,-3.6365,-3.5906,-3.5504,-3.5504,-3.5504,-3.5504,-3.5504,-3.5504,-3.5504,-3.5504,-3.5504,-3.5504,-3.5504,-3.5504,-3.5504,-3.5504,-3.5498,-3.626,-3.8136,-3.9371,-4.0101,-4.0121,-4.007,-4.007,-4.007,-4.007,-4.007,-4.007,-4.0118,-3.9937,-3.9636,-3.899,-3.9023,-3.9636,-3.9933,-4.007,-2.5526,-2.5637,-2.5634,-2.5367,-2.5303,-2.5293,-2.5293,-2.5301,-2.5138,-2.4631,-2.7138,-2.9323,-2.906,-2.9012,-2.9004,-2.899,-2.9365,-3.0441,-3.2722,-3.1983,-3.15,-3.2413,-2.9617,-2.8292,-2.9942,-2.8576,-2.7611,-2.7583,-2.7593,-2.8387,-3.0272,-3.0989,-3.1331,-3.121,-3.1199,-3.121,-3.1209,-3.33,-3.3421,-3.1528,-3.1481,-3.1511,-3.1482,-3.1482,-3.1482,-3.1524,-3.1489,0.0,0.0,-3.1485,-3.4265,-3.8576,-3.9649,-4.0089,-4.0074,-4.0113,-4.0091,-4.0077,-4.0104,-4.007,-4.007,-4.007,-4.007,-4.007,-4.007,-4.007,-4.007,-4.007,-3.9952,-3.9662,-3.9454,-3.843,-3.7472,-3.7519,-3.6523,-3.5699,-3.6381,-3.597,-3.5504,-3.5504,-3.5504,-3.5504,-3.5504,-3.5504,-3.5504,-3.5504,-3.5504,-3.5504,-3.5504,-3.5504,-3.5504,-3.5504,-3.5484,-3.6368,-3.8573,-3.9577,-4.0095,-4.0071,-4.007,-4.007,-4.007,-4.007,-4.0104,-4.0086,-4.0124,-3.9858,-3.9437,-3.8319,-3.8444,-3.9666,-3.9966,-4.007,-2.5299,-2.5498,-2.5632,-2.5369,-2.5312,-2.5311,-2.5311,-2.5298,-2.5298,-2.53,-2.8018,-3.0114,-2.917,-2.9012,-2.9004,-2.899,-3.0224,-3.1201,-3.1216,-3.1196,-3.2285,-3.5224,-3.0847,-2.7599,-2.7654,-2.7586,-2.761,-2.761,-2.7587,0.0,-2.7643,-2.9925,-3.1186,-3.1199,-3.1206,-3.1197,-3.1215,-3.1438,-3.1518,-3.1517,-3.1513,-3.1511,-3.1482,-3.1482,-3.1482,-3.1509,0.0,0.0,0.0,-3.1481,-3.492,-4.0058,-4.0093,-4.0104,-4.0097,-4.012,-4.0087,-4.0087,-4.007,-4.007,-4.007,-4.007,-4.007,-4.007,-4.007,-4.007,-4.007,-4.007,-3.9542,-3.8745,-3.8035,-3.7203,-3.6707,-3.6939,-3.6239,-3.5504,-3.5504,-3.5504,-3.5504,-3.5504,-3.5504,-3.5504,-3.5504,-3.5504,-3.5504,-3.5504,-3.5504,-3.5504,-3.5504,-3.5504,-3.5504,-3.5504,-3.5518,-3.5536,-3.5571,-3.8332,-4.0091,-4.0104,-4.007,-4.007,-4.007,-4.007,-4.0103,-4.0076,-4.0093,-3.9324,-3.7792,-3.7818,-3.8105,-3.864,-3.9637,-4.007,-2.5512,-2.5648,-2.5632,-2.5374,-2.5312,-2.5908,-2.824,-2.8797,-2.8119,-2.5777,-2.8023,-3.0113,-2.9165,-2.8997,-2.8999,-2.8994,-3.024,-3.1185,-3.1206,-3.2951,-3.3868,-3.2912,-3.1326,-2.9566,-2.7757,-2.7594,-2.7624,-2.761,-2.7616,-2.7578,-2.7593,-2.9896,-3.1175,-3.1205,-3.1213,-3.1199,-3.1214,-2.9611,-2.9716,-3.1494,-3.1505,-3.1489,-3.1482,-3.1482,-3.1482,0.0,0.0,0.0,0.0,-3.28,-3.4572,-3.7225,-3.8572,-3.9193,-3.9413,-3.9902,-4.007,-4.007,-4.007,-4.007,-4.007,-4.007,-4.007,-4.007,-4.007,-4.007,-4.002,-3.942,-3.8745,-3.7962,-3.7203,-3.6937,-3.6724,-3.6098,-3.5714,-3.5504,-3.5504,-3.5504,-3.5504,-3.5504,-3.5504,-3.5504,-3.5504,-3.5504,-3.5504,-3.5504,-3.5504,-3.5504,-3.5504,-3.5504,-3.5504,-3.5504,-3.5518,-3.5536,-3.5482,-3.8316,-4.0091,-4.0104,-4.007,-4.007,-4.007,-4.01,-4.0096,-4.012,-3.8036,-3.7229,-3.7786,-3.7778,-3.8443,-3.9621,-3.9969,-4.007,-2.5648,-2.5696,-2.563,-2.5369,-2.5292,-2.6194,-2.9621,-3.0398,-2.9806,-2.766,-2.8655,-2.9683,-2.9105,-2.9996,-3.0594,-2.9924,-3.0608,-3.1196,-3.1204,-3.3751,-3.4947,-3.324,-3.2108,-3.0861,-2.9252,-2.9996,-3.02,-2.9172,-2.8145,-2.7595,-2.7596,-2.9045,-2.9844,-2.9833,-2.9842,-3.0293,-3.1196,-2.8793,-2.8888,-3.1515,-3.1516,-3.164,-3.191,-3.1996,-3.2048,0.0,0.0,0.0,0.0,-3.4202,-3.5313,-3.6904,-3.7945,-3.8766,-3.9462,-3.9918,-4.007,-4.007,-4.007,-4.007,-4.007,-4.007,-4.007,-4.007,-4.007,-3.9901,-3.9489,-3.869,-3.801,-3.7298,-3.6415,-3.6304,-3.6303,-3.5634,-3.5504,-3.5504,-3.5504,-3.5504,-3.5504,-3.5504,-3.5504,-3.5504,-3.5504,-3.5504,-3.5504,-3.5504,-3.5504,-3.5504,-3.5504,-3.5504,-3.5504,-3.5504,-3.5522,-3.5973,-3.7118,-3.9011,-4.0091,-4.0104,-4.007,-4.007,-4.007,-4.0118,-4.0132,-4.0101,-3.8213,-3.7387,-3.7776,-3.8351,-3.9139,-4.007,-4.007,-4.007,0.0,-2.5682,-2.561,-2.5357,-2.548,-2.6493,-2.9683,-3.0343,0.0,-3.0294,-2.9626,-2.8983,-2.9005,-3.1647,-3.3168,-3.1186,-3.1058,-3.1196,-3.1208,-3.357,-3.5331,-3.5288,-3.3068,-3.1588,-3.1763,-3.3922,-3.4211,-3.1676,-2.9249,-2.7839,-2.7854,-2.77,-2.7596,-2.7605,-2.7612,-2.8699,-3.0927,-2.8904,-2.9071,-3.1489,-3.1554,-3.1966,-3.2602,-3.2819,-3.2955,0.0,0.0,0.0,0.0,-3.5576,-3.672,-3.8422,-3.8063,-3.8768,-4.0003,-4.0054,-4.007,-4.007,-4.007,-4.007,-4.007,-4.007,-4.007,-4.007,-4.007,-3.9609,-3.8843,-3.7994,-3.7389,-3.6708,-3.5714,-3.5504,-3.5504,-3.5504,-3.5504,-3.5504,-3.5504,-3.5504,-3.5504,-3.5504,-3.5504,-3.5504,-3.5504,-3.5474,-3.5524,-3.5504,-3.5474,-3.5524,-3.5504,-3.5474,-3.5509,-3.5509,-3.5476,-3.6769,-3.9838,-4.0106,-4.011,-4.0104,-4.007,-4.007,-4.007,-4.0104,-4.0068,-4.008,-4.0097,-3.938,-3.7863,-3.938,-4.0113,-4.007,-4.007,-4.007,-2.5393,0.0,-2.5373,-2.5316,-2.7279,-2.9421,0.0,-2.9851,-2.9336,-2.9326,-2.9153,-2.901,-2.9002,-3.1638,-3.2468,-2.8416,-2.9702,-3.1213,-3.1183,-3.1934,-3.2457,-3.2458,-3.1876,-3.2353,-3.443,-3.3306,-3.2144,-3.1348,-3.0681,-3.0336,-3.037,-2.8623,-2.7605,-2.7625,-2.7584,-2.7883,-2.8438,-2.9894,-3.0902,-3.1489,-3.2228,-3.2585,-3.2641,-3.3177,-3.3427,0.0,0.0,0.0,-3.4889,-3.54,-3.6236,-3.7253,-3.7706,-3.8464,-3.9326,-3.9868,-4.007,-4.007,-4.007,-4.007,-4.007,-4.007,-4.007,-4.007,-4.007,-3.9967,-3.9528,-3.8203,-3.686,-3.5778,-3.5569,-3.5504,-3.5504,-3.5504,-3.5504,-3.5504,-3.5504,-3.5504,-3.5504,-3.5504,-3.5504,-3.5504,-3.5504,-3.548,-3.5533,-3.5509,-3.5528,-3.5533,-3.5509,-3.5513,-3.5506,-3.5506,-3.5509,-3.6715,-3.982,-4.0129,-4.0104,-4.0087,-4.007,-4.007,-4.007,-4.0081,-4.0113,-4.0104,-4.0104,-3.952,-3.8417,-3.952,-4.0087,-4.007,-4.007,-4.007,-2.5206,-2.6451,-2.7637,-2.765,-2.8707,-2.9747,-2.9774,-2.9364,-2.8988,-2.9005,-2.8997,-2.9001,-2.9004,-3.1624,-3.2688,-2.9314,-3.0139,-3.1648,-3.3031,-3.3295,-3.2883,-3.1505,-3.2562,-3.3991,-3.5444,-3.4237,-3.276,-3.1291,-3.1194,-3.1204,-3.1207,-2.8919,-2.7607,-2.7595,-2.7625,-2.7625,-2.7625,-3.017,-3.1523,-3.157,-3.2477,-3.3128,-3.3547,-3.3887,-3.4252,0.0,0.0,0.0,-3.5098,-3.547,-3.6079,-3.6857,-3.7618,-3.8345,-3.9089,-3.9817,-4.007,-4.007,-4.007,-4.007,-4.007,-4.007,-4.007,-4.007,-4.007,-4.0091,-3.9771,-3.8203,-3.6662,-3.5504,-3.5504,-3.5504,-3.5504,-3.5504,-3.5504,-3.5504,-3.5504,-3.5504,-3.5504,-3.5504,-3.5504,-3.5494,-3.5495,-3.5506,-3.5508,-3.5523,-3.5507,-3.549,-3.5492,-3.5507,-3.6022,-3.7468,-3.7601,-3.8318,-3.9939,-4.0101,-4.007,-4.007,-4.007,-4.007,-4.007,-4.0085,-4.0101,-4.0087,-4.007,-3.9851,-3.9268,-3.9851,-4.007,-4.007,-4.007,-4.007,-2.4955,-2.7604,-3.0185,-3.0194,-2.96,-2.8987,-2.9,-2.8994,-2.8984,-2.8994,-2.8997,-2.8998,-2.8993,-3.1631,-3.3392,-3.2074,-3.1473,-3.2049,-3.4566,-3.5324,-3.4384,-3.1052,-3.3165,-3.4918,-3.4949,-3.4914,-3.3877,-3.1384,-3.1199,-3.1191,-3.1185,-2.891,-2.7627,-2.7595,-2.7625,-2.7625,-2.7625,-3.0061,-3.1396,-3.1624,-3.2551,-3.3555,-3.4576,-3.4688,-3.5052,-3.5622,0.0,0.0,-3.5622,-3.5622,-3.6146,-3.7009,-3.7652,-3.8413,-3.9225,-3.9851,-4.007,-4.007,-4.007,-4.007,-4.007,-4.007,-4.007,-4.007,-4.007,-4.0117,-3.983,-3.8521,-3.6904,-3.5522,-3.5522,-3.5522,-3.5522,-3.5522,-3.5522,-3.5522,-3.5522,-3.5522,-3.5522,-3.5522,-3.5522,-3.5498,-3.5523,-3.5491,-3.5486,-3.5498,-3.5912,-3.62,-3.6222,-3.6216,-3.7179,-3.983,-4.0111,-4.0084,-4.0084,-4.012,-4.0104,-4.0087,-4.0121,-4.007,-4.007,-4.007,-4.007,-4.007,-4.007,-4.0087,-4.0121,-4.0121,-4.0121,-4.0121,-4.0121,-4.0189,-2.4333,-2.6746,-2.9195,-2.9193,-2.9117,-2.9,-2.9001,-2.8989,-2.8994,-2.9003,-2.9013,-2.8999,-2.8995,-3.1638,-3.405,-3.4791,-3.2815,-3.1358,-3.1807,-3.404,-3.3728,-2.8756,-3.0385,-3.1883,-3.1892,-3.19,-3.1688,-3.1215,-3.1183,-3.1222,-3.1202,-2.8919,-2.7585,-2.761,-2.7625,-2.7625,-2.7625,-2.9486,-3.0814,-3.1624,-3.2895,-3.3903,-3.4624,-3.5207,-3.5515,-3.5622,0.0,-3.5622,-3.5622,-3.5622,-3.6451,-3.7736,-3.7872,-3.8717,-3.9918,-4.0037,-4.007,-4.007,-4.007,-4.007,-4.007,-4.007,-4.007,-4.007,-4.007,-4.0117,-4.0076,-3.9814,-3.7689,-3.5509,-3.5509,-3.5509,-3.5509,-3.5509,-3.5509,-3.5509,-3.5509,-3.5509,-3.5509,-3.5509,-3.5509,-3.5478,-3.5517,-3.5512,-3.5506,-3.5488,-3.7713,-3.9368,-3.9414,-3.9371,-3.9572,-4.0067,-4.0079,-4.0087,-4.0087,-4.0121,-4.0104,-4.0104,-4.0103,-4.007,-4.007,-4.007,-4.007,-4.007,-4.007,-4.0121,-4.0085,-4.0085,-4.0085,-4.0085,-4.0085,-4.0577,-2.526,-2.7195,-2.9421,-3.1154,-3.0296,-2.8996,-2.9008,-2.8998,-2.9007,-2.9009,-2.8346,-2.8252,-2.9867,-3.141,-3.3076,-3.526,-3.3119,-3.1182,-3.12,-3.1241,-3.0384,-2.7914,0.0,-2.9518,-3.0158,-3.0245,-3.0211,-3.0211,-3.0207,-2.9932,-2.9279,-2.8217,-2.7613,-2.761,-2.824,-2.8468,-2.8247,-2.9999,-3.1134,-3.1611,-3.2955,-3.4137,-3.5144,-3.547,-3.5622,-3.5622,0.0,-3.5622,-3.5622,-3.5622,-3.6282,-3.7347,-3.7736,-3.8565,-3.9529,-3.9935,-4.007,-4.007,-4.007,-4.0286,-4.0494,-4.0175,-4.0109,-4.0077,-4.0117,-4.0114,-4.0104,-4.0085,-3.9079,-3.8008,-3.8008,-3.8008,-3.8008,-3.8008,-3.8008,-3.8008,-3.8008,-3.8008,-3.8008,-3.8008,-3.8008,-3.7969,-3.7963,-3.7997,-3.7981,-3.8002,-3.9179,-4.0096,-4.0117,-4.0093,-4.0117,-4.0117,-4.0104,-4.007,-4.007,-4.012,-4.0098,-4.0117,-4.0084,-4.0124,-4.0104,-4.0085,-4.0101,-4.0087,-4.0087,-4.0882,-4.2517,-4.2515,-4.2549,-4.2479,-4.1711,-4.154,-2.5664,-2.7365,-2.9347,-3.18,-3.0957,-2.9526,-2.951,-2.9501,-2.9519,-2.9499,-2.8595,-2.8481,-3.0779,-3.1754,-3.2769,-3.4389,-3.27,-3.1188,-3.1191,-2.9617,-2.8228,-2.7658,-2.7604,-2.7962,-2.8883,-2.9473,-2.9704,-2.9422,-2.9146,-2.8684,-2.8074,-2.7758,-2.7671,-2.789,-2.885,-2.9233,-2.8936,-3.0482,-3.1422,-3.1851,-3.3209,-3.4447,-3.5622,-3.5622,-3.5622,-3.5622,-3.5622,-3.5622,-3.5622,-3.5622,-3.618,-3.7094,-3.7686,-3.8464,-3.9326,-3.9868,-4.0154,-4.0286,-4.0286,-4.0672,-4.1035,-4.0746,-4.0639,-4.0629,-4.0544,-4.0296,-4.0105,-4.0085,-4.0107,-4.012,-4.012,-4.012,-4.012,-4.012,-4.012,-4.012,-4.012,-4.012,-4.012,-4.012,-4.012,-4.01,-4.0084,-4.0071,-4.0113,-4.0088,-4.007,-4.007,-4.007,-4.007,-4.007,-4.007,-4.007,-4.007,-4.007,-3.9435,-3.9043,-3.8992,-3.9682,-3.9785,-3.9057,-3.9718,-4.0447,-4.1138,-4.1137,-4.2277,-4.4611,-4.4573,-4.4485,-4.4243,-4.302,-4.2523,-2.4169,-2.6139,-2.8031,-2.8284,-2.9692,-3.1029,-3.1052,-3.1039,-3.1039,-3.1054,-3.0958,-3.0958,-3.1185,-3.3451,-3.4528,-3.217,-3.1474,-3.1215,-3.1199,-3.1032,-3.0098,-2.7859,-2.7596,-2.7626,-2.7702,-2.9779,-3.0587,-2.9454,-2.8358,0.0,-2.9217,-2.8195,-2.7925,-2.8682,-2.9138,-2.9375,-2.9377,-3.0112,-3.1126,-3.2467,-3.3853,-3.4894,-3.5622,-3.5622,-3.5622,-3.5622,-3.5622,-3.5622,-3.5622,-3.5622,-3.6485,-3.7838,-3.7889,-3.8768,-4.0003,-4.0054,-4.0417,-4.0856,-4.0856,-4.1223,-4.1803,-4.2129,-4.2225,-4.2139,-4.1782,-4.0938,-4.0105,-4.0085,-4.0071,-4.0087,-4.0087,-4.0087,-4.0087,-4.0087,-4.0087,-4.0087,-4.0087,-4.0087,-4.0087,-4.0087,-4.0087,-4.0121,-4.0088,-4.0071,-4.0121,-4.0087,-4.007,-4.007,-4.007,-4.007,-4.007,-4.007,-4.007,-4.007,-4.007,-3.7502,-3.5845,-3.5841,-3.8515,-3.8829,-3.5959,-3.8553,-4.1396,-4.4216,-4.4268,-4.4369,-4.4613,-4.463,-4.4109,-4.3196,-4.3111,-4.3145,-2.4426,-2.5997,-2.7451,-2.7613,-2.875,-2.9839,-2.9851,-3.0542,-3.0992,-3.0217,-3.0692,-3.1202,-3.1207,-3.2109,-3.2521,-3.1483,-3.1257,-3.1189,-3.1207,-2.9903,-2.864,-2.7718,-2.7603,-2.7613,-2.7584,-2.8455,-2.8757,-2.8319,0.0,0.0,-2.8981,-2.8568,-2.8729,-2.9497,-3.019,-3.0359,-2.9935,-3.1044,-3.2091,-3.3091,-3.3657,-3.4526,-3.5622,-3.5622,-3.5622,-3.5622,-3.5622,-3.5622,-3.5622,-3.5622,-3.6518,-3.8038,-3.9268,-4.0126,-4.0655,-4.103,-4.1286,-4.1446,-4.1446,-4.1853,-4.2342,-4.2378,-4.2727,-4.2933,-4.2041,-4.1323,-4.068,-4.0234,-4.007,-4.007,-4.007,-4.007,-4.007,-4.007,-4.007,-4.007,-4.007,-4.007,-4.007,-4.007,-4.007,-4.007,-4.007,-4.007,-4.007,-4.007,-4.007,-4.007,-4.007,-4.007,-4.007,-4.007,-4.007,-4.0104,-4.0096,-3.9053,-3.8363,-3.8384,-3.7673,-3.756,-3.833,-3.9471,-4.1543,-4.4544,-4.4592,-4.4619,-4.4593,-4.4601,-4.4389,-4.4045,-4.4045,-4.4079,-2.4846,-2.6015,-2.7094,-2.7484,-2.8201,-2.8888,-2.9272,-3.001,-3.051,-3.0046,-3.0637,-3.1185,-3.12,-3.1224,-3.1199,-3.1187,-3.1183,-3.0922,-3.0162,-2.863,-2.7611,-2.7601,-2.761,-2.7625,-2.7625,-2.7625,-2.7625,-2.7625,0.0,0.0,0.0,-2.9014,-2.945,-3.0097,-3.0803,-3.0991,-3.0576,-3.1503,-3.2425,-3.3406,-3.3445,-3.4225,-3.5622,-3.5622,-3.5622,-3.5622,-3.5622,-3.5757,-3.5994,-3.5994,-3.6949,-3.8645,-4.025,-4.1041,-4.1206,-4.1664,-4.1937,-4.2062,-4.2062,-4.2462,-4.2921,-4.2794,-4.3087,-4.3286,-4.2144,-4.1609,-4.1209,-4.0317,-4.007,-4.007,-4.007,-4.007,-4.007,-4.007,-4.007,-4.007,-4.007,-4.007,-4.007,-4.007,-4.007,-4.007,-4.007,-4.007,-4.007,-4.007,-4.007,-4.007,-4.007,-4.007,-4.007,-4.007,-4.007,-4.0121,-4.0093,-4.0127,-4.0117,-4.0084,-3.8107,-3.7899,-3.9998,-4.0109,-4.1498,-4.4559,-4.4582,-4.4627,-4.4623,-4.4575,-4.4587,-4.4587,-4.4587,-4.4587,-2.5202,-2.6074,-2.6969,-2.7617,-2.8093,-2.8714,-2.9827,-2.9721,-2.9739,-3.096,-3.119,-3.119,-3.119,-3.119,-3.119,-3.119,-3.119,-3.0342,-2.7924,-2.7606,-2.7582,-2.762,-2.7625,-2.7625,-2.7625,-2.7625,-2.7625,0.0,0.0,0.0,0.0,-2.9559,-3.0097,-3.0309,-3.0891,-3.1215,-3.119,-3.119,-3.1935,-3.3406,-3.3406,-3.4184,-3.5622,-3.5622,-3.5622,-3.5622,-3.5622,-3.6062,-3.6772,-3.6835,-3.802,-3.9863,-4.0608,-4.1268,-4.181,-4.1793,-4.2203,-4.2711,-4.2711,-4.3069,-4.3497,-4.3497,-4.3497,-4.3286,-4.2144,-4.181,-4.1534,-4.0434,-4.007,-4.007,-4.007,-4.007,-4.007,-4.007,-4.007,-4.007,-4.007,-4.007,-4.007,-4.007,-4.007,-4.007,-4.007,-4.007,-4.007,-4.007,-4.007,-4.007,-4.007,-4.007,-4.007,-4.007,-4.007,-4.007,-4.007,-4.007,-4.0087,-4.0087,-4.012,-4.0074,-4.0122,-4.01,-4.1538,-4.4558,-4.4593,-4.4567,-4.4587,-4.4587,-4.4587,-4.4587,-4.4587,-4.4587,-2.5056,-2.5839,-2.6803,-2.7325,-2.8508,-2.968,-3.0006,-2.9993,-3.0118,-3.0999,-3.0878,-3.0699,-3.1112,-3.119,-3.119,-3.119,-2.9772,-2.8735,-2.8825,-2.8154,-2.7575,-2.76,-2.7625,-2.7625,-2.7625,-2.7625,0.0,0.0,0.0,0.0,0.0,-3.0092,-3.0434,-3.0918,-3.1093,-3.119,-3.119,-3.119,-3.1935,-3.3406,-3.3406,-3.4184,-3.5622,-3.5622,-3.5622,-3.5622,-3.5622,-3.6062,-3.6903,-3.8351,-3.9278,-3.9954,-4.1552,-4.2262,-4.248,-4.2865,-4.3124,-4.325,-4.325,-4.3375,-4.3497,-4.3497,-4.3497,-4.3449,-4.3095,-4.2452,-4.1534,-4.0434,-4.007,-4.007,-4.007,-4.007,-4.007,-4.007,-4.007,-4.007,-4.007,-4.007,-4.007,-4.007,-4.007,-4.007,-4.007,-4.007,-4.007,-4.007,-4.007,-4.007,-4.007,-4.007,-4.007,-4.007,-4.007,-4.007,-4.007,-4.0104,-4.0086,-4.0086,-4.0098,-4.011,-4.0127,-4.2156,-4.3711,-4.4575,-4.4601,-4.4575,-4.4587,-4.4587,-4.4587,-4.4587,-4.4587,-4.4587,-2.6266,-2.6985,-2.7915,-2.8456,-2.9472,-3.035,-3.0501,-3.0548,-3.0588,-3.0794,-3.074,-3.0781,-3.1151,-3.119,-3.1095,-3.0771,-2.9486,-2.8576,-2.8681,-2.8264,-2.788,-2.7645,-2.7625,-2.7625,-2.7625,-2.7625,0.0,0.0,0.0,0.0,0.0,-2.9935,-3.0208,-3.0821,-3.0617,-3.0699,-3.119,-3.1244,-3.1984,-3.3406,-3.3694,-3.4472,-3.5622,-3.5622,-3.5622,-3.5656,-3.6265,-3.6893,-3.7706,-3.9502,-4.0498,-4.1071,-4.2243,-4.2826,-4.305,-4.3375,-4.3497,-4.3497,-4.3497,-4.3497,-4.3497,-4.3497,-4.3497,-4.3503,-4.352,-4.2692,-4.1542,-4.0418,-4.0118,-4.007,-4.007,-4.007,-4.007,-4.007,-4.007,-4.007,-4.007,-4.007,-4.007,-4.007,-4.007,-4.007,-4.007,-4.007,-4.007,-4.007,-4.0087,-4.0103,-4.0104,-4.0104,-4.0086,-4.0104,-4.0104,-4.0104,-4.0104,-4.0118,-4.0606,-4.1814,-4.1893,-4.189,-4.1895,-4.3634,-4.4572,-4.4584,-4.4575,-4.4587,-4.4587,-4.4587,-4.4587,-4.4587,-4.4587,-4.4587,-2.816,-2.8829,-2.9565,-3.0402,-3.0628,-3.0743,-3.1138,-3.119,-3.1055,-3.0477,-3.0838,-3.119,-3.1151,-3.1095,-3.0828,-3.0086,-2.9852,-2.9279,-2.7874,-2.8104,-2.8222,-2.7675,-2.7625,-2.7625,-2.7625,0.0,0.0,0.0,0.0,0.0,0.0,-2.9406,-2.9629,-3.0208,-2.9673,-2.9951,-3.1015,-3.1207,-3.1981,0.0,-3.4023,-3.4827,-3.5622,-3.5622,-3.5622,-3.569,-3.7208,-3.8174,-3.8799,-4.0329,-4.1637,-4.2693,-4.2732,-4.305,-4.3497,-4.3497,-4.3497,-4.3497,-4.3497,-4.3497,-4.3497,-4.3497,-4.3497,-4.3501,-4.3483,-4.2683,-4.1576,-4.0429,-4.0124,-4.007,-4.007,-4.007,-4.0054,-3.9902,-3.9986,-4.007,-4.007,-4.007,-4.007,-4.007,-4.007,-4.007,-4.007,-4.007,-4.007,-4.007,-4.0098,-3.999,-3.9699,-3.9929,-4.0091,-4.0121,-4.0085,-4.0234,-4.0505,-4.0531,-4.1685,-4.4416,-4.4616,-4.4627,-4.4627,-4.4627,-4.4584,-4.457,-4.4587,-4.4587,-4.4587,-4.4587,-4.4587,-4.4587,-4.4587,-4.4587,-2.7806,-2.783,-2.8188,-3.011,-3.0842,-3.1087,-3.1196,-3.119,-3.1151,-3.1015,-3.1112,-3.1055,-3.0559,-3.0336,-3.0119,-2.9625,-2.8742,-2.814,-2.8309,-2.7997,-2.776,-2.7625,-2.7625,-2.7625,-2.7625,0.0,0.0,0.0,0.0,0.0,-2.9361,-2.9406,-2.9451,-2.9585,-2.9451,-2.954,-2.9761,-3.0271,-3.1269,0.0,-3.3328,-3.4336,-3.5622,-3.5622,-3.5622,-3.5656,-3.7031,-3.8,-3.8834,-4.0588,-4.183,-4.275,-4.3178,-4.341,-4.3497,-4.3497,-4.3497,-4.3497,-4.3497,-4.3497,-4.3497,-4.3497,-4.3497,-4.3501,-4.3483,-4.2683,-4.1576,-4.0429,-4.0124,-4.007,-4.007,-4.007,-3.98,-3.8573,-3.9206,-4.007,-4.007,-4.007,-4.007,-4.007,-4.007,-4.007,-4.007,-4.007,-4.007,-4.007,-4.0121,-3.9244,-3.6803,-3.8605,-4.0117,-4.0105,-4.0095,-4.1039,-4.3446,-4.3652,-4.39,-4.4579,-4.4584,-4.4575,-4.4575,-4.4575,-4.4592,-4.4587,-4.4587,-4.4587,-4.4587,-4.4587,-4.4587,-4.4587,-4.4587,-4.4587,-2.8074,-2.8246,-2.8713,-3.0465,-3.0622,-3.0435,-3.0699,-3.0576,-3.0335,-3.0335,-3.0559,-3.0658,-3.0351,-2.9972,-2.9548,-2.9042,-2.842,-2.8056,-2.8061,-2.781,-2.7625,-2.7625,-2.7625,-2.7625,0.0,0.0,0.0,0.0,0.0,-2.8319,-2.8919,-2.8685,-2.867,-2.895,-2.8685,-2.881,-2.9406,-3.0041,-3.1127,-3.2496,-3.347,-3.4523,-3.5622,-3.5622,-3.5622,-3.5656,-3.6973,-3.8111,-3.9258,-4.0766,-4.2067,-4.3087,-4.341,-4.3497,-4.3497,-4.3497,-4.3497,-4.3497,-4.3497,-4.3497,-4.3497,-4.3497,-4.3497,-4.341,-4.2846,-4.2284,-4.1576,-4.0429,-4.0124,-4.007,-4.007,-4.007,-3.9716,-3.8159,-3.8401,-3.9218,-3.9947,-4.0091,-4.0117,-4.0117,-4.0087,-4.007,-4.007,-4.007,-4.007,-4.007,-4.012,-3.9543,-3.7917,-3.9106,-4.0106,-4.009,-3.9901,-4.1096,-4.4315,-4.4624,-4.4624,-4.4597,-4.4575,-4.4587,-4.4587,-4.4587,-4.4587,-4.4587,-4.4587,-4.4587,-4.4587,-4.4587,-4.4587,-4.4587,-4.4587,-4.4587,-2.8108,-2.8825,-2.9708,-3.0645,-3.0208,-2.9673,-3.0064,-2.9761,-2.9406,-2.9406,-2.9805,-3.0123,-3.0038,-2.9585,-2.9058,-2.8463,-2.8319,-2.8189,-2.7675,-2.7625,-2.7625,-2.7625,-2.7625,-2.7625,0.0,0.0,0.0,0.0,0.0,-2.781,-2.8319,-2.786,-2.781,-2.8334,-2.7944,-2.8222,-2.9225,-3.0057,-3.1131,-3.2512,-3.399,-3.5013,-3.5622,-3.5622,-3.5667,-3.5817,-3.6947,-3.8251,-3.9626,-4.0833,-4.2122,-4.3296,-4.3442,-4.3497,-4.3497,-4.3497,-4.3497,-4.3497,-4.3497,-4.3497,-4.3497,-4.3497,-4.3497,-4.3283,-4.2136,-4.181,-4.1576,-4.0429,-4.0124,-4.007,-4.007,-4.007,-3.9732,-3.8166,-3.778,-3.8089,-3.9113,-3.929,-3.9466,-4.0026,-4.0085,-4.0119,-4.0104,-4.0103,-4.0119,-4.0121,-4.0098,-4.0087,-4.01,-4.0535,-4.0645,-4.0031,-3.962,-4.0716,-4.3876,-4.4257,-4.4354,-4.4604,-4.4587,-4.4587,-4.4587,-4.4587,-4.4587,-4.4587,-4.4587,-4.4587,-4.4587,-4.4587,-4.4587,-4.4587,-4.4587,-4.4587,-2.6618,-2.7951,-2.9376,-2.9594,-2.9892,-3.0064,-2.9629,-2.9451,-2.9406,-2.9406,-2.9451,-2.9361,-2.8826,-2.8685,-2.8415,-2.781,-2.771,-2.766,-2.761,-2.7625,-2.7625,-2.7625,-2.7625,-2.7625,0.0,0.0,0.0,0.0,-2.7675,-2.7625,-2.7725,-2.761,-2.7625,-2.771,-2.814,-2.8463,-2.8606,-2.977,-3.1073,-3.2512,-3.451,-3.552,-3.5622,-3.5622,-3.5854,-3.635,-3.697,-3.7984,-3.9247,-4.0589,-4.165,-4.2525,-4.3222,-4.3497,-4.3497,-4.3497,-4.3497,-4.3497,-4.3497,-4.3497,-4.3497,-4.3497,-4.3497,-4.3283,-4.2136,-4.181,-4.1576,-4.0429,-4.0124,-4.007,-4.007,-4.007,-3.9714,-3.8181,-3.7825,-3.7518,-3.639,-3.6087,-3.6907,-3.9549,-4.0104,-4.01,-4.0103,-4.0092,-4.01,-4.0103,-4.0086,-4.0117,-4.0083,-4.239,-4.2842,-3.9843,-3.9439,-4.0229,-4.2204,-4.2766,-4.3518,-4.453,-4.4587,-4.4587,-4.4587,-4.4587,-4.4587,-4.4587,-4.4587,-4.4587,-4.4587,-4.4587,-4.4587,-4.4587,-4.4587,-4.4587,-2.6671,-2.7311,-2.8023,-2.9141,-2.9088,-2.881,-2.8873,-2.8638,-2.84,-2.84,-2.84,-2.84,-2.8511,-2.8238,-2.791,-2.761,-2.7625,-2.7625,-2.7625,-2.7625,-2.7625,-2.7625,-2.7625,-2.7625,0.0,0.0,0.0,0.0,-2.7625,-2.7625,-2.7625,-2.7625,-2.7625,-2.7625,-2.8189,-2.8511,-2.8511,-3.0105,-3.1845,-3.3634,-3.4964,-3.5739,-3.6054,-3.6054,-3.6182,-3.6416,-3.696,-3.7898,-3.9209,-4.0562,-4.1589,-4.2378,-4.3185,-4.3497,-4.3497,-4.3497,-4.3497,-4.3497,-4.3497,-4.3497,-4.3497,-4.3497,-4.3497,-4.3373,-4.2555,-4.2083,-4.1629,-4.077,-4.0343,-4.007,-4.007,-4.007,-3.9765,-3.8553,-3.8244,-3.7745,-3.5912,-3.5477,-3.6419,-3.948,-4.0117,-4.0533,-4.1799,-4.0949,-4.0105,-4.0112,-4.0088,-4.0709,-4.2388,-4.3775,-4.3997,-4.2472,-4.2328,-4.2636,-4.3382,-4.3686,-4.4015,-4.4547,-4.4587,-4.4587,-4.4587,-4.4587,-4.4587,-4.4587,-4.4587,-4.4587,-4.4587,-4.4587,-4.4587,-4.4587,-4.4587,-4.4587,-2.6614,-2.6779,-2.6903,-2.8523,-2.8232,-2.7682,-2.8143,-2.7894,-2.7625,-2.7625,-2.7625,-2.771,-2.8189,-2.791,-2.7625,-2.7625,-2.7625,-2.7625,-2.7625,-2.7625,-2.7625,-2.7625,-2.7625,0.0,0.0,0.0,0.0,0.0,-2.7625,-2.7625,-2.7625,-2.776,-2.781,-2.781,-2.8746,-2.9264,-2.9264,-3.1226,-3.2971,-3.4506,-3.5382,-3.6011,-3.6416,-3.6539,-3.6684,-3.6786,-3.721,-3.8098,-3.9418,-4.0595,-4.1589,-4.2378,-4.3185,-4.3497,-4.3497,-4.3497,-4.3497,-4.3497,-4.3497,-4.3497,-4.3497,-4.3497,-4.3497,-4.341,-4.2864,-4.24,-4.1895,-4.1313,-4.0784,-4.0387,-4.0387,-4.0238,-3.9901,-3.9135,-3.8966,-3.836,-3.5999,-3.5522,-3.6578,-4.022,-4.0963,-4.1505,-4.3202,-4.2062,-4.0776,-4.0168,-4.0781,-4.2033,-4.4337,-4.4592,-4.4616,-4.4637,-4.4591,-4.4611,-4.4583,-4.4401,-4.4356,-4.4604,-4.4587,-4.4587,-4.4587,-4.4587,-4.4587,-4.4587,-4.4587,-4.4587,-4.4587,-4.4587,-4.4587,-4.4587,-4.4587,-4.4587,-2.5735,-2.631,-2.6522,-2.7285,-2.7519,-2.755,-2.761,-2.7625,-2.7625,-2.7625,-2.7625,-2.7625,-2.7625,-2.7625,-2.7625,-2.7625,-2.7625,-2.7625,-2.7625,-2.7625,-2.7625,-2.7625,-2.7625,0.0,0.0,0.0,0.0,0.0,-2.7625,-2.7625,-2.7625,-2.814,-2.8463,-2.8463,-3.0258,-3.1254,-3.1254,-3.3309,-3.4404,-3.4506,-3.5778,-3.6374,-3.6416,-3.6921,-3.7396,-3.7825,-3.7859,-3.8619,-3.9905,-4.0781,-4.1589,-4.2378,-4.3185,-4.3497,-4.3497,-4.3497,-4.3497,-4.3497,-4.3497,-4.3497,-4.3497,-4.3497,-4.3497,-4.341,-4.2864,-4.2655,-4.2537,-4.1937,-4.1463,-4.1128,-4.1128,-4.06,-4.0087,-4.0034,-4.0014,-3.9194,-3.6156,-3.5511,-3.7052,-4.23,-4.3319,-4.3354,-4.3507,-4.3398,-4.2608,-4.0449,-4.2535,-4.4451,-4.4558,-4.4597,-4.4579,-4.4604,-4.4627,-4.4566,-4.461,-4.3806,-4.373,-4.457,-4.4587,-4.4587,-4.4587,-4.4587,-4.4587,-4.4587,-4.4587,-4.4587,-4.4587,-4.4587,-4.4587,-4.4587,-4.4587,-4.4587,-2.5767,-2.623,-2.6413,-2.7115,-2.7373,-2.7442,-2.7485,-2.7542,-2.7625,-2.7625,-2.7625,-2.7625,-2.7625,-2.7625,-2.7625,-2.7625,-2.7625,-2.7625,-2.7625,-2.7625,-2.779,-2.8173,-2.8233,0.0,0.0,0.0,0.0,0.0,0.0,-2.8764,-2.8764,-2.895,-2.9294,-2.9768,-3.0847,-3.2027,-3.3403,-3.4482,-3.5246,-3.5727,-3.6544,-3.7058,-3.7379,-3.7578,-3.7929,-3.8451,-3.8962,-3.9461,-3.9987,-4.1003,-4.189,-4.2687,-4.3521,-4.3836,-4.3804,-4.3563,-4.3497,-4.3497,-4.3497,-4.3497,-4.3497,-4.3497,-4.3497,-4.3444,-4.325,-4.3213,-4.3183,-4.2951,-4.2448,-4.1833,-4.1323,-4.1208,-4.1,-4.0262,-4.1198,-4.1963,-4.0858,-4.0637,-4.122,-4.3122,-4.3502,-4.3506,-4.3483,-4.3876,-4.3935,-4.308,-4.3889,-4.4613,-4.458,-4.4592,-4.4598,-4.463,-4.4589,-4.4589,-4.4589,-4.3813,-4.368,-4.457,-4.408,-4.4006,-4.457,-4.4587,-4.4587,-4.4587,-4.4587,-4.4587,-4.4587,-4.4587,-4.4587,-4.4587,-4.4587,-4.4587,-2.6005,-2.6254,-2.6341,-2.7292,-2.7103,-2.6886,-2.7628,-2.7507,-2.7355,-2.7565,-2.7625,-2.766,-2.786,-2.791,-2.786,-2.7625,-2.7769,-2.8006,-2.8228,-2.8475,-2.888,-2.9526,-2.9587,0.0,0.0,0.0,0.0,0.0,0.0,0.0,-3.0156,-3.0113,-3.0486,-3.1455,-3.2089,-3.3302,-3.513,-3.549,-3.5995,-3.6684,-3.7173,-3.7614,-3.7911,-3.8099,-3.8382,-3.8726,-3.9263,-3.9795,-4.0391,-4.141,-4.24,-4.3234,-4.3658,-4.3931,-4.4011,-4.3631,-4.3497,-4.3497,-4.3497,-4.3497,-4.3497,-4.3497,-4.3497,-4.3497,-4.3497,-4.3505,-4.3505,-4.3505,-4.3141,-4.265,-4.2121,-4.2157,-4.2161,-4.1422,-4.2593,-4.3894,-4.3853,-4.367,-4.3505,-4.3505,-4.3501,-4.349,-4.3488,-4.4106,-4.46,-4.4595,-4.4613,-4.4606,-4.4609,-4.4587,-4.4587,-4.4587,-4.4587,-4.4587,-4.4587,-4.3814,-4.3562,-4.4138,-4.3366,-4.3229,-4.4138,-4.4138,-4.4327,-4.457,-4.4587,-4.4587,-4.4587,-4.4587,-4.4587,-4.4587,-4.4587,-4.444,0.0,0.0,0.0,-2.7723,-2.675,-2.597,-2.8,-2.7494,-2.6831,-2.749,-2.7625,-2.776,-2.8383,-2.8463,-2.8334,-2.774,-2.821,-2.8873,-2.9552,-3.0242,-3.0864,-3.1566,-3.1614,0.0,0.0,0.0,0.0,0.0,-3.1646,-3.163,-3.163,-3.1553,-3.2064,-3.3364,-3.415,-3.5147,-3.6374,-3.6416,-3.6684,-3.7228,-3.7685,-3.7928,-3.7946,-3.8465,-3.8707,-3.8707,-3.8742,-3.9658,-4.1167,-4.1937,-4.2936,-4.3937,-4.3664,-4.3837,-4.4153,-4.3667,-4.3497,-4.3497,-4.3497,-4.3497,-4.3497,-4.3497,-4.3497,-4.3497,-4.3497,-4.3497,-4.3497,-4.3497,-4.3506,-4.3478,-4.3478,-4.3508,-4.3477,-4.3508,-4.4072,-4.458,-4.4631,-4.4101,-4.3637,-4.355,-4.3536,-4.3569,-4.3539,-4.4139,-4.4635,-4.4611,-4.4577,-4.4606,-4.4609,-4.4587,-4.4587,-4.4587,-4.4587,-4.4587,-4.4587,-4.3756,-4.3246,-4.3306,-4.2458,-4.2395,-4.3246,-4.3306,-4.3756,-4.457,-4.4587,-4.4587,-4.4587,-4.4587,-4.4587,-4.4587,-4.4587,-4.4121,-2.6455,0.0,0.0,0.0,0.0,0.0,-2.7391,-2.7347,-2.7267,-2.7525,-2.7625,-2.766,-2.781,-2.8189,-2.8618,-2.8999,-2.9574,-3.0022,-3.0243,-3.0847,-3.1581,-3.2239,-3.2303,0.0,0.0,0.0,0.0,0.0,-3.2928,-3.2884,-3.2884,-3.3359,-3.3818,-3.4184,-3.4912,-3.565,-3.6374,-3.6803,-3.721,-3.772,-3.8234,-3.8465,-3.8496,-3.8627,-3.8707,-3.8762,-3.9923,-4.0694,-4.1111,-4.1348,-4.2291,-4.3744,-4.4662,-4.4786,-4.4426,-4.3723,-4.3497,-4.3497,-4.3497,-4.3497,-4.3497,-4.3497,-4.3497,-4.3497,-4.3497,-4.3497,-4.3497,-4.3497,-4.3501,-4.3487,-4.3487,-4.3488,-4.3597,-4.3937,-4.4151,-4.45,-4.5171,-4.6131,-4.6323,-4.4631,-4.4792,-4.4953,-4.4038,-4.4739,-4.5264,-4.4696,-4.4605,-4.4575,-4.457,-4.4587,-4.4587,-4.4587,-4.4587,-4.4587,-4.4587,-4.3229,-4.2645,-4.3246,-4.2458,-4.2395,-4.3246,-4.3889,-4.4327,-4.4587,-4.4587,-4.4587,-4.4587,-4.4587,-4.4587,-4.4587,-4.4587,-4.4121,-2.6674,-2.6911,-2.7165,-2.7165,0.0,0.0,-2.756,-2.7319,-2.7103,-2.7515,-2.7625,-2.7675,-2.7944,-2.8286,-2.8919,-3.0132,-3.0903,-3.144,-3.1732,-3.2658,-3.3551,-3.4299,-3.4611,0.0,0.0,-3.5363,-3.5188,-3.4918,-3.4852,-3.4539,-3.3897,-3.4556,-3.481,-3.4506,-3.5419,-3.6165,-3.6724,-3.7248,-3.7738,-3.8234,-3.8546,-3.8707,-3.8707,-3.8707,-3.8707,-3.8781,-4.0162,-4.1005,-4.1456,-4.1926,-4.2743,-4.38,-4.4469,-4.4594,-4.4339,-4.3723,-4.3497,-4.3497,-4.3497,-4.3497,-4.3497,-4.3497,-4.3497,-4.3497,-4.3497,-4.3497,-4.3497,-4.3497,-4.3497,-4.3497,-4.3497,-4.3597,-4.3758,-4.4048,-4.4355,-4.4723,-4.5274,-4.6549,-4.7198,-4.5854,-4.5765,-4.5714,-4.5106,-4.5446,-4.551,-4.4698,-4.4593,-4.4587,-4.4587,-4.4587,-4.4587,-4.4587,-4.4587,-4.4587,-4.4587,-4.335,-4.2785,-4.3246,-4.2458,-4.2395,-4.3246,-4.3814,-4.4253,-4.457,-4.4587,-4.4587,-4.4587,-4.4587,-4.4587,-4.4587,-4.4587,-4.4327,-2.7165,-2.7435,-2.7891,-2.7806,-2.7501,0.0,-2.7939,-2.7221,-2.6596,-2.7244,-2.746,-2.7655,-2.8163,-2.8417,-2.914,-3.0997,-3.1973,-3.2788,-3.3607,-3.4918,-3.6072,-3.6726,-3.7449,0.0,-3.7905,-3.7905,-3.7635,-3.6958,-3.6823,-3.6146,-3.4692,-3.525,-3.5318,-3.4711,-3.5821,-3.6684,-3.7285,-3.7685,-3.8165,-3.8732,-3.8732,-3.8732,-3.8732,-3.8732,-3.8719,-3.8762,-3.991,-4.0932,-4.1893,-4.3036,-4.3679,-4.3893,-4.3631,-4.3767,-4.4073,-4.3667,-4.3497,-4.3497,-4.3497,-4.3497,-4.3497,-4.3497,-4.3497,-4.3497,-4.3497,-4.3497,-4.3497,-4.3497,-4.3497,-4.3497,-4.3497,-4.3758,-4.4016,-4.4076,-4.4612,-4.5096,-4.5159,-4.6108,-4.6966,-4.7003,-4.6542,-4.6184,-4.6252,-4.6049,-4.5602,-4.4722,-4.4597,-4.4587,-4.4587,-4.4587,-4.4587,-4.4587,-4.4587,-4.4587,-4.4587,-4.3814,-4.3306,-4.3306,-4.2583,-4.252,-4.3246,-4.3366,-4.3814,-4.457,-4.4587,-4.4587,-4.4587,-4.4587,-4.4587,-4.4587,-4.4587,-4.4587,-2.8659,-2.8636,-2.8602,-2.7977,-2.7848,0.0,-2.6832,-2.6502,-2.6319,-2.6023,-2.6422,-2.6831,-2.6962,-2.7821,-2.8951,-3.0456,-3.1687,-3.294,-3.4135,-3.5655,-3.6662,-3.6772,0.0,0.0,-3.7905,-3.7905,-3.7838,-3.7702,-3.7127,-3.6383,-3.5453,-3.5537,-3.5742,-3.6,-3.6264,-3.6825,-3.7755,-3.7859,-3.8273,-3.9008,-3.9008,-3.9008,-3.9008,-3.9008,-3.8894,-3.8781,-4.029,-4.1042,-4.1368,-4.2873,-4.3548,-4.3597,-4.3513,-4.3566,-4.3634,-4.3513,-4.3497,-4.3497,-4.3497,-4.3497,-4.3497,-4.3497,-4.3497,-4.3497,-4.3497,-4.3497,-4.3497,-4.3497,-4.3497,-4.3497,-4.3497,-4.3814,-4.4218,-4.4438,-4.4781,-4.5161,-4.5438,-4.649,-4.7315,-4.7042,-4.7401,-4.7247,-4.5712,-4.5899,-4.5891,-4.4763,-4.4609,-4.4587,-4.4587,-4.4587,-4.4587,-4.4587,-4.4587,-4.4587,-4.4587,-4.3814,-4.3306,-4.3306,-4.3108,-4.3108,-4.3306,-4.3948,-4.444,-4.4587,-4.4587,-4.4587,-4.4587,-4.4587,-4.4587,-4.4587,-4.4587,-4.4587,-2.9149,-2.9026,-2.892,-2.8131,-2.8096,0.0,0.0,-2.6863,-2.6842,-2.6657,-2.6587,-2.6774,-2.743,-2.7811,-2.8622,-3.0619,-3.1511,-3.2436,-3.3743,-3.591,-3.7347,-3.7347,0.0,0.0,-3.8988,-3.8988,-3.8836,-3.8481,-3.7415,-3.6603,-3.6214,-3.6076,-3.6139,-3.6374,-3.6904,-3.7379,-3.7911,-3.8183,-3.856,-3.9099,-3.8943,-3.8971,-3.9099,-3.8961,-3.8815,-3.8781,-3.9974,-4.0744,-4.1203,-4.2396,-4.313,-4.3497,-4.3497,-4.3497,-4.3513,-4.3712,-4.3777,-4.3814,-4.356,-4.3486,-4.349,-4.3493,-4.3497,-4.3497,-4.3497,-4.3497,-4.3497,-4.3497,-4.3497,-4.3497,-4.3497,-4.3684,-4.3972,-4.4486,-4.521,-4.5846,-4.6008,-4.6996,-4.7753,-4.7414,-4.8009,-4.7964,-4.6096,-4.6118,-4.6014,-4.4759,-4.4587,-4.4587,-4.4587,-4.4587,-4.4587,-4.4587,-4.4587,-4.4587,-4.4587,-4.4196,-4.3948,-4.3948,-4.3948,-4.3948,-4.3948,-4.4384,-4.4587,-4.4587,-4.4587,-4.4587,-4.4587,-4.4587,-4.4587,-4.4587,-4.4587,-4.4587,-2.9604,-2.9404,-2.9239,-2.8626,-2.841,-2.817,0.0,0.0,0.0,-2.7195,-2.6871,-2.6931,-2.8122,-2.7953,0.0,-3.0822,0.0,0.0,0.0,-3.5876,0.0,-3.7702,0.0,0.0,0.0,-4.007,-3.9766,-3.9056,-3.7889,-3.7221,-3.716,-3.6818,-3.6707,-3.6893,-3.7577,-3.7946,-3.8047,-3.8496,-3.8844,-3.9099,-3.8884,-3.8894,-3.9099,-3.8884,-3.8732,-3.8744,-3.9551,-4.0359,-4.1167,-4.1974,-4.2763,-4.3497,-4.3497,-4.3497,-4.3548,-4.3804,-4.3968,-4.4005,-4.3714,-4.3584,-4.3503,-4.349,-4.3497,-4.3497,-4.3497,-4.3497,-4.3497,-4.3497,-4.3497,-4.3497,-4.3497,-4.3504,-4.3658,-4.4258,-4.5283,-4.6213,-4.6542,-4.7307,-4.7894,-4.7611,-4.8218,-4.8273,-4.6674,-4.6383,-4.6014,-4.4759,-4.4587,-4.4587,-4.4587,-4.4587,-4.4587,-4.4587,-4.4587,-4.4587,-4.4587,-4.4587,-4.4587,-4.4587,-4.4587,-4.4587,-4.4587,-4.4587,-4.4587,-4.4587,-4.4587,-4.4587,-4.4587,-4.4587,-4.4587,-4.4587,-4.4587,-4.4587,-3.1053,-3.0556,-3.0137,-2.9895,-2.9172,-2.8249,-2.7497,0.0,-2.6534,-2.5944,0.0,-2.6829,-2.7473,0.0,0.0,-3.0205,0.0,0.0,-3.3305,-3.5419,-3.6907,-3.6907,-3.821,0.0,0.0,-4.007,-3.9766,-3.9056,-3.8836,-3.8683,-3.8476,-3.7776,-3.7825,-3.878,-3.822,-3.8132,-3.8578,-3.8658,-3.8844,-3.9099,-3.9072,-3.9072,-3.9099,-3.9072,-3.8905,-3.8744,-3.9551,-4.0359,-4.1167,-4.1974,-4.2763,-4.3497,-4.3497,-4.3497,-4.3479,-4.3548,-4.3582,-4.3637,-4.3984,-4.3873,-4.3493,-4.3513,-4.3497,-4.3497,-4.3497,-4.3497,-4.3497,-4.3497,-4.3497,-4.3497,-4.3497,-4.3509,-4.3528,-4.3602,-4.4229,-4.5209,-4.6656,-4.7042,-4.7132,-4.7084,-4.7792,-4.7941,-4.6618,-4.6383,-4.6014,-4.4759,-4.4587,-4.4587,-4.4587,-4.4587,-4.4587,-4.4587,-4.4587,-4.4587,-4.4587,-4.4587,-4.4587,-4.4587,-4.4587,-4.4587,-4.4587,-4.4587,-4.4587,-4.4587,-4.4587,-4.4587,-4.4587,-4.4587,-4.4587,-4.4587,-4.4587,-4.4587,-3.1269,-3.0757,-3.0185,-2.9805,-2.9109,-2.8309,-2.7627,-2.7321,-2.7081,-2.6797,0.0,0.0,0.0,0.0,0.0,0.0,-3.1748,0.0,0.0,0.0,-3.5318,0.0,0.0,0.0,0.0,0.0,0.0,0.0,-4.0008,-3.9966,-3.9849,-3.9403,-3.9113,-3.912,-3.907,-3.8921,-3.8707,-3.8707,-3.8844,-3.9099,-3.8933,-3.8961,-3.908,-3.8933,-3.8803,-3.8726,-3.9056,-3.9937,-4.1148,-4.1479,-4.2359,-4.3497,-4.3497,-4.3497,-4.3513,-4.3726,-4.3804,-4.3823,-4.4008,-4.3952,-4.3758,-4.3563,-4.3497,-4.3497,-4.3497,-4.3502,-4.3513,-4.3513,-4.3513,-4.3481,-4.3504,-4.3498,-4.3981,-4.5833,-4.6509,-4.6925,-4.7605,-4.7768,-4.7757,-4.7757,-4.8052,-4.8126,-4.7571,-4.6699,-4.5688,-4.4742,-4.4587,-4.4587,-4.4587,-4.4587,-4.472,-4.5089,-4.5142,-4.5267,-4.5597,-4.5648,-4.5648,-4.5648,-4.5648,-4.5648,-4.5648,-4.532,-4.5142,-4.5142,-4.4759,-4.4587,-4.4587,-4.4587,-4.4587,-4.4587,-4.4587,-4.4587,-3.119,-3.0757,-3.0208,-2.9761,-2.9058,-2.8367,-2.7959,-2.7861,-2.7859,-2.7859,-2.7619,0.0,0.0,0.0,-3.049,-3.1752,0.0,-3.2882,-3.2882,-3.3541,0.0,0.0,0.0,0.0,0.0,0.0,0.0,0.0,0.0,0.0,-4.1354,-4.0885,-4.0347,-3.9805,-3.9841,-3.9515,-3.8707,-3.8707,-3.8803,-3.8999,-3.8803,-3.8803,-3.8971,-3.8773,-3.8707,-3.8707,-3.8707,-3.9625,-4.1111,-4.1111,-4.2047,-4.3497,-4.3497,-4.3497,-4.3513,-4.3772,-4.3849,-4.3849,-4.3849,-4.3849,-4.3818,-4.3563,-4.3508,-4.3502,-4.3502,-4.3515,-4.3594,-4.3978,-4.4076,-4.3974,-4.3602,-4.4143,-4.5388,-4.7739,-4.8292,-4.829,-4.829,-4.8307,-4.8306,-4.8306,-4.8306,-4.8297,-4.8285,-4.7089,-4.5875,-4.4964,-4.4998,-4.5052,-4.4852,-4.4998,-4.5267,-4.5681,-4.5732,-4.5915,-4.6383,-4.6383,-4.6383,-4.6383,-4.6383,-4.6383,-4.6383,-4.5965,-4.5732,-4.5732,-4.5125,-4.4869,-4.4869,-4.4665,-4.4587,-4.4587,-4.4587,-4.4587,0.0,0.0,-3.0309,-3.0293,-2.9361,-2.8511,-2.8463,-2.8525,-2.8562,-2.8562,-2.9056,-2.9871,-3.1164,-3.1406,-3.1848,-3.3127,-3.3964,0.0,0.0,-3.5064,0.0,0.0,0.0,0.0,0.0,0.0,0.0,0.0,0.0,0.0,-4.308,-4.2014,-4.1428,-4.1529,-4.0468,-3.9515,-3.8707,-3.8707,-3.8707,-3.8719,-3.8707,-3.8707,-3.8719,-3.8707,-3.8707,-3.8707,-3.8707,-3.9625,-4.1111,-4.1111,-4.2047,-4.3497,-4.3497,-4.3497,-4.3497,-4.3513,-4.3513,-4.3513,-4.3513,-4.3513,-4.3513,-4.3479,-4.349,-4.3509,-4.3509,-4.3512,-4.3792,-4.5134,-4.5547,-4.5227,-4.3856,-4.5798,-4.8162,-4.8273,-4.8309,-4.8306,-4.8306,-4.8306,-4.8306,-4.8306,-4.8306,-4.8297,-4.8285,-4.7626,-4.6713,-4.5613,-4.5965,-4.6143,-4.5563,-4.5965,-4.6336,-4.6383,-4.6383,-4.6383,-4.6383,-4.6383,-4.6383,-4.6383,-4.6383,-4.6383,-4.6383,-4.6383,-4.6383,-4.6383,-4.5783,-4.5459,-4.5459,-4.4852,-4.4587,-4.4587,-4.4587,-4.4587,0.0,0.0,-3.0914,-3.1014,0.0,0.0,-2.9798,-2.9848,-2.9748,-2.93,-3.0111,-3.0914,-3.0898,-3.1999,-3.3034,-3.3433,-3.4085,-3.4489,0.0,-3.4709,0.0,-3.5685,-3.6878,-3.8044,0.0,0.0,0.0,0.0,-4.2759,0.0,0.0,-4.3602,-4.3287,-4.2728,-4.1825,-4.0967,-4.0169,-3.9361,-3.8943,-3.8961,-3.8773,-3.8707,-3.8707,-3.8707,-3.8707,-3.8707,-3.8707,-3.9625,-4.1111,-4.1111,-4.2047,-4.3497,-4.3497,-4.3497,-4.3497,-4.3497,-4.3497,-4.3497,-4.3497,-4.3497,-4.3511,-4.3486,-4.3509,-4.3513,-4.3484,-4.3504,-4.3801,-4.5198,-4.5584,-4.5771,-4.6488,-4.7492,-4.831,-4.8289,-4.8288,-4.8306,-4.8306,-4.8306,-4.8306,-4.8306,-4.8306,-4.8304,-4.8312,-4.805,-4.7482,-4.6288,-4.6046,-4.6129,-4.6509,-4.6447,-4.6571,-4.6999,-4.7044,-4.7237,-4.7596,-4.7656,-4.7656,-4.7656,-4.7656,-4.7656,-4.7656,-4.7281,-4.7044,-4.7044,-4.643,-4.6112,-4.6094,-4.5511,-4.5178,-4.5178,-4.4776,-4.484,-3.119,-3.119,0.0,-3.104,-3.0639,0.0,-3.0454,0.0,-3.0831,-3.0618,-3.1514,-3.2238,-3.2074,-3.308,-3.4041,-3.4289,-3.4639,-3.4895,0.0,-3.4895,-3.5352,-3.6551,-3.6915,-3.7696,-3.9231,-4.036,-4.145,-4.2504,-4.3439,0.0,0.0,0.0,-4.4279,-4.3531,-4.2597,-4.1693,-4.091,-3.9821,-3.9212,-3.9099,-3.8905,-3.8803,-3.8707,-3.8707,-3.8732,-3.8862,-3.9158,-4.0115,-4.1475,-4.1753,-4.26,-4.3679,-4.3679,-4.3579,-4.3497,-4.3497,-4.3497,-4.3513,-4.3646,-4.3697,-4.3744,-4.3759,-4.3812,-4.3837,-4.3593,-4.3859,-4.4431,-4.5331,-4.6067,-4.6845,-4.7988,-4.8288,-4.8309,-4.8288,-4.8306,-4.8306,-4.8306,-4.8306,-4.8306,-4.8306,-4.8306,-4.8306,-4.8306,-4.8306,-4.8032,-4.7187,-4.6883,-4.6838,-4.7168,-4.7143,-4.7219,-4.7656,-4.7715,-4.7897,-4.8267,-4.8306,-4.8306,-4.8306,-4.8306,-4.8306,-4.8306,-4.7937,-4.7715,-4.7715,-4.7088,-4.6756,-4.6756,-4.6112,-4.5821,-4.591,-4.5787,-4.6103]}]]